[[{"header":{"parameterUnit":"m.s-1","parameterCategory":1,"la1":30.6,"la2":28.766,"lo1":-90.7593,"lo2":-88.6598,"dy":0.0162,"dx":0.0183,"nx":116,"ny":114,"refTime":"2024-04-25T06:00:00:Z","depth":0,"parameterNumber":2,"parameterNumberName":"U-component_of_WINDS"},"data":[0.0,0.0,0.0,0.0,0.0,0.0,0.0,0.0,0.0,0.0,0.0,0.0,0.0,0.0,0.0,0.0,0.0,0.0,0.0,0.0,0.0,0.0,0.0,0.0,0.0,0.0,0.0,0.0,0.0,0.0,0.0,0.0,0.0,0.0,0.0,0.0,0.0,0.0,0.0,0.0,0.0,0.0,0.0,0.0,0.0,0.0,0.0,0.0,0.0,0.0,0.0,0.0,0.0,0.0,0.0,0.0,0.0,0.0,0.0,0.0,0.0,0.0,0.0,0.0,0.0,0.0,0.0,0.0,0.0,0.0,0.0,0.0,0.0,0.0,0.0,0.0,0.0,0.0,0.0,0.0,0.0,0.0,0.0,0.0,0.0,0.0,0.0,0.0,0.0,0.0,0.0,0.0,0.0,0.0,0.0,0.0,0.0,0.0,0.0,0.0,0.0,0.0,0.0,0.0,0.0,0.0,0.0,0.0,0.0,0.0,0.0,0.0,0.0,0.0,0.0,0.0,0.0,0.0,0.0,0.0,0.0,0.0,0.0,0.0,0.0,0.0,0.0,0.0,0.0,0.0,0.0,0.0,0.0,0.0,0.0,0.0,0.0,0.0,0.0,0.0,0.0,0.0,0.0,0.0,0.0,0.0,0.0,0.0,0.0,0.0,0.0,0.0,0.0,0.0,0.0,0.0,0.0,0.0,0.0,0.0,0.0,0.0,0.0,0.0,0.0,0.0,0.0,0.0,0.0,0.0,0.0,0.0,0.0,0.0,0.0,0.0,0.0,0.0,0.0,0.0,0.0,0.0,0.0,0.0,0.0,0.0,0.0,0.0,0.0,0.0,0.0,0.0,0.0,0.0,0.0,0.0,0.0,0.0,0.0,0.0,0.0,0.0,0.0,0.0,0.0,0.0,0.0,0.0,0.0,0.0,0.0,0.0,0.0,0.0,0.0,0.0,0.0,0.0,0.0,0.0,0.0,0.0,0.0,0.0,0.0,0.0,0.0,0.0,0.0,0.0,0.0,0.0,0.0,0.0,0.0,0.0,0.0,0.0,0.0,0.0,0.0,0.0,0.0,0.0,0.0,0.0,0.0,0.0,0.0,0.0,0.0,0.0,0.0,0.0,0.0,0.0,0.0,0.0,0.0,0.0,0.0,0.0,0.0,0.0,0.0,0.0,0.0,0.0,0.0,0.0,0.0,0.0,0.0,0.0,0.0,0.0,0.0,0.0,0.0,0.0,0.0,0.0,0.0,0.0,0.0,0.0,0.0,0.0,0.0,0.0,0.0,0.0,0.0,0.0,0.0,0.0,0.0,0.0,0.0,0.0,0.0,0.0,0.0,0.0,0.0,0.0,0.0,0.0,0.0,0.0,0.0,0.0,0.0,0.0,0.0,0.0,0.0,0.0,0.0,0.0,0.0,0.0,0.0,0.0,0.0,0.0,0.0,0.0,0.0,0.0,0.0,0.0,0.0,0.0,0.0,0.0,0.0,0.0,0.0,0.0,0.0,0.0,0.0,0.0,0.0,0.0,0.0,0.0,0.0,0.0,0.0,0.0,0.0,0.0,0.0,0.0,0.0,0.0,0.0,0.0,0.0,0.0,0.0,0.0,0.0,0.0,0.0,0.0,0.0,0.0,0.0,0.0,0.0,0.0,0.0,0.0,0.0,0.0,0.0,0.0,0.0,0.0,0.0,0.0,0.0,0.0,0.0,0.0,0.0,0.0,0.0,0.0,0.0,0.0,0.0,0.0,0.0,0.0,0.0,0.0,0.0,0.0,0.0,0.0,0.0,0.0,0.0,0.0,0.0,0.0,0.0,0.0,0.0,0.0,0.0,0.0,0.0,0.0,0.0,0.0,0.0,0.0,0.0,0.0,0.0,0.0,0.0,0.0,0.0,0.0,0.0,0.0,0.0,0.0,0.0,0.0,0.0,0.0,0.0,0.0,0.0,0.0,0.0,0.0,0.0,0.0,0.0,0.0,0.0,0.0,0.0,0.0,0.0,0.0,0.0,0.0,0.0,0.0,0.0,0.0,0.0,0.0,0.0,0.0,0.0,0.0,0.0,0.0,0.0,0.0,0.0,0.0,0.0,0.0,0.0,0.0,0.0,0.0,0.0,0.0,0.0,0.0,0.0,0.0,0.0,0.0,0.0,0.0,0.0,0.0,0.0,0.0,0.0,0.0,0.0,0.0,0.0,0.0,0.0,0.0,0.0,0.0,0.0,0.0,0.0,0.0,0.0,0.0,0.0,0.0,0.0,0.0,0.0,0.0,0.0,0.0,0.0,0.0,0.0,0.0,0.0,0.0,0.0,0.0,0.0,0.0,0.0,0.0,0.0,0.0,0.0,0.0,0.0,0.0,0.0,0.0,0.0,0.0,0.0,0.0,0.0,0.0,0.0,0.0,0.0,0.0,0.0,0.0,0.0,0.0,0.0,0.0,0.0,0.0,0.0,0.0,0.0,0.0,0.0,0.0,0.0,0.0,0.0,0.0,0.0,0.0,0.0,0.0,0.0,0.0,0.0,0.0,0.0,0.0,0.0,0.0,0.0,0.0,0.0,0.0,0.0,0.0,0.0,0.0,0.0,0.0,0.0,0.0,0.0,0.0,0.0,0.0,0.0,0.0,0.0,0.0,0.0,0.0,0.0,0.0,0.0,0.0,0.0,0.0,0.0,0.0,0.0,0.0,0.0,0.0,0.0,0.0,0.0,0.0,0.0,0.0,0.0,0.0,0.0,0.0,0.0,0.0,0.0,0.0,0.0,0.0,0.0,0.0,0.0,0.0,0.0,0.0,0.0,0.0,0.0,0.0,0.0,0.0,0.0,0.0,0.0,0.0,0.0,0.0,0.0,0.0,0.0,0.0,0.0,0.0,0.0,0.0,0.0,0.0,0.0,0.0,0.0,0.0,0.0,0.0,0.0,0.0,0.0,0.0,0.0,0.0,0.0,0.0,0.0,0.0,0.0,0.0,0.0,0.0,0.0,0.0,0.0,0.0,0.0,0.0,0.0,0.0,0.0,0.0,0.0,0.0,0.0,0.0,0.0,0.0,0.0,0.0,0.0,0.0,0.0,0.0,0.0,0.0,0.0,0.0,0.0,0.0,0.0,0.0,0.0,0.0,0.0,0.0,0.0,0.0,0.0,0.0,0.0,0.0,0.0,0.0,0.0,0.0,0.0,0.0,0.0,0.0,0.0,0.0,0.0,0.0,0.0,0.0,0.0,0.0,0.0,0.0,0.0,0.0,0.0,0.0,0.0,0.0,0.0,0.0,0.0,0.0,0.0,0.0,0.0,0.0,0.0,0.0,0.0,0.0,0.0,0.0,0.0,0.0,0.0,0.0,0.0,0.0,0.0,0.0,0.0,0.0,0.0,0.0,0.0,0.0,0.0,0.0,0.0,0.0,0.0,0.0,0.0,0.0,0.0,0.0,0.0,0.0,0.0,0.0,0.0,0.0,0.0,0.0,0.0,0.0,0.0,0.0,0.0,0.0,0.0,0.0,0.0,0.0,0.0,0.0,0.0,0.0,0.0,0.0,0.0,0.0,0.0,0.0,0.0,0.0,0.0,0.0,0.0,0.0,0.0,0.0,0.0,0.0,0.0,0.0,0.0,0.0,0.0,0.0,0.0,0.0,0.0,0.0,0.0,0.0,0.0,0.0,0.0,0.0,0.0,0.0,0.0,0.0,0.0,0.0,0.0,0.0,0.0,0.0,0.0,0.0,0.0,0.0,0.0,0.0,0.0,0.0,0.0,0.0,0.0,0.0,0.0,0.0,0.0,0.0,0.0,0.0,0.0,0.0,0.0,0.0,0.0,0.0,0.0,0.0,0.0,0.0,0.0,0.0,0.0,0.0,0.0,0.0,0.0,0.0,0.0,0.0,0.0,0.0,0.0,0.0,0.0,0.0,0.0,0.0,0.0,0.0,0.0,0.0,0.0,0.0,0.0,0.0,0.0,0.0,0.0,0.0,0.0,0.0,0.0,0.0,0.0,0.0,0.0,0.0,0.0,0.0,0.0,0.0,0.0,0.0,0.0,0.0,0.0,0.0,0.0,0.0,0.0,0.0,0.0,0.0,0.0,0.0,0.0,0.0,0.0,0.0,0.0,0.0,0.0,0.0,0.0,0.0,0.0,0.0,0.0,0.0,0.0,0.0,0.0,0.0,0.0,0.0,0.0,0.0,0.0,0.0,0.0,0.0,0.0,0.0,0.0,0.0,0.0,0.0,0.0,0.0,0.0,0.0,0.0,0.0,0.0,0.0,0.0,0.0,0.0,0.0,0.0,0.0,0.0,0.0,0.0,0.0,0.0,0.0,0.0,0.0,0.0,0.0,0.0,0.0,0.0,0.0,0.0,0.0,0.0,0.0,0.0,0.0,0.0,0.0,0.0,0.0,0.0,0.0,0.0,0.0,0.0,0.0,0.0,0.0,0.0,0.0,0.0,0.0,0.0,0.0,0.0,0.0,0.0,0.0,0.0,0.0,0.0,0.0,0.0,0.0,0.0,0.0,0.0,0.0,0.0,0.0,0.0,0.0,0.0,0.0,0.0,0.0,0.0,0.0,0.0,0.0,0.0,0.0,0.0,0.0,0.0,0.0,0.0,0.0,0.0,0.0,0.0,0.0,0.0,0.0,0.0,0.0,0.0,0.0,0.0,0.0,0.0,0.0,0.0,0.0,0.0,0.0,0.0,0.0,0.0,0.0,0.0,0.0,0.0,0.0,0.0,0.0,0.0,0.0,0.0,0.0,0.0,0.0,0.0,0.0,0.0,0.0,0.0,0.0,0.0,0.0,0.0,0.0,0.0,0.0,0.0,0.0,0.0,0.0,0.0,0.0,0.0,0.0,0.0,0.0,0.0,0.0,0.0,0.0,0.0,0.0,0.0,0.0,0.0,0.0,0.0,0.0,0.0,0.0,0.0,0.0,0.0,0.0,0.0,0.0,0.0,0.0,0.0,0.0,0.0,0.0,0.0,0.0,0.0,0.0,0.0,0.0,0.0,0.0,0.0,0.0,0.0,0.0,0.0,0.0,0.0,0.0,0.0,0.0,0.0,0.0,0.0,0.0,0.0,0.0,0.0,0.0,0.0,0.0,0.0,0.0,0.0,0.0,0.0,0.0,0.0,0.0,0.0,0.0,0.0,0.0,0.0,0.0,0.0,0.0,0.0,0.0,0.0,0.0,0.0,0.0,0.0,0.0,0.0,0.0,0.0,0.0,0.0,0.0,0.0,0.0,0.0,0.0,0.0,0.0,0.0,0.0,0.0,0.0,0.0,0.0,0.0,0.0,0.0,0.0,0.0,0.0,0.0,0.0,0.0,0.0,0.0,0.0,0.0,0.0,0.0,0.0,0.0,0.0,0.0,0.0,0.0,0.0,0.0,0.0,0.0,0.0,0.0,0.0,0.0,0.0,0.0,0.0,0.0,0.0,0.0,0.0,0.0,0.0,0.0,0.0,0.0,0.0,0.0,0.0,0.0,0.0,0.0,0.0,0.0,0.0,0.0,0.0,0.0,0.0,0.0,0.0,0.0,0.0,0.0,0.0,0.0,0.0,0.0,0.0,0.0,0.0,0.0,0.0,0.0,0.0,0.0,0.0,0.0,0.0,0.0,0.0,0.0,0.0,0.0,0.0,0.0,0.0,0.0,0.0,0.0,0.0,0.0,0.0,0.0,0.0,0.0,0.0,0.0,0.0,0.0,0.0,0.0,0.0,0.0,0.0,0.0,0.0,0.0,0.0,0.0,0.0,0.0,0.0,0.0,0.0,0.0,0.0,0.0,0.0,0.0,0.0,0.0,0.0,0.0,0.0,0.0,0.0,0.0,0.0,0.0,0.0,0.0,0.0,0.0,0.0,0.0,0.0,0.0,0.0,0.0,0.0,0.0,0.0,0.0,0.0,0.0,0.0,0.0,0.0,0.0,0.0,0.0,0.0,0.0,0.0,0.0,0.0,0.0,0.0,0.0,0.0,0.0,0.0,0.0,0.0,0.0,0.0,0.0,0.0,0.0,0.0,0.0,0.0,0.0,0.0,0.0,0.0,0.0,0.0,0.0,0.0,0.0,0.0,0.0,0.0,0.0,0.0,0.0,0.0,0.0,0.0,-3.439,0.0,0.0,0.0,0.0,0.0,0.0,0.0,0.0,0.0,0.0,0.0,0.0,0.0,0.0,0.0,0.0,0.0,0.0,0.0,0.0,0.0,0.0,0.0,0.0,-1.9073,-1.9192,-1.9311,-1.9292,-1.9384,-1.9586,-1.9765,-2.0058,-2.0484,-2.0888,-2.1243,-2.1577,-2.2019,-2.2132,-2.1865,-2.2132,-2.2043,-2.1687,-2.1687,-2.1687,-2.1687,0.0,0.0,0.0,0.0,0.0,0.0,0.0,0.0,0.0,0.0,0.0,0.0,0.0,0.0,0.0,0.0,0.0,0.0,0.0,0.0,0.0,0.0,0.0,0.0,0.0,0.0,0.0,0.0,0.0,0.0,0.0,0.0,0.0,0.0,0.0,0.0,0.0,0.0,0.0,0.0,0.0,0.0,0.0,0.0,0.0,0.0,0.0,0.0,0.0,0.0,0.0,0.0,0.0,0.0,0.0,0.0,0.0,0.0,0.0,0.0,0.0,0.0,0.0,0.0,0.0,0.0,0.0,0.0,0.0,0.0,0.0,-3.4517,0.0,0.0,0.0,0.0,0.0,0.0,0.0,0.0,0.0,0.0,0.0,0.0,0.0,0.0,0.0,0.0,0.0,0.0,0.0,0.0,0.0,-1.9033,-1.9033,-1.9192,-1.9292,-1.9292,-1.9366,-1.9567,-1.9875,-2.0021,-2.0429,-2.1114,-2.1225,-2.1514,-2.2087,-2.2309,-2.2264,-2.2043,-2.222,-2.2087,-2.1687,-2.1687,-2.1687,-2.1687,-2.1687,0.0,0.0,0.0,0.0,0.0,0.0,0.0,0.0,0.0,0.0,0.0,0.0,0.0,0.0,0.0,0.0,0.0,0.0,0.0,0.0,0.0,0.0,0.0,0.0,0.0,0.0,0.0,0.0,0.0,0.0,0.0,0.0,0.0,0.0,0.0,0.0,0.0,0.0,0.0,0.0,0.0,0.0,0.0,0.0,0.0,0.0,0.0,0.0,0.0,0.0,0.0,0.0,0.0,0.0,0.0,0.0,0.0,0.0,0.0,0.0,0.0,0.0,0.0,-3.5003,-3.5003,-3.4839,-3.4839,-3.4839,-3.4786,-3.4443,-3.4399,-3.4629,0.0,0.0,0.0,0.0,0.0,0.0,0.0,0.0,0.0,0.0,0.0,0.0,0.0,0.0,0.0,0.0,0.0,0.0,0.0,0.0,-1.9271,-1.9271,-1.9253,-1.9292,-1.9292,-1.9641,-1.9838,-1.9893,-2.0534,-2.1084,-2.1453,-2.1764,-2.1987,-2.2106,-2.2309,-2.2176,-2.1731,-2.1776,-2.1776,-2.1687,-2.1687,-2.1687,-2.1687,-2.1687,-2.1839,-2.2106,0.0,0.0,0.0,0.0,0.0,0.0,0.0,0.0,0.0,0.0,0.0,0.0,0.0,0.0,0.0,0.0,0.0,0.0,0.0,0.0,0.0,0.0,0.0,0.0,0.0,0.0,0.0,0.0,0.0,0.0,0.0,0.0,0.0,0.0,0.0,0.0,0.0,0.0,0.0,0.0,0.0,-3.1562,-3.2039,0.0,0.0,0.0,0.0,0.0,0.0,0.0,0.0,0.0,0.0,0.0,0.0,0.0,-3.4839,-3.4839,-3.5044,-3.5127,-3.5044,-3.5086,-3.5086,-3.5044,-3.5044,-3.4962,-3.4797,-3.4762,0.0,-3.5049,-3.5585,0.0,0.0,0.0,0.0,0.0,0.0,0.0,0.0,0.0,0.0,0.0,0.0,0.0,0.0,0.0,0.0,0.0,0.0,0.0,0.0,0.0,-1.9292,-1.9402,-1.9641,-1.9783,-2.0076,-2.0558,-2.0906,-2.1305,-2.1808,-2.1994,-2.2132,-2.2264,-2.2353,-2.2264,-2.1909,-2.1776,-2.1797,-2.2016,-2.2016,-2.2144,-2.2364,-2.2364,-2.2391,-2.246,-2.2938,0.0,0.0,0.0,0.0,0.0,0.0,0.0,0.0,0.0,0.0,0.0,0.0,0.0,0.0,0.0,0.0,0.0,0.0,0.0,0.0,0.0,0.0,0.0,0.0,0.0,0.0,0.0,0.0,0.0,0.0,0.0,0.0,0.0,0.0,0.0,0.0,0.0,0.0,0.0,-3.2382,-3.2416,-3.2667,-3.2692,-3.2792,0.0,0.0,0.0,0.0,0.0,0.0,0.0,0.0,0.0,-3.4272,-3.4439,-3.459,-3.459,-3.4647,-3.4688,-3.4688,-3.4688,-3.4688,-3.4688,-3.4688,-3.4647,-3.459,-3.459,-3.4632,-3.4771,-3.5386,-3.5951,-3.648,0.0,0.0,0.0,0.0,-3.8043,-3.8335,0.0,0.0,0.0,0.0,0.0,0.0,0.0,0.0,0.0,0.0,0.0,0.0,-1.9292,-1.9292,-1.9476,-1.9857,-1.9985,-2.0332,-2.1071,-2.12,-2.1533,-2.2176,-2.2176,-2.2264,-2.2485,-2.2397,-2.222,-2.2017,-2.1886,-2.1998,-2.2272,-2.2382,-2.2602,-2.2913,-2.3023,-2.2915,-2.2797,-2.3373,-2.3951,-2.4644,0.0,0.0,0.0,0.0,0.0,0.0,0.0,0.0,0.0,0.0,0.0,0.0,0.0,0.0,0.0,0.0,0.0,0.0,0.0,0.0,0.0,0.0,0.0,0.0,0.0,0.0,0.0,0.0,0.0,0.0,0.0,0.0,0.0,0.0,0.0,0.0,0.0,-3.3111,-3.3111,-3.3111,-3.3154,-3.3197,0.0,0.0,0.0,0.0,0.0,0.0,-3.438,-3.4422,-3.4543,-3.4842,-3.4842,-3.4842,-3.4842,-3.4842,-3.4842,-3.4842,-3.4842,-3.4842,-3.4842,-3.4926,-3.4926,-3.4926,-3.501,-3.5052,-3.5026,-3.5233,-3.5548,-3.5991,-3.6822,-3.7481,-3.7938,-3.8277,-3.8686,-3.909,0.0,0.0,0.0,0.0,0.0,0.0,0.0,0.0,0.0,0.0,0.0,-1.9292,-1.9292,-1.9292,-1.9476,-1.9857,-2.0223,-2.0668,-2.1071,-2.1449,-2.1891,-2.2353,-2.2397,-2.253,-2.275,-2.2353,-2.2017,-2.1731,-2.2071,-2.2254,-2.2291,-2.2693,-2.2895,-2.2931,-2.3297,-2.3242,-2.2923,-2.3177,-2.3598,-2.4071,-2.4828,0.0,0.0,0.0,0.0,0.0,0.0,0.0,0.0,0.0,0.0,0.0,0.0,0.0,0.0,0.0,0.0,0.0,0.0,0.0,0.0,0.0,0.0,0.0,0.0,0.0,0.0,0.0,0.0,0.0,0.0,0.0,0.0,0.0,0.0,0.0,0.0,0.0,0.0,-3.3111,-3.3283,0.0,0.0,0.0,0.0,-3.4089,-3.423,-3.4591,-3.5234,-3.526,-3.5495,-3.5992,-3.6018,-3.6018,-3.6018,-3.6018,-3.6018,-3.6018,-3.6018,-3.6018,-3.6018,-3.6305,-3.6392,-3.6392,-3.6678,-3.6764,-3.6684,-3.558,-3.5372,-3.579,-3.6468,-3.7211,-3.7938,-3.8127,-3.8575,-3.909,0.0,0.0,0.0,0.0,0.0,-1.8772,-1.8971,-1.9152,-1.9292,-1.9292,-1.9292,-1.9292,-1.9292,-1.9549,-1.9861,-2.0223,-2.0668,-2.1114,-2.1713,-2.188,-2.2176,-2.2618,-2.2662,-2.2618,-2.253,-2.2528,-2.2343,-2.2071,-2.2474,-2.2821,-2.3059,-2.3206,-2.3474,-2.373,-2.3877,-2.3859,-2.373,-2.3955,-2.4245,-2.4679,-2.5444,-2.6276,0.0,0.0,0.0,0.0,0.0,0.0,0.0,0.0,0.0,0.0,0.0,0.0,0.0,0.0,0.0,0.0,0.0,0.0,0.0,0.0,0.0,0.0,0.0,0.0,0.0,0.0,0.0,0.0,0.0,0.0,0.0,0.0,0.0,0.0,0.0,0.0,0.0,-3.3111,-3.3741,0.0,-3.4012,-3.4709,-3.5193,-3.5193,-3.5366,-3.56,-3.5809,-3.5809,-3.5913,-3.6096,-3.6096,-3.6096,-3.6096,-3.6297,-3.6341,-3.6341,-3.6541,-3.6628,-3.6628,-3.686,-3.6946,-3.6989,-3.7373,-3.7543,-3.7558,-3.7414,-3.6921,-3.6361,-3.7171,-3.7473,-3.7558,-3.8014,-3.8501,-3.8943,0.0,0.0,0.0,-1.8451,-1.8692,-1.8891,-1.917,-1.939,-1.9469,-1.9429,-1.939,-1.939,-1.9311,-1.9677,-2.0058,-2.0442,-2.0973,-2.1509,-2.2157,-2.2264,-2.2504,-2.2882,-2.2838,-2.2694,-2.2516,-2.2644,-2.2621,-2.2492,-2.2913,-2.3242,-2.3499,-2.3675,-2.3895,-2.4202,-2.4202,-2.4202,-2.4202,-2.435,-2.4529,-2.4843,-2.546,-2.6187,-2.7078,0.0,0.0,0.0,0.0,0.0,0.0,0.0,0.0,0.0,0.0,0.0,0.0,0.0,0.0,0.0,0.0,0.0,0.0,0.0,0.0,0.0,0.0,0.0,0.0,0.0,0.0,0.0,0.0,0.0,0.0,0.0,0.0,0.0,0.0,0.0,-3.3593,-3.3639,-3.4299,-3.4747,-3.4685,-3.5344,-3.5815,-3.5903,-3.6009,-3.6201,-3.641,-3.641,-3.6488,-3.6698,-3.6786,-3.6831,-3.6831,-3.7052,-3.7254,-3.7316,-3.7561,-3.7735,-3.7822,-3.8141,-3.8285,-3.837,-3.8753,-3.8963,-3.9089,-3.9465,-3.8975,-3.8047,-3.8311,-3.8399,-3.8341,-3.8803,-3.922,-3.9595,0.0,-1.7991,-1.817,-1.8612,-1.8891,-1.9112,-1.9566,-1.9784,-1.9824,-1.9645,-1.9606,-1.9527,-1.9329,-1.9696,-2.0118,-2.0503,-2.1163,-2.1789,-2.2403,-2.2662,-2.2925,-2.3101,-2.2925,-2.2764,-2.2729,-2.2702,-2.2788,-2.2931,-2.3316,-2.3517,-2.3517,-2.3969,-2.4202,-2.4202,-2.4202,-2.4202,-2.4202,-2.4202,-2.4301,-2.4529,-2.4775,-2.5509,-2.6504,0.0,0.0,0.0,0.0,0.0,0.0,0.0,0.0,0.0,0.0,0.0,0.0,0.0,0.0,0.0,0.0,0.0,0.0,0.0,0.0,0.0,0.0,0.0,0.0,0.0,0.0,0.0,0.0,0.0,0.0,0.0,0.0,0.0,-3.3997,-3.3922,-3.4123,-3.465,-3.4976,-3.52,-3.5424,-3.5672,-3.5937,-3.6149,-3.6149,-3.641,-3.7011,-3.7037,-3.7299,-3.7874,-3.8103,-3.8213,-3.8213,-3.8512,-3.8737,-3.898,-3.923,-3.9496,-3.9689,-4.017,-4.0488,-4.0674,-4.093,-4.1141,-4.1323,-4.1632,-4.1369,-4.0804,-3.9871,-3.9812,-4.0236,-4.0432,-4.0772,-4.1148,0.0,-1.8273,-1.8434,-1.8851,-1.9073,-1.935,-1.9745,-1.9863,-1.9863,-1.9824,-1.9685,-1.9638,-1.9732,-2.0282,-2.0773,-2.1182,-2.1981,-2.2678,-2.3144,-2.3406,-2.3537,-2.3624,-2.3101,-2.2853,-2.2911,-2.2862,-2.3026,-2.3334,-2.3785,-2.3987,-2.3987,-2.4146,-2.4202,-2.4202,-2.4202,-2.4202,-2.4202,-2.4202,-2.4251,-2.4301,-2.4529,-2.4873,-2.546,0.0,0.0,0.0,0.0,0.0,0.0,0.0,0.0,0.0,0.0,0.0,0.0,0.0,0.0,0.0,0.0,0.0,0.0,0.0,0.0,0.0,0.0,0.0,0.0,0.0,0.0,0.0,0.0,0.0,0.0,0.0,-3.468,-3.4675,-3.4525,-3.4634,-3.4729,-3.47,-3.544,-3.5987,-3.6032,-3.6644,-3.7131,-3.7403,-3.7403,-3.7482,-3.7639,-3.7665,-3.7743,-3.79,-3.8103,-3.8213,-3.8213,-3.88,-3.9464,-4.014,-4.0747,-4.1339,-4.1996,-4.2052,-4.2067,-4.2124,-4.2071,-4.2034,-4.2117,-4.2322,-4.2408,-4.2294,-4.1288,-4.0683,-4.0471,-4.0811,-4.108,-4.1308,0.0,-1.8554,-1.8754,-1.9073,-1.9469,-1.9863,-2.0255,-2.0411,-2.0411,-2.0333,-2.0137,-2.0072,-2.0164,-2.078,-2.1343,-2.1888,-2.2717,-2.345,-2.3993,-2.4186,-2.4143,-2.3797,-2.3408,-2.3255,-2.3294,-2.3402,-2.3688,-2.4078,-2.4368,-2.4498,-2.4498,-2.4399,-2.435,-2.435,-2.4251,-2.4202,-2.4202,-2.4202,-2.4251,-2.435,-2.443,-2.4578,-2.4824,-2.5654,-2.6332,-2.686,-2.7741,-2.8398,-2.8932,-2.9141,0.0,0.0,0.0,0.0,0.0,0.0,0.0,0.0,0.0,0.0,0.0,0.0,0.0,0.0,0.0,0.0,0.0,0.0,0.0,0.0,0.0,0.0,0.0,0.0,-3.5403,-3.5403,-3.5403,-3.5319,-3.5289,-3.5378,-3.5957,-3.6391,-3.6483,-3.6975,-3.7459,-3.7716,-3.7854,-3.79,-3.79,-3.7965,-3.8116,-3.8398,-3.8812,-3.9146,-3.9432,-4.016,-4.0845,-4.1429,-4.2157,-4.2794,-4.3371,-4.3458,-4.3611,0.0,-4.3566,-4.3514,-4.3608,-4.3464,-4.3467,0.0,0.0,0.0,0.0,0.0,-4.2106,-4.2192,-1.8474,-1.8794,-1.9152,-1.939,-1.9942,-2.0527,-2.0934,-2.1146,-2.1205,-2.1031,-2.0799,-2.0703,-2.0788,-2.1274,-2.1887,-2.267,-2.347,-2.4251,-2.4914,-2.4978,-2.47,-2.4013,-2.3954,-2.3894,-2.3858,-2.4203,-2.4573,-2.4971,-2.4971,-2.4971,-2.4971,-2.4726,-2.4578,-2.4578,-2.435,-2.4301,-2.4301,-2.4301,-2.4399,-2.4578,-2.4578,-2.4578,-2.4627,-2.5137,-2.5674,-2.6235,-2.6955,-2.7573,-2.8045,-2.8301,0.0,0.0,0.0,0.0,0.0,0.0,0.0,0.0,0.0,0.0,0.0,0.0,0.0,0.0,0.0,0.0,0.0,0.0,0.0,0.0,0.0,0.0,0.0,0.0,-3.6405,-3.6405,-3.6405,-3.5956,-3.5805,-3.6355,-3.6405,-3.6499,-3.6662,-3.6968,-3.7201,-3.7459,-3.7762,-3.7926,-3.8024,0.0,0.0,0.0,0.0,-4.0631,-4.1194,-4.1928,-4.248,-4.2817,-4.3514,-4.3979,-4.4326,-4.4726,-4.4993,-4.5132,-4.5042,-4.5138,-4.5244,-4.4676,-4.4377,-4.4216,-4.3369,-4.317,-4.329,-4.329,-4.329,-4.329,-1.8953,-1.9231,-1.9608,-2.002,-2.0625,-2.1167,-2.1568,-2.1645,-2.1645,-2.1606,-2.132,-2.1311,-2.1825,-2.2147,-2.2794,-2.4004,-2.4617,-2.5232,-2.5883,-2.5801,-2.5549,-2.5189,-2.4856,-2.4751,-2.4828,-2.4891,-2.513,-2.5557,-2.5557,-2.5557,-2.5557,-2.5284,-2.5137,-2.5137,-2.4892,-2.4745,-2.4745,-2.4745,-2.4892,-2.5137,-2.5137,-2.5137,-2.5186,-2.5509,-2.5945,-2.6496,-2.7071,-2.7573,-2.8045,-2.8301,-2.8768,-2.9209,-2.9485,-3.008,0.0,0.0,0.0,0.0,0.0,0.0,0.0,0.0,0.0,0.0,0.0,0.0,0.0,0.0,0.0,0.0,0.0,0.0,0.0,-3.6405,-3.6405,-3.6405,-3.6405,-3.6329,-3.6279,-3.6405,-3.6405,-3.6499,-3.6662,-3.6968,-3.7201,-3.7459,-3.7762,-3.8175,-3.8853,-3.8899,0.0,-4.0448,-4.0985,-4.1407,-4.1745,-4.2632,-4.3465,-4.4203,0.0,0.0,-4.6342,-4.6096,-4.6015,-4.6028,-4.546,-4.5263,-4.5274,-4.5155,-4.4796,-4.4257,-4.3519,-4.325,-4.329,-4.329,-4.329,-4.329,-1.9923,-2.0196,-2.0489,-2.0702,-2.1223,-2.1797,-2.2176,-2.2138,-2.2138,-2.2252,-2.1911,-2.1955,-2.2757,-2.3041,-2.3699,-2.5083,-2.5737,-2.6177,-2.6362,-2.626,-2.6052,-2.5695,-2.5806,-2.5894,-2.5854,-2.6305,-2.6662,-2.6839,-2.6839,-2.6791,-2.6648,-2.6215,-2.5994,-2.5868,-2.546,-2.5362,-2.5509,-2.5509,-2.5703,-2.6091,-2.6187,-2.6428,-2.662,-2.6235,-2.6428,-2.6907,-2.7289,-2.7762,-2.8233,-2.8348,-2.8721,-2.9163,-2.9439,-3.0034,-3.0668,0.0,0.0,0.0,0.0,0.0,0.0,0.0,0.0,0.0,0.0,0.0,0.0,0.0,0.0,-3.6405,-3.6405,0.0,-3.6405,-3.6405,-3.6405,-3.6405,-3.6405,-3.6405,-3.6405,-3.6405,-3.6405,-3.6499,-3.6662,-3.6968,-3.733,-3.7893,-3.8153,-3.8693,-3.948,-3.9787,-4.0428,-4.1536,-4.2353,-4.295,-4.3487,-4.433,-4.4964,-4.5417,-4.5991,-4.6474,-4.6901,-4.6821,-4.68,-4.68,-4.6441,-4.6292,-4.6262,-4.5933,-4.5424,-4.4766,-4.4436,-4.3858,-4.329,-4.329,-4.329,-4.329,-2.1088,-2.1377,-2.1512,-2.1397,-2.1835,-2.2365,-2.2777,-2.2665,-2.2665,-2.2852,-2.2553,-2.2726,-2.3639,-2.3905,-2.4573,-2.5983,-2.6633,-2.6903,-2.6738,-2.6633,-2.6445,-2.6113,-2.6693,-2.6973,-2.6817,-2.7693,-2.8139,-2.8139,-2.8139,-2.8023,-2.7835,-2.7268,-2.6935,-2.6784,-2.6235,-2.6119,-2.638,-2.638,-2.6716,-2.7194,-2.7384,-2.7809,-2.8233,-2.7384,-2.7289,-2.762,-2.7908,-2.8305,-2.8653,-2.8721,-2.9,-2.9347,-2.9623,-3.017,-3.0736,-3.1078,-3.1839,0.0,0.0,0.0,0.0,0.0,0.0,0.0,0.0,-3.6405,-3.6405,-3.6405,-3.6405,-3.6405,-3.6405,-3.6405,-3.6405,-3.6405,-3.6405,-3.6405,-3.6405,-3.6405,-3.6405,-3.6405,-3.6405,-3.6499,-3.6662,-3.7117,-3.7655,-3.8402,-3.8815,-3.9412,-4.0325,-4.0777,-4.161,-4.2821,-4.373,-4.455,-4.5293,-4.5972,-4.6358,-4.6358,-4.68,-4.6975,-4.6975,-4.7222,-4.7309,-4.7309,-4.7309,-4.7309,-4.7279,-4.6741,-4.6112,-4.5484,-4.5484,-4.4766,-4.3648,-4.3529,-4.3409,-4.329,-2.2138,-2.2553,-2.2628,-2.2101,-2.2365,-2.2777,-2.315,-2.3224,-2.3261,-2.3482,-2.3298,-2.3561,-2.453,-2.4679,-2.5276,-2.6689,-2.7026,-2.7149,-2.7149,-2.6985,-2.6862,-2.6798,-2.7342,-2.7591,-2.7569,-2.8244,-2.8631,-2.8631,-2.8631,-2.8631,-2.8653,-2.8139,-2.7857,-2.7809,-2.7268,-2.7173,-2.7458,-2.7458,-2.7741,-2.8254,-2.8254,-2.8699,-2.9301,-2.9209,-2.9071,-2.8932,-2.9395,-2.9578,-2.9669,-2.9943,-3.0034,-3.0125,-3.0397,-3.0668,-3.0986,-3.1774,-3.2237,-3.2702,-3.3665,-3.464,-3.5487,-3.6132,-3.6329,-3.6329,0.0,-3.6405,-3.6405,-3.6405,-3.6405,-3.6405,-3.6405,-3.6405,-3.6405,-3.6405,-3.6405,-3.6405,-3.6405,-3.6405,-3.6405,-3.6405,-3.6405,-3.6499,-3.6662,-3.7664,-3.8376,-3.8663,-3.9606,-4.0683,-4.1721,-4.2031,-4.2868,-4.4396,-4.5024,-4.5553,-4.6061,-4.655,-4.6844,-4.6844,-4.7106,-4.7266,-4.7266,-4.7309,-4.7309,-4.7309,-4.7309,-4.7309,-4.7309,-4.7219,-4.68,-4.6202,-4.6202,-4.5753,-4.5005,-4.4436,-4.3798,-4.329,-2.2703,-2.3075,-2.3261,-2.3001,-2.2927,-2.3001,-2.3409,-2.3372,-2.3409,-2.374,-2.3593,-2.3899,-2.5037,-2.5808,-2.6426,-2.7021,-2.7149,-2.719,-2.719,-2.7108,-2.7067,-2.7067,-2.7833,-2.829,-2.829,-2.9105,-2.9555,-2.9555,-2.9555,-2.9531,-2.9416,-2.9024,-2.8792,-2.8606,-2.8211,-2.8211,-2.8466,-2.8466,-2.8699,-2.9071,-2.9347,-2.9623,-2.9943,-3.0397,-3.0487,-3.0352,-3.0283,-3.0397,0.0,-3.0646,-3.0646,-3.0691,-3.0781,-3.1217,-3.1658,-3.2007,-3.2807,-3.3851,-3.4903,-3.5575,-3.6081,-3.6355,-3.6405,-3.6405,-3.6405,-3.6405,-3.6405,-3.6405,-3.6405,-3.6405,-3.6405,-3.6405,-3.6405,-3.6405,-3.6499,-3.6593,-3.6593,-3.6734,-3.6828,-3.6828,-3.7275,-3.7595,-3.7689,-3.8366,-3.9301,-4.0555,-4.1201,-4.2031,-4.3105,-4.3528,-4.418,-4.511,-4.5821,-4.6489,-4.7155,-4.754,-4.7925,-4.8313,-4.8402,-4.8237,-4.7878,-4.7878,-4.7668,-4.7309,-4.7309,-4.7309,-4.7309,-4.7309,-4.713,-4.689,-4.689,-4.6471,-4.5813,-4.5125,-4.4706,-4.4436,0.0,-2.3482,-2.3666,-2.3666,-2.3409,-2.3298,-2.3629,-2.3556,-2.3593,-2.3945,-2.3872,-2.4197,-2.537,-2.6417,-2.707,-2.7167,-2.719,-2.719,-2.719,-2.719,-2.719,-2.719,-2.8172,-2.87,-2.87,-2.9688,-3.0216,-3.0216,-3.0216,-3.0125,-2.9966,-2.9737,-2.9508,-2.9324,-2.9071,-2.9071,-2.9324,-2.9324,-2.9439,-2.9715,-3.0125,-3.0352,-3.0487,-3.1071,-3.1362,-3.1362,-3.1026,-3.105,-3.1184,-3.1184,-3.1184,-3.1231,-3.1374,-3.1772,-3.2287,-3.262,-3.3736,-3.501,-3.5808,-3.6193,-3.6405,-3.6405,-3.6405,-3.6405,-3.6405,-3.6405,-3.6405,-3.6405,-3.6405,-3.6405,-3.6405,-3.6452,-3.6499,-3.6499,-3.6734,-3.6922,-3.6922,-3.7201,-3.7438,-3.75,-3.8262,-3.8982,-3.9344,-3.97,-4.0562,-4.2152,-4.2775,-4.3426,-4.4387,-4.4805,-4.535,-4.6082,-4.6667,-4.7392,-4.8268,-4.8447,-4.8805,-4.9299,-4.9299,-4.906,-4.8566,-4.8566,-4.8207,-4.7578,-4.7578,-4.7489,-4.7309,-4.7309,-4.7309,-4.7309,-4.7309,-4.701,-4.6531,-4.6022,-4.5603,-4.5214,0.0,0.0,-2.3909,-2.3909,-2.3703,-2.3629,-2.3872,-2.3909,-2.3982,-2.4164,-2.42,-2.459,-2.5562,-2.6175,-2.668,-2.7144,-2.719,-2.719,-2.719,-2.719,-2.719,-2.719,-2.8172,-2.87,-2.87,-2.9688,-3.0216,-3.0216,-3.0216,-3.0216,-3.017,-2.9966,-2.9897,-2.9851,-2.96,-2.9646,-2.9897,-2.9897,-3.0011,-3.0216,-3.0487,-3.0736,-3.1029,-3.1229,-3.1427,-3.1717,-3.1673,-3.1673,-3.1673,-3.1673,-3.1673,-3.1769,-3.2298,-3.2491,-3.2729,-3.3974,-3.5106,-3.5955,-3.6003,-3.6193,-3.6405,-3.6405,-3.6405,-3.6405,-3.6405,-3.6405,-3.6405,-3.6405,-3.6405,-3.6405,-3.6405,-3.6546,-3.6662,-3.6662,-3.7108,-3.7459,-3.7459,-3.7848,-3.8287,-3.8606,-3.9336,-4.0345,0.0,-4.1896,-4.2254,-4.3027,-4.405,-4.4851,-4.5413,-4.5656,-4.6308,-4.7523,-4.7748,-4.8313,-4.9224,-4.9269,-4.9299,-4.9299,-4.9299,-4.9299,-4.9269,-4.9269,-4.891,-4.8267,-4.8267,-4.7908,-4.7309,-4.7309,-4.7309,-4.7309,-4.7309,-4.7309,-4.7279,-4.7249,-4.6411,-4.5304,0.0,0.0,0.0,0.0,0.0,-2.4018,-2.4091,-2.3982,-2.3959,-2.4164,-2.4774,0.0,0.0,0.0,0.0,0.0,-2.719,-2.719,-2.719,-2.719,-2.719,-2.719,-2.8172,-2.87,-2.87,-2.9688,-3.0216,-3.0216,-3.0216,-3.0216,-3.0216,-3.0125,-3.0102,-3.0102,-2.9988,-2.9988,-3.0102,-3.0102,-3.0125,-3.0261,-3.0691,-3.0916,-3.1029,-3.1407,-3.1629,-3.1717,0.0,-3.1717,-3.1717,-3.1717,-3.1958,-3.2295,-3.2575,-3.3177,-3.3997,-3.5129,-3.5736,-3.6051,-3.6241,-3.631,-3.6405,-3.6405,-3.6405,-3.6405,-3.6405,-3.6405,-3.6405,-3.6405,-3.6499,-3.6593,-3.6593,-3.6968,-3.7201,-3.7201,-3.7782,-3.8239,-3.8239,-3.8756,-3.9347,-3.9878,-4.094,0.0,0.0,0.0,0.0,-4.4584,-4.5314,-4.5837,-4.6225,-4.6829,-4.7406,-4.7792,-4.8462,-4.9164,-4.9912,-4.9912,-5.0122,-5.0571,-5.0122,-4.9912,-4.9883,-4.9464,-4.9179,-4.897,-4.897,-4.8566,-4.7967,-4.7967,-4.7698,-4.7309,-4.7309,-4.7309,-4.7309,-4.7309,-4.701,-4.6561,0.0,0.0,0.0,0.0,0.0,0.0,0.0,0.0,0.0,0.0,0.0,0.0,0.0,0.0,0.0,0.0,0.0,-2.719,-2.719,-2.719,-2.719,-2.719,-2.8012,-2.8517,-2.87,-2.9527,-3.0032,-3.0216,-3.0216,-3.0216,-3.0216,-3.0216,-3.0216,-3.0216,-3.0216,-3.0216,-3.0216,-3.0216,-3.0261,-3.0397,-3.0826,-3.1029,-3.1139,-3.154,-3.1717,0.0,-3.1717,-3.1717,-3.1717,-3.1717,-3.2123,-3.2672,-3.2977,-3.3964,-3.5131,-3.5808,-3.6051,-3.6193,-3.6358,-3.6405,-3.6405,-3.6405,-3.6405,-3.6405,-3.6405,-3.6452,-3.6499,-3.6499,-3.6781,-3.7015,-3.7083,-3.7618,-3.8031,-3.8122,-3.8756,-3.9203,-3.9203,-3.9986,-4.0785,-4.138,-4.2592,-4.3706,0.0,0.0,0.0,-4.5837,-4.6269,-4.6668,-4.7199,-4.7718,-4.8254,-4.873,-4.9283,-4.9912,-5.0524,-5.0554,-5.0764,-5.1199,-5.0734,-5.0554,-5.0524,-5.0152,-4.9823,-4.9613,-4.9613,-4.9224,-4.8626,-4.8626,-4.8237,-4.7668,-4.7668,-4.7519,-4.7309,-4.7309,-4.7309,-4.7249,0.0,0.0,0.0,0.0,0.0,0.0,0.0,0.0,0.0,0.0,0.0,0.0,0.0,0.0,0.0,0.0,0.0,0.0,-2.7231,-2.7231,-2.7231,-2.7231,-2.7713,-2.8238,-2.8654,-2.9206,-2.9711,-3.017,-3.0193,-3.0216,-3.0216,-3.0216,-3.0216,-3.0216,-3.0216,-3.0216,-3.0216,-3.0216,-3.0397,-3.0623,-3.0916,-3.1139,-3.1339,-3.1629,-3.1717,-3.1717,-3.1717,-3.1717,-3.1741,-3.1741,-3.2236,-3.3019,-3.3533,-3.4785,-3.6003,-3.6003,-3.6193,-3.6405,-3.6405,-3.6405,-3.6405,-3.6405,-3.6405,-3.6405,-3.6405,-3.6593,-3.6709,-3.6756,-3.7155,-3.7618,-3.7821,-3.8477,-3.9042,-3.9309,-3.9924,-4.0358,-4.0358,-4.1496,-4.2467,-4.2903,-4.415,-4.5184,-4.5824,0.0,0.0,-4.6653,0.0,-4.7346,-4.8237,-4.8356,-4.8955,-5.0166,-5.0226,-5.0554,-5.1199,-5.1229,-5.1229,-5.1229,-5.1229,-5.1229,-5.1229,-5.1229,-5.0823,-5.0255,-5.0255,-4.9912,-4.9359,-4.9359,-4.8925,-4.8327,-4.8327,-4.7938,-4.7369,-4.7369,-4.7339,-4.7309,0.0,0.0,0.0,0.0,0.0,0.0,0.0,0.0,0.0,0.0,0.0,0.0,0.0,0.0,0.0,0.0,0.0,0.0,-2.7412,-2.7638,-2.7638,-2.7452,-2.7962,-2.8203,-2.8172,-2.9045,-2.955,-2.9688,-3.0032,-3.0216,-3.0216,-3.0216,-3.0216,-3.0216,-3.0216,-3.0306,-3.0487,-3.0487,-3.0623,-3.0916,-3.1139,-3.1273,-3.1339,-3.1629,-3.1717,-3.1717,-3.1717,-3.2047,-3.2495,-3.2364,-3.315,-3.4443,-3.5172,-3.5827,-3.631,-3.631,-3.6358,-3.6405,-3.6405,-3.6405,-3.6405,-3.6405,-3.6405,-3.6452,-3.6593,-3.6828,-3.7108,-3.7453,-3.7939,-3.844,-3.8765,-3.9458,-3.994,-4.0027,-4.0659,-4.1114,-4.1114,-4.2122,-4.3097,-4.382,-4.4979,-4.5929,-4.6535,-4.6931,0.0,0.0,-4.7627,-4.8073,-4.8267,-4.9224,-4.9837,-5.0196,-5.0674,-5.105,-5.1229,-5.1229,-5.1229,-5.1229,-5.1229,-5.1229,-5.1229,-5.1229,-5.1139,-5.0913,-5.0913,-5.0601,-5.0002,-5.0002,-4.9613,-4.906,-4.906,-4.8626,-4.8027,-4.8027,-4.7728,-4.7309,0.0,0.0,0.0,0.0,0.0,0.0,0.0,0.0,0.0,0.0,0.0,0.0,0.0,0.0,0.0,0.0,0.0,0.0,0.0,-2.7841,-2.7841,-2.7696,-2.7959,-2.8174,-2.8259,-2.8816,-2.9349,-2.9813,-3.0092,-3.0324,-3.0556,-3.0556,-3.0556,-3.0556,-3.0556,-3.0646,-3.0781,-3.0781,-3.0916,0.0,0.0,-3.1362,-3.1496,-3.1761,-3.1849,-3.1849,-3.1981,-3.2556,-3.3374,-3.3598,-3.4247,-3.5142,-3.5924,-3.6288,-3.6405,-3.6405,-3.6405,-3.6405,-3.6405,-3.6405,-3.6405,-3.6405,-3.6452,-3.6593,-3.6803,-3.7315,-3.7821,-3.8206,-3.8908,-3.9574,-3.994,-4.0589,-4.1057,-4.1212,-4.166,-4.1951,-4.1951,-4.3069,-4.4053,-4.4562,-4.5789,-4.6718,-4.7032,-4.7222,-4.7429,0.0,-4.8087,-4.8416,-4.8686,-4.9673,-5.0315,-5.0614,-5.102,-5.1229,-5.1229,-5.1229,-5.1229,-5.1229,-5.1229,-5.1229,-5.1229,-5.1229,-5.1229,-5.1229,0.0,-5.102,-5.0614,-5.0614,-5.0272,-4.9673,-4.9673,-4.9284,-4.8686,-4.8386,-4.8057,-4.7698,0.0,0.0,0.0,0.0,0.0,0.0,0.0,0.0,0.0,0.0,-2.6408,-2.6685,0.0,0.0,0.0,0.0,0.0,0.0,0.0,0.0,-2.7962,-2.7921,-2.7921,-2.8133,-2.8516,-2.8586,-2.9103,-3.0091,-3.0185,-3.0467,-3.0984,-3.0984,-3.0984,-3.0984,-3.0984,-3.1029,-3.1029,-3.1029,-3.1139,-3.1339,-3.1339,-3.1496,-3.1761,0.0,-3.2025,-3.2094,-3.2504,-3.3256,-3.4188,-3.5059,-3.5351,-3.545,-3.616,-3.6405,-3.6405,-3.6405,-3.6405,-3.6405,-3.6405,-3.6405,-3.6405,-3.6405,-3.6593,-3.6803,-3.7155,-3.7933,-3.8747,-3.9087,-4.0012,-4.083,-4.1128,-4.1673,-4.217,-4.2392,-4.2607,-4.2729,-4.2729,-4.4015,-4.5013,-4.5013,-4.6373,-4.7309,-4.7309,-4.7369,-4.7668,-4.8237,-4.8446,-4.8805,-4.9419,-5.0002,-5.0584,-5.1199,-5.1229,-5.1229,-5.1229,-5.1229,-5.1229,-5.1229,-5.1229,-5.1229,-5.1229,-5.1229,-5.1229,-5.1229,0.0,0.0,-5.1229,-5.1229,-5.0853,-5.0315,-5.0315,-4.9972,-4.9359,-4.8745,-4.8446,-4.8207,0.0,0.0,0.0,0.0,0.0,0.0,0.0,0.0,0.0,0.0,-2.7613,-2.7683,0.0,0.0,0.0,0.0,0.0,0.0,0.0,0.0,0.0,-2.8139,-2.8139,-2.8106,-2.8022,-2.8422,-2.8915,-2.9526,-2.9997,-3.0467,-3.0984,-3.0984,-3.0984,-3.0984,-3.0984,-3.1095,-3.1273,-3.1273,-3.1407,-3.1629,-3.1629,-3.1761,-3.1937,-3.1981,-3.2138,0.0,-3.3632,-3.4169,-3.4537,-3.5787,-3.6043,-3.5926,-3.6285,-3.6405,-3.6405,-3.6405,-3.6405,-3.6405,-3.6405,-3.6405,-3.6405,-3.6405,-3.6734,-3.7155,-3.7592,-3.8567,-3.9618,-4.0257,-4.0986,-4.166,-4.2075,-4.2404,-4.2607,-4.2648,-4.2809,-4.2941,-4.2941,-4.4139,-4.5054,-4.5221,-4.6429,-4.7309,-4.7309,-4.7788,0.0,0.0,0.0,-4.9897,-5.0016,-5.069,-5.1109,-5.1229,-5.1229,-5.1229,-5.1229,-5.1229,-5.1229,-5.1229,-5.1229,-5.1229,-5.1229,-5.1229,-5.1229,-5.1229,-5.1229,0.0,-5.1229,-5.1229,-5.1139,-5.105,-5.105,-5.0614,-5.0016,-4.9897,-4.9224,-4.8267,0.0,0.0,0.0,0.0,0.0,0.0,-2.764,-2.7893,-2.8082,-2.8203,-2.8203,-2.8122,-2.7921,-2.8002,-2.8082,0.0,0.0,0.0,0.0,0.0,0.0,-2.8339,-2.8339,-2.8299,-2.8203,-2.8441,-2.8821,-2.9344,0.0,-3.0414,-3.0958,-3.1243,-3.1362,-3.1362,-3.1362,-3.1407,-3.1516,-3.1516,-3.1584,-3.1717,-3.1805,-3.1893,-3.2025,-3.2288,-3.2679,0.0,-3.4225,-3.4744,-3.5094,-3.6081,-3.631,-3.6241,-3.6358,-3.6405,-3.6405,-3.6405,-3.6452,-3.6546,-3.6546,-3.664,-3.6781,-3.6781,-3.7248,-3.7802,-3.8277,-3.937,-4.0531,-4.1114,-4.184,-4.2456,-4.2688,-4.289,-4.301,-4.301,-4.309,-4.3289,-4.3617,-4.4512,-4.5299,-4.5741,-4.6711,-4.7309,-4.7309,-4.7908,-4.8416,0.0,0.0,-5.0196,-5.0196,-5.0823,-5.1229,-5.1229,-5.1229,-5.1229,-5.1229,-5.1229,-5.1229,-5.1229,-5.1229,-5.1229,-5.1229,-5.1229,-5.1229,-5.1229,-5.1229,0.0,-5.1229,-5.1229,-5.1229,-5.1229,-5.1229,-5.102,-5.0674,-5.0315,-4.9777,-4.9194,0.0,0.0,0.0,0.0,0.0,0.0,-2.8219,-2.8259,-2.8299,-2.8459,-2.8522,-2.8403,-2.8042,-2.8179,-2.8259,0.0,0.0,0.0,0.0,0.0,0.0,0.0,-2.8522,-2.8522,-2.8522,0.0,0.0,-2.9292,-2.9821,0.0,0.0,0.0,0.0,0.0,-3.1717,-3.1717,-3.1761,-3.1761,-3.1761,0.0,0.0,-3.2113,-3.2201,0.0,0.0,0.0,0.0,-3.5031,-3.5583,-3.6182,-3.6452,-3.6452,-3.6546,-3.6499,-3.6499,-3.6546,-3.6687,-3.6781,-3.6781,-3.6968,-3.7201,-3.7201,-3.7802,-3.8549,-3.8953,-4.0158,-4.1339,-4.1785,-4.2526,-4.3061,-4.3061,-4.321,-4.329,-4.329,-4.329,-4.3529,-4.4227,-4.4885,-4.5544,-4.619,-4.689,-4.7309,-4.7309,-4.8027,0.0,0.0,0.0,0.0,-5.0405,-5.0883,-5.1229,-5.1229,-5.1229,-5.1229,-5.1229,-5.1229,-5.1229,-5.1229,-5.1229,-5.1229,-5.1229,-5.1229,-5.1229,-5.1229,-5.1229,0.0,0.0,-5.1229,-5.1229,-5.1229,-5.1229,-5.1229,-5.1169,-5.0584,-5.0315,-5.0046,0.0,0.0,0.0,0.0,0.0,0.0,-2.8419,-2.8459,-2.8459,-2.8522,-2.8522,-2.8483,-2.8443,-2.8459,-2.8459,0.0,0.0,0.0,0.0,0.0,0.0,0.0,0.0,0.0,0.0,0.0,0.0,-2.9292,-2.9821,0.0,0.0,0.0,0.0,0.0,0.0,-3.1805,-3.1981,-3.1981,0.0,0.0,0.0,0.0,0.0,0.0,0.0,0.0,0.0,-3.5031,-3.5583,-3.6182,-3.6546,-3.6709,-3.6968,-3.6875,-3.6709,-3.6968,-3.7062,-3.7062,-3.7062,-3.7248,-3.7459,-3.7459,-3.8349,-3.9247,-3.9486,-4.076,-4.2005,-4.231,-4.2809,-4.325,-4.325,-4.329,-4.329,-4.329,-4.329,-4.3529,-4.4227,-4.4885,-4.5544,-4.619,-4.689,-4.7309,-4.7309,-4.8446,0.0,0.0,0.0,0.0,-5.1139,-5.1199,-5.1229,-5.1229,-5.1229,-5.1229,-5.1229,-5.1229,-5.1229,-5.1229,-5.1229,-5.1229,-5.1229,-5.1229,-5.1229,-5.1229,-5.1229,0.0,0.0,-5.1229,-5.1229,-5.1229,-5.1229,-5.1229,-5.1199,-5.1139,-5.0704,-5.0166,0.0,0.0,0.0,0.0,0.0,0.0,-2.8483,-2.8522,-2.8522,-2.8522,-2.8522,-2.8522,-2.8522,-2.8522,-2.8522,-2.8522,-2.8522,0.0,0.0,0.0,0.0,0.0,0.0,0.0,0.0,0.0,-2.8763,-2.9292,-2.9821,0.0,0.0,0.0,0.0,0.0,0.0,-3.2157,-3.2269,-3.2269,0.0,0.0,0.0,0.0,0.0,0.0,0.0,0.0,0.0,0.0,-3.6243,-3.6518,-3.6828,-3.7248,-3.7664,-3.7802,-3.7802,-3.7592,-3.7572,-3.7572,-3.7572,-3.7756,-3.7939,-3.8103,-3.8935,-3.9865,-4.0358,-4.1381,-4.2322,-4.2688,-4.305,-4.329,-4.329,-4.329,-4.329,-4.329,-4.329,-4.3678,-4.4766,-4.5125,-4.5693,-4.677,-4.716,-4.7309,0.0,0.0,0.0,0.0,0.0,0.0,-5.1229,-5.1229,-5.1229,-5.1229,-5.1229,-5.1229,-5.1229,-5.1229,-5.1229,-5.1229,-5.1229,-5.1229,-5.1229,-5.1229,-5.1229,-5.1229,-5.1229,0.0,0.0,-5.1229,-5.1229,-5.1229,-5.1229,-5.1229,-5.1229,-5.1229,-5.105,-5.0734,0.0,0.0,0.0,0.0,0.0,-2.8522,-2.8522,-2.8522,-2.8522,-2.8522,-2.8522,-2.8522,-2.8522,-2.8522,-2.8498,-2.8578,-2.8578,0.0,0.0,0.0,0.0,0.0,0.0,0.0,0.0,-2.8657,-2.8963,-2.952,-3.0029,-3.0646,0.0,0.0,0.0,0.0,0.0,0.0,0.0,0.0,0.0,0.0,0.0,0.0,0.0,0.0,0.0,0.0,0.0,0.0,0.0,0.0,0.0,-3.7802,-3.8349,-3.8756,-3.889,-3.8413,-3.8232,-3.8213,-3.8213,-3.8349,-3.8575,-3.8845,-3.9645,-4.0559,-4.1085,-4.1951,-4.2648,-4.2941,-4.317,-4.329,-4.329,-4.329,-4.329,-4.329,-4.3469,-4.3977,-4.5125,-4.5454,-4.6022,-4.716,0.0,-4.7309,0.0,-4.8506,0.0,0.0,0.0,0.0,0.0,-5.1229,-5.1229,-5.1229,-5.1229,-5.1229,-5.1229,-5.1229,-5.1229,-5.1229,-5.1229,-5.1229,-5.1229,-5.1229,-5.1229,-5.1229,0.0,0.0,0.0,-5.1229,-5.1229,-5.1229,-5.1229,-5.1229,-5.1229,-5.1229,-5.1229,-5.1139,0.0,0.0,0.0,0.0,0.0,-2.8522,-2.8522,-2.8522,-2.8522,-2.8522,-2.8522,-2.8522,-2.8522,-2.8522,-2.8578,-2.8791,-2.8791,0.0,0.0,0.0,0.0,-2.9091,-2.9091,-2.9091,-2.9091,-2.9091,-2.9401,-2.9966,-3.0507,-3.1073,-3.1613,-3.213,-3.2506,-3.268,0.0,0.0,0.0,0.0,-3.2723,0.0,0.0,0.0,-3.3187,0.0,0.0,0.0,0.0,0.0,0.0,0.0,0.0,0.0,0.0,-3.9601,-3.9865,-3.9424,-3.9114,-3.8908,-3.8908,-3.9087,-3.9336,-3.953,-4.0488,-4.1438,-4.166,-4.2374,-4.2981,-4.2981,-4.317,-4.329,-4.329,-4.329,-4.329,-4.329,-4.3858,-4.4526,-4.5185,-4.5873,-4.6561,0.0,0.0,-4.7309,-4.7309,0.0,0.0,0.0,0.0,0.0,0.0,-5.1229,-5.1229,-5.1229,-5.1229,-5.1229,-5.1229,-5.1229,-5.1229,-5.1229,-5.1229,-5.1229,-5.1229,-5.1229,-5.1229,0.0,0.0,0.0,0.0,-5.1229,-5.1229,-5.1229,-5.1229,-5.1229,-5.1229,-5.1229,-5.1229,-5.1229,0.0,0.0,0.0,0.0,0.0,0.0,-2.8522,-2.8522,-2.8522,-2.8522,-2.8522,-2.8522,-2.8522,-2.8522,-2.8578,-2.8791,-2.8791,0.0,0.0,0.0,-2.9091,-2.9091,-2.9091,-2.9303,-2.9696,-2.9721,-3.0163,-3.1073,-3.1245,-3.1699,-3.2346,-3.2519,-3.2723,-3.2982,-3.2896,-3.2896,0.0,-3.2982,-3.2982,0.0,0.0,-3.3111,-3.3187,0.0,0.0,0.0,0.0,0.0,0.0,0.0,0.0,0.0,0.0,0.0,0.0,-4.1128,-4.0546,-3.9853,-3.9853,-3.9924,-4.0055,-4.0272,-4.0986,-4.1702,-4.2075,-4.2607,-4.3021,-4.317,-4.325,-4.329,-4.329,-4.329,-4.3439,-4.3888,-4.4167,-4.4706,-4.5843,-4.6202,-4.6561,-4.7219,-4.7698,-4.8147,0.0,0.0,0.0,0.0,0.0,0.0,0.0,-5.1229,-5.1229,-5.1229,-5.1229,-5.1229,-5.1229,-5.1229,-5.1229,-5.1229,-5.1229,-5.1229,-5.1229,-5.1229,0.0,0.0,0.0,0.0,0.0,-5.1229,-5.1229,-5.1229,-5.1229,-5.1229,-5.1229,-5.1229,-5.1229,-5.1229,0.0,0.0,0.0,0.0,0.0,0.0,-2.8522,-2.8522,-2.8522,-2.8522,-2.8522,-2.8522,-2.8522,-2.8522,-2.8618,-2.8895,-2.891,0.0,0.0,-2.9287,-2.9365,-2.9365,-2.9564,-2.9861,-3.0208,-3.0406,-3.0927,-3.1819,-3.1819,-3.2177,-3.2853,-3.2853,-3.2939,-3.3111,-3.3111,-3.3111,0.0,-3.3111,-3.3111,-3.3111,-3.3111,-3.3194,-3.3445,0.0,0.0,0.0,0.0,0.0,0.0,0.0,0.0,0.0,0.0,0.0,0.0,0.0,-4.1757,-4.1141,-4.0916,-4.083,-4.0873,-4.1128,-4.166,-4.2158,-4.2526,-4.289,-4.317,-4.325,-4.329,-4.3379,-4.3618,-4.3678,-4.3888,-4.4586,-4.4915,-4.5364,-4.616,-4.6531,0.0,-4.7249,0.0,0.0,0.0,0.0,0.0,0.0,0.0,0.0,0.0,-5.1229,-5.1229,-5.1229,-5.1229,-5.1229,-5.1229,-5.1229,-5.1229,-5.1229,-5.1229,-5.1229,-5.1229,-5.1229,0.0,0.0,0.0,0.0,0.0,-5.1229,-5.1229,-5.1229,-5.1229,-5.1229,-5.1229,-5.1229,-5.1229,-5.1229,0.0,0.0,0.0,0.0,0.0,0.0,0.0,-2.8522,-2.8522,-2.8522,-2.8522,-2.8522,-2.8522,-2.8522,-2.8657,-2.9052,-2.9116,0.0,-2.9468,-2.9713,-2.9854,-2.9854,-3.0382,-3.0683,-3.0733,-3.121,-3.1712,-3.2265,-3.2265,-3.2541,-3.3111,-3.3111,-3.3111,-3.3111,-3.3111,-3.3111,-3.3111,-3.3111,-3.3111,-3.3111,-3.3162,-3.3445,0.0,0.0,0.0,0.0,0.0,0.0,0.0,0.0,0.0,0.0,0.0,0.0,0.0,0.0,0.0,0.0,0.0,-4.1785,-4.1827,-4.2005,-4.2374,-4.2769,-4.2941,-4.317,0.0,-4.329,-4.329,-4.3499,-4.4197,-4.4317,-4.4556,-4.5244,-4.5903,-4.6352,-4.6339,-4.692,0.0,0.0,-4.7938,0.0,0.0,0.0,0.0,0.0,0.0,0.0,0.0,-5.1229,-5.1229,-5.1229,-5.1229,-5.1229,-5.1229,-5.1229,-5.1229,-5.1229,-5.1229,-5.1229,-5.1229,-5.1229,0.0,0.0,0.0,0.0,0.0,-5.1229,-5.1229,-5.1229,-5.1229,-5.1229,-5.1229,-5.1229,-5.1229,-5.1229,0.0,0.0,0.0,0.0,0.0,0.0,0.0,0.0,0.0,0.0,-2.8522,-2.8522,-2.8522,-2.8522,-2.8657,0.0,0.0,-2.993,-3.0288,-3.0367,-3.0407,-3.0407,-3.0934,-3.1411,-3.1838,-3.1964,-3.229,-3.2867,-3.2867,-3.2943,-3.3111,-3.3111,-3.3111,-3.3111,-3.3111,-3.3111,-3.3111,-3.3111,-3.3111,-3.3162,-3.3545,-3.3796,0.0,0.0,0.0,0.0,-3.6625,-3.7201,0.0,0.0,0.0,0.0,0.0,0.0,0.0,0.0,-4.317,-4.313,-4.297,0.0,-4.2485,-4.2526,-4.2699,-4.2941,0.0,-4.317,-4.329,-4.329,-4.329,-4.3499,-4.4197,-4.4317,-4.4706,-4.5903,-4.619,-4.6501,-4.701,-4.7219,0.0,-4.7309,-4.8327,0.0,0.0,0.0,0.0,0.0,0.0,0.0,0.0,-5.1229,-5.1229,-5.1229,-5.1229,-5.1229,-5.1229,-5.1229,-5.1229,-5.1229,-5.1229,-5.1229,-5.1229,-5.1229,0.0,0.0,0.0,0.0,-5.1229,-5.1229,-5.1229,-5.1229,-5.1229,-5.1229,-5.1229,-5.1229,-5.1229,-5.1229,0.0,0.0,0.0,0.0,0.0,0.0,0.0,0.0,0.0,0.0,-2.8522,-2.8595,-2.8859,-2.894,-2.9237,0.0,0.0,-3.0661,-3.0944,-3.121,-3.1235,-3.0984,-3.1486,-3.1913,-3.2215,-3.2466,-3.2767,-3.3111,-3.3111,-3.3111,-3.3111,-3.3111,-3.3111,-3.3111,-3.3111,-3.3111,-3.3111,-3.3111,-3.3219,-3.347,-3.3771,0.0,0.0,0.0,0.0,0.0,-3.682,-3.7341,0.0,-3.9042,-4.0012,-4.083,0.0,0.0,0.0,0.0,-4.329,-4.329,-4.329,-4.313,-4.297,-4.297,-4.305,-4.317,-4.317,-4.321,-4.329,-4.329,-4.3529,-4.3947,-4.4646,-4.5035,-4.5574,-4.6621,-4.677,-4.689,0.0,0.0,-4.7309,-4.7309,0.0,0.0,0.0,0.0,0.0,0.0,0.0,0.0,0.0,-5.1229,-5.1229,-5.1229,-5.1229,-5.1229,-5.1229,-5.1229,-5.1229,-5.1229,-5.1229,-5.1229,-5.1229,-5.1229,-5.1229,0.0,0.0,0.0,-5.1229,-5.1229,-5.1229,-5.1229,-5.1229,-5.1229,-5.1229,-5.1229,-5.1229,-5.1229,0.0,0.0,0.0,0.0,0.0,0.0,0.0,0.0,0.0,0.0,0.0,0.0,0.0,0.0,0.0,0.0,-3.1059,-3.1331,-3.1512,-3.2039,-3.2139,-3.1662,-3.2089,-3.234,-3.234,-3.2817,-3.3111,-3.3111,-3.3111,-3.3111,-3.3111,-3.3111,-3.3111,-3.3111,-3.3111,-3.3162,-3.3194,-3.3194,-3.352,-3.4022,-3.4123,0.0,0.0,0.0,0.0,0.0,0.0,0.0,0.0,-3.9024,-3.9952,-4.0901,-4.1798,0.0,0.0,0.0,0.0,0.0,-4.329,-4.329,-4.329,-4.329,-4.329,-4.329,-4.329,-4.329,-4.329,-4.329,-4.3828,-4.4496,-4.5185,-4.5873,-4.6488,-4.7189,-4.7309,-4.7309,-4.7309,-4.7309,-4.7309,-4.7309,0.0,0.0,0.0,0.0,0.0,0.0,0.0,0.0,0.0,-5.1229,-5.1229,-5.1229,-5.1229,-5.1229,-5.1229,-5.1229,-5.1229,-5.1229,-5.1229,-5.1229,-5.1229,-5.1229,-5.1229,0.0,0.0,0.0,-5.1229,-5.1229,-5.1229,-5.1229,-5.1229,-5.1229,-5.1229,-5.1229,-5.1229,-5.1229,0.0,0.0,0.0,0.0,0.0,0.0,0.0,0.0,0.0,0.0,0.0,0.0,0.0,0.0,0.0,0.0,-3.1405,-3.1863,-3.2047,-3.2616,-3.296,-3.2817,-3.2893,-3.2943,-3.2943,-3.3043,-3.3111,-3.3111,-3.3111,-3.3111,-3.3111,-3.3111,-3.3111,-3.3111,-3.3111,-3.3345,-3.3771,-3.3771,-3.4098,-3.465,-3.5056,0.0,0.0,0.0,0.0,0.0,0.0,0.0,0.0,-3.9149,-4.0185,-4.1128,-4.2034,0.0,0.0,0.0,0.0,0.0,-4.329,-4.329,-4.329,-4.329,-4.329,-4.329,-4.329,-4.329,-4.329,-4.329,-4.3828,-4.4496,-4.5185,-4.5873,-4.6488,-4.7189,-4.7309,-4.7309,0.0,0.0,-4.7309,0.0,0.0,0.0,0.0,0.0,0.0,0.0,0.0,0.0,0.0,-5.1229,-5.1229,-5.1229,-5.1229,-5.1229,-5.1229,-5.1229,-5.1229,-5.1229,-5.1229,-5.1229,-5.1229,-5.1229,-5.1229,0.0,0.0,-5.1229,-5.1229,-5.1229,-5.1229,-5.1229,-5.1229,-5.1229,-5.1229,-5.1229,-5.1229,-5.1229,0.0,0.0,0.0,0.0,0.0,0.0,0.0,0.0,0.0,0.0,0.0,0.0,0.0,0.0,0.0,0.0,-3.2201,-3.2607,-3.2692,-3.2943,-3.3111,-3.3111,-3.3111,-3.3111,-3.3111,-3.3111,-3.3111,-3.3111,-3.3111,-3.3111,-3.3111,-3.3111,-3.3111,-3.3093,-3.3395,-3.3671,-3.3922,-3.4223,-3.463,-3.5132,0.0,0.0,0.0,0.0,0.0,0.0,0.0,0.0,0.0,0.0,-3.9853,-4.0788,-4.1577,0.0,0.0,0.0,0.0,0.0,-4.329,-4.329,-4.329,-4.329,-4.329,-4.329,-4.329,-4.329,-4.3379,-4.3738,-4.4377,-4.5065,-4.5723,-4.6411,-4.695,-4.7249,-4.7309,-4.7309,-4.7309,-4.7309,0.0,0.0,0.0,0.0,0.0,0.0,0.0,0.0,0.0,0.0,0.0,0.0,-5.1229,-5.1229,-5.1229,-5.1229,-5.1229,-5.1229,-5.1229,-5.1229,-5.1229,-5.1229,-5.1229,-5.1229,-5.1229,-5.1229,0.0,-5.1229,-5.1229,-5.1229,-5.1229,-5.1229,-5.1229,-5.1229,-5.1229,-5.1229,-5.1229,-5.1229,0.0,0.0,0.0,0.0,0.0,0.0,0.0,0.0,0.0,0.0,0.0,0.0,0.0,0.0,0.0,0.0,-3.281,-3.3111,-3.3111,-3.3111,-3.3111,-3.3111,-3.3111,-3.3111,-3.3111,-3.3111,-3.3111,-3.3111,-3.3111,-3.3111,-3.3111,-3.3219,-3.3269,-3.3294,-3.3847,-3.4218,-3.4388,-3.4816,-3.5319,-3.5869,0.0,0.0,0.0,0.0,0.0,0.0,0.0,0.0,0.0,0.0,0.0,0.0,0.0,0.0,0.0,-4.297,-4.317,-4.329,-4.329,-4.329,-4.329,-4.329,-4.329,-4.329,-4.329,-4.3409,-4.3678,-4.4197,-4.4975,-4.5693,-4.6232,-4.686,-4.7309,-4.7309,-4.7309,-4.7309,-4.7309,0.0,0.0,0.0,0.0,0.0,0.0,0.0,0.0,0.0,0.0,0.0,0.0,0.0,-5.1229,-5.1229,-5.1229,-5.1229,-5.1229,-5.1229,-5.1229,-5.1229,-5.1229,-5.1229,-5.1229,-5.1229,-5.1229,-5.1229,-5.1229,-5.1229,-5.1229,-5.1229,-5.1229,-5.1229,-5.1229,-5.1229,-5.1229,-5.1229,-5.1229,-5.1229,0.0,0.0,0.0,0.0,0.0,0.0,0.0,0.0,0.0,0.0,0.0,0.0,0.0,0.0,-3.2351,-3.24,-3.281,-3.3111,-3.3111,-3.3111,-3.3111,-3.3111,-3.3111,-3.3111,-3.3111,-3.3111,-3.3111,-3.3111,-3.3111,-3.3111,-3.3136,-3.3596,-3.3847,-3.3872,-3.4424,-3.5088,-3.577,-3.5821,-3.6243,-3.6964,-3.6705,0.0,0.0,0.0,0.0,0.0,0.0,0.0,0.0,0.0,0.0,0.0,0.0,0.0,-4.2769,-4.317,-4.329,-4.329,-4.329,-4.329,-4.329,-4.329,-4.329,-4.329,-4.329,-4.3768,-4.4257,-4.4317,-4.5334,-4.6219,-4.6279,-4.686,-4.7309,-4.7309,-4.7309,-4.7309,0.0,0.0,0.0,0.0,0.0,0.0,0.0,0.0,0.0,0.0,0.0,0.0,0.0,0.0,0.0,-5.1229,-5.1229,-5.1229,-5.1229,-5.1229,-5.1229,-5.1229,-5.1229,-5.1229,-5.1229,-5.1229,-5.1229,-5.1229,-5.1229,-5.1229,-5.1229,-5.1229,-5.1229,-5.1229,-5.1229,-5.1229,-5.1229,-5.1229,-5.1229,-5.1229,0.0,0.0,0.0,0.0,0.0,0.0,0.0,0.0,0.0,0.0,0.0,-3.1761,-3.1893,0.0,-3.2444,-3.2593,-3.2896,-3.3111,-3.3111,-3.3111,-3.3111,-3.3111,-3.3111,-3.3111,-3.3111,-3.3111,-3.3111,-3.3111,-3.3111,-3.3244,-3.3596,-3.3796,-3.4073,-3.4424,-3.5113,-3.5603,-3.5943,-3.6437,-3.6811,-3.7108,-3.7015,-3.7015,0.0,0.0,0.0,0.0,0.0,0.0,0.0,0.0,-3.9264,-4.0142,-4.0859,-4.1632,-4.2333,-4.2809,-4.309,-4.325,-4.317,-4.301,-4.3049,-4.3464,-4.343,-4.3401,-4.3807,-4.4137,-4.4556,-4.5394,-4.592,-4.6441,-4.686,-4.713,-4.7309,-4.7309,-4.7309,-4.7309,0.0,0.0,0.0,0.0,0.0,0.0,0.0,0.0,0.0,0.0,0.0,0.0,0.0,0.0,0.0,-5.1229,-5.1229,-5.1229,-5.1229,-5.1229,-5.1229,-5.1229,-5.1229,-5.1229,-5.1229,-5.1229,-5.1229,-5.1229,-5.1229,-5.1229,-5.1229,-5.1229,-5.1229,-5.1229,-5.1229,-5.1229,-5.1229,-5.1229,-5.1229,-5.1229,0.0,0.0,0.0,0.0,0.0,0.0,0.0,0.0,-3.1717,0.0,0.0,0.0,0.0,-3.2288,-3.255,0.0,-3.2939,-3.3111,-3.3111,-3.3111,-3.3111,-3.3111,-3.3111,-3.3111,-3.3111,-3.3244,-3.3244,-3.3111,-3.3244,-3.3621,-3.4173,-3.4349,-3.467,-3.5138,-3.5805,-3.6243,-3.6453,-3.7001,-3.7273,-3.7366,-3.7248,-3.7273,0.0,0.0,0.0,0.0,0.0,0.0,0.0,0.0,-3.9114,-3.9837,-4.0602,-4.1381,-4.2228,-4.2831,-4.3256,-4.3488,-4.3382,-4.3237,-4.3219,-4.3659,-4.3621,-4.365,-4.443,-4.4739,-4.5132,-4.61,-4.6501,-4.677,-4.7219,-4.7309,-4.7309,0.0,-4.7309,0.0,0.0,0.0,0.0,0.0,0.0,0.0,0.0,0.0,0.0,0.0,0.0,0.0,0.0,0.0,0.0,0.0,-5.1229,-5.1229,-5.1229,-5.1229,-5.1229,-5.1229,-5.1229,-5.1229,-5.1229,-5.1229,-5.1229,-5.1229,-5.1229,-5.1229,-5.1229,-5.1229,-5.1229,-5.1229,-5.1229,-5.1229,-5.1229,-5.1229,-5.1229,-5.1199,0.0,0.0,0.0,0.0,0.0,0.0,0.0,0.0,-3.1717,-3.1717,-3.1893,0.0,0.0,0.0,0.0,0.0,-3.2939,-3.3111,-3.3111,-3.3111,-3.3111,-3.3111,-3.3093,-3.3136,-3.3136,-3.3621,-3.3646,-3.3136,-3.3646,-3.4198,-3.4751,-3.5232,-3.5621,-3.5923,-3.6481,-3.7015,-3.7505,-3.7505,-3.7644,-3.7854,-3.7598,-3.7644,-3.7854,0.0,0.0,0.0,0.0,0.0,0.0,0.0,-3.9203,-4.0126,-4.0788,-4.166,-4.2579,-4.3431,-4.3815,-4.4015,-4.4174,-4.405,-4.3907,-4.3907,-4.3907,-4.4124,-4.4982,-4.5593,-4.6053,-4.6237,-4.6817,-4.7309,-4.7309,-4.7309,-4.7309,-4.7309,0.0,0.0,0.0,0.0,0.0,0.0,0.0,0.0,0.0,0.0,0.0,0.0,0.0,0.0,0.0,0.0,0.0,0.0,-5.1229,-5.1229,-5.1229,-5.1229,-5.1229,-5.1229,-5.1229,-5.1229,-5.1229,-5.1229,-5.1229,-5.1229,-5.1229,-5.1229,-5.1229,-5.1229,-5.1229,-5.1229,-5.1229,-5.1229,-5.1229,-5.1229,-5.1229,-5.1109,0.0,0.0,0.0,0.0,0.0,0.0,0.0,0.0,-3.1761,-3.1893,-3.1937,0.0,0.0,0.0,0.0,0.0,0.0,-3.3111,-3.3111,-3.3111,-3.3111,-3.3111,-3.3445,-3.3646,-3.3646,-3.4198,-3.4399,-3.4248,-3.4399,-3.4731,-3.5257,-3.5638,-3.6008,-3.6481,-3.7031,-3.7366,-3.7505,-3.7716,-3.7854,-3.79,-3.7808,-3.7854,-3.79,0.0,0.0,0.0,0.0,0.0,0.0,0.0,0.0,0.0,-4.094,-4.2036,-4.3041,-4.3502,-4.3774,-4.386,-4.3589,-4.318,-4.3028,-4.3409,-4.3596,-4.3856,-4.4891,-4.5449,-4.587,-4.6401,-4.6681,-4.6829,-4.6829,-4.6829,0.0,-4.6975,0.0,0.0,0.0,0.0,0.0,0.0,0.0,0.0,0.0,0.0,0.0,0.0,0.0,0.0,0.0,0.0,0.0,0.0,-5.1229,-5.1229,-5.1229,-5.1229,-5.1229,-5.1229,-5.1229,-5.1229,-5.1229,-5.1229,-5.1229,-5.1229,-5.1229,-5.1229,-5.1229,-5.1229,-5.1229,-5.1229,-5.1229,-5.1229,-5.1229,-5.1229,-5.1229,-5.1109,0.0,0.0,0.0,0.0,0.0,0.0,-3.1805,-3.1805,-3.1893,-3.2113,-3.2245,-3.2376,0.0,0.0,0.0,-3.3068,-3.3269,-3.3395,-3.3395,-3.3621,-3.3721,-3.3721,-3.4048,-3.4324,-3.455,-3.4831,-3.5152,-3.5378,-3.5152,-3.5282,-3.5855,-3.6088,-3.6451,-3.6875,-3.732,-3.7551,-3.7644,-3.7854,-3.79,-3.79,-3.79,-3.79,-3.79,0.0,0.0,0.0,0.0,0.0,0.0,0.0,0.0,0.0,-4.1221,-4.2144,-4.3,-4.3405,-4.364,-4.3741,-4.346,-4.3153,-4.3036,-4.3306,-4.3464,-4.3733,-4.4638,-4.5187,-4.5712,-4.6181,-4.6225,-4.618,-4.6269,-4.6358,0.0,0.0,0.0,0.0,0.0,0.0,0.0,0.0,0.0,0.0,0.0,0.0,0.0,0.0,0.0,0.0,0.0,0.0,0.0,0.0,-5.1229,-5.1229,-5.1229,-5.1229,-5.1229,-5.1229,-5.1229,-5.1229,-5.1229,-5.1229,-5.1229,-5.1229,-5.1229,-5.1229,-5.1229,-5.1229,-5.1229,-5.1229,-5.1229,-5.1229,-5.1229,-5.1229,-5.1003,-5.0674,0.0,0.0,-3.1717,-3.1717,0.0,0.0,-3.1981,-3.2025,-3.2113,-3.24,-3.2593,-3.2748,0.0,0.0,0.0,-3.3219,-3.3696,-3.3972,-3.3972,-3.4449,-3.468,-3.468,-3.4731,-3.5006,-3.5558,-3.5583,-3.5855,-3.6405,-3.5855,-3.5881,-3.6405,-3.664,-3.6875,-3.7108,-3.7413,-3.7644,-3.79,-3.79,-3.79,-3.79,-3.79,-3.79,-3.7926,-3.7952,0.0,0.0,0.0,0.0,0.0,0.0,0.0,0.0,-4.1553,-4.2157,-4.266,-4.3266,-4.3543,-4.3656,-4.3543,-4.3491,-4.3423,-4.3259,-4.3328,-4.3614,-4.4162,-4.4769,-4.5321,-4.5611,-4.5549,-4.5458,-4.5656,-4.5882,-4.6135,0.0,0.0,0.0,0.0,0.0,0.0,0.0,0.0,0.0,0.0,0.0,0.0,0.0,0.0,0.0,0.0,0.0,0.0,-5.1229,-5.1229,-5.1229,-5.1229,-5.1229,-5.1229,0.0,-5.1229,-5.1229,-5.1229,-5.1229,-5.1229,-5.1229,-5.1229,-5.1229,-5.1229,-5.1229,-5.1229,-5.1229,-5.1229,-5.1229,-5.1199,-5.1139,-5.0704,-5.0076,0.0,0.0,-3.1761,-3.1893,0.0,0.0,-3.2269,-3.2313,-3.2376,-3.2593,-3.268,-3.2916,-3.3583,-3.3677,0.0,-3.4324,-3.4474,-3.455,-3.455,-3.465,-3.468,-3.468,-3.5082,-3.5629,-3.6182,-3.6182,-3.6279,-3.6405,-3.6279,-3.6279,-3.6405,-3.6828,-3.7062,-3.7108,-3.7598,-3.7854,-3.79,-3.79,-3.79,-3.79,-3.79,-3.79,-3.7952,-3.837,-3.8527,0.0,0.0,0.0,0.0,0.0,0.0,0.0,-4.1693,-4.2493,-4.3086,-4.346,-4.344,-4.3278,-4.3108,-4.2776,-4.2409,-4.236,-4.2533,-4.2825,-4.3115,-4.3163,-4.3451,-4.449,-4.4676,-4.463,-4.4676,-4.4769,0.0,0.0,0.0,0.0,0.0,0.0,0.0,0.0,0.0,0.0,0.0,0.0,0.0,0.0,0.0,0.0,0.0,0.0,0.0,-5.1199,-5.1229,-5.1229,-5.1229,-5.1229,-5.1229,0.0,-5.1229,-5.1229,-5.1229,-5.1229,-5.1229,-5.1229,-5.1229,-5.1229,-5.1229,-5.1229,-5.1229,-5.1229,-5.1229,-5.1229,-5.1169,-5.0584,-5.0315,-5.0016,0.0,0.0,0.0,0.0,0.0,0.0,0.0,0.0,-3.3033,-3.3252,-3.3521,-3.384,-3.4274,-3.4299,0.0,0.0,-3.4906,-3.5082,-3.5082,-3.5353,-3.5504,-3.5504,-3.578,-3.6081,-3.6405,-3.6405,-3.6405,-3.6405,-3.6405,-3.6405,-3.6405,-3.6875,-3.7108,-3.7108,-3.7644,-3.79,-3.79,-3.79,-3.79,-3.7926,-3.8187,-3.8292,-3.8344,-3.8919,-3.9128,-3.9181,-3.9494,0.0,0.0,0.0,0.0,0.0,0.0,0.0,-4.2701,-4.2846,-4.2798,-4.2604,-4.2387,-4.2239,-4.2065,-4.2065,-4.219,-4.2338,-4.2484,-4.2387,-4.2484,-4.3136,-4.3403,-4.3546,-4.3832,0.0,0.0,0.0,0.0,0.0,0.0,0.0,0.0,0.0,0.0,0.0,0.0,0.0,0.0,0.0,0.0,0.0,0.0,-4.9791,-5.0299,-5.0564,-5.0862,-5.0964,-5.0852,-5.0852,-5.0852,-5.0852,-5.0964,-5.1058,-5.1229,-5.1229,-5.1229,-5.1229,-5.1229,-5.1229,-5.1229,-5.1229,-5.1229,-5.1229,-5.1229,-5.1229,-5.1139,-5.0435,-4.9986,-4.9643,0.0,0.0,0.0,0.0,0.0,0.0,0.0,0.0,0.0,-3.4003,-3.4449,-3.4751,-3.4806,-3.4831,-3.4901,0.0,0.0,0.0,-3.5633,-3.6107,-3.6405,-3.6405,-3.6405,-3.6405,-3.6405,-3.6405,-3.6405,-3.6405,-3.6405,-3.6405,-3.6405,-3.6828,-3.7062,-3.7108,-3.7598,-3.7854,-3.79,-3.79,-3.7952,-3.8083,-3.8527,-3.8762,-3.8919,-3.952,-3.9756,-3.9756,-3.986,-4.02,-4.0566,-4.0788,0.0,0.0,0.0,0.0,-4.2016,-4.2065,-4.2065,-4.1993,-4.1746,-4.1845,-4.1993,-4.1993,-4.1993,-4.1993,-4.1993,-4.1993,-4.1993,-4.1993,-4.219,-4.256,0.0,0.0,0.0,0.0,0.0,0.0,0.0,0.0,0.0,0.0,0.0,0.0,0.0,0.0,0.0,0.0,0.0,0.0,-4.7837,-4.9058,-4.9819,-4.9825,-5.0236,-5.0419,-5.0327,-5.0357,-5.0357,-5.0327,-5.0585,-5.0822,-5.1088,-5.1135,-5.1182,-5.1229,-5.1229,-5.1229,-5.1229,-5.1229,-5.1229,-5.1229,-5.1229,-5.1139,-5.0913,-5.0255,-4.9673,-4.8985,0.0,0.0,0.0,0.0,0.0,0.0,0.0,0.0,0.0,0.0,-3.4675,-3.4856,-3.5332,-3.5382,-3.5583,-3.6153,-3.6254,-3.6304,-3.6304,0.0,0.0,-3.6405,-3.6405,-3.6405,-3.6405,-3.6405,-3.6405,-3.6405,-3.6405,-3.6405,-3.6405,-3.664,-3.6875,-3.7108,-3.7413,-3.769,-3.79,-3.79,-3.8161,-3.8606,-3.8684,-3.9024,-3.9547,-4.0095,-4.0305,-4.0383,-4.0906,-4.1141,-4.1193,-4.1193,-4.1295,0.0,0.0,0.0,-4.1796,-4.2043,-4.1944,-4.1746,-4.1696,-4.1547,-4.1398,-4.1398,-4.1398,-4.1398,-4.1398,-4.1398,-4.1398,-4.1398,-4.1796,-4.219,0.0,0.0,0.0,0.0,0.0,0.0,0.0,0.0,0.0,0.0,0.0,0.0,0.0,0.0,0.0,0.0,0.0,0.0,-4.7568,-4.797,-4.8638,-4.9486,-4.915,-4.9232,-4.9815,-4.9571,-4.9571,-4.9815,-5.0086,-5.0327,-5.0596,-5.0775,-5.0964,-5.1229,-5.1229,-5.1229,-5.1229,-5.1229,-5.1229,-5.1229,-5.1229,-5.0823,-5.0255,-4.9643,-4.8985,-4.8327,0.0,0.0,0.0,0.0,0.0,0.0,0.0,0.0,0.0,0.0,0.0,-3.573,-3.5981,-3.6006,-3.6107,-3.638,-3.6405,-3.6405,-3.6405,-3.6405,-3.6405,-3.6405,-3.6405,-3.6405,-3.6405,-3.6405,-3.6405,-3.6405,-3.6405,-3.6405,-3.6405,-3.6499,-3.6734,-3.7108,-3.7366,-3.7826,-3.8344,-3.8344,-3.8684,-3.9233,-3.9547,-3.9834,-4.0122,-4.0697,-4.0906,-4.0958,-4.1219,-4.1324,-4.1324,-4.1324,-4.1324,-4.1324,-4.1448,0.0,0.0,0.0,-4.1547,-4.1448,-4.1448,-4.1424,-4.1324,-4.1324,-4.1324,-4.1324,-4.1324,-4.1324,-4.1324,-4.1324,-4.1498,0.0,0.0,0.0,0.0,0.0,0.0,0.0,0.0,0.0,0.0,0.0,0.0,0.0,0.0,0.0,0.0,0.0,0.0,-4.5453,-4.6181,-4.6803,-4.724,-4.7561,-4.7731,-4.7954,-4.8317,-4.8382,-4.8603,-4.9029,-4.9453,-4.9795,-5.0038,-5.0298,-5.068,-5.1182,-5.1058,-5.0964,-5.0964,-5.0964,-5.0964,-5.0964,-5.0964,-5.0577,-4.9951,-4.9129,-4.8521,-4.7956,0.0,0.0,0.0,0.0,0.0,0.0,0.0,0.0,0.0,0.0,0.0,-3.6405,-3.6405,0.0,0.0,0.0,-3.6405,-3.6405,-3.6405,-3.6405,-3.6405,-3.6405,-3.6405,-3.6405,-3.6405,-3.6405,-3.6405,-3.6405,-3.6405,-3.6405,-3.6405,-3.6405,-3.6716,-3.7339,-3.7526,-3.7992,-3.8616,-3.882,-3.9285,-3.986,-4.0252,-4.0514,-4.0697,-4.1141,-4.1324,-4.1324,-4.1324,-4.1324,-4.1324,-4.1324,-4.1324,-4.1324,-4.1324,-4.1324,0.0,0.0,0.0,-4.1324,-4.1324,-4.1324,-4.1324,-4.1324,-4.1324,-4.1324,-4.1324,-4.1324,-4.1324,0.0,0.0,0.0,0.0,0.0,0.0,0.0,0.0,0.0,0.0,0.0,0.0,0.0,0.0,0.0,0.0,0.0,0.0,0.0,0.0,-4.4555,-4.4879,-4.5613,-4.6003,-4.5817,-4.6335,-4.6684,-4.6901,-4.7364,-4.7773,-4.8179,-4.866,-4.9058,-4.9326,-4.962,-5.0057,-5.0555,-5.0632,-5.0632,-5.0632,-5.0632,-5.0632,-5.0632,-5.0632,-5.0159,-4.939,-4.861,-4.7949,-4.7362,0.0,0.0,0.0,0.0,0.0,0.0,0.0,0.0,0.0,0.0,0.0,-3.6405,-3.6405,-3.6405,-3.6405,-3.6405,-3.6405,-3.6405,-3.6405,-3.6405,-3.6405,-3.6405,-3.6405,0.0,-3.6405,-3.6405,-3.6405,-3.6405,-3.6405,-3.6405,-3.6405,-3.6405,-3.6944,-3.7954,-3.7954,-3.8144,-3.848,-3.9242,-3.9886,-4.0383,-4.0409,-4.0749,-4.1272,-4.1298,-4.1324,-4.1324,-4.1324,-4.1324,-4.1324,-4.1324,-4.1324,-4.1324,-4.1324,-4.1324,-4.1324,0.0,0.0,0.0,-4.1324,-4.1324,-4.1324,-4.1324,-4.1324,-4.1324,-4.1324,-4.1324,-4.1324,-4.1324,0.0,0.0,0.0,0.0,0.0,0.0,0.0,0.0,0.0,0.0,0.0,0.0,0.0,0.0,0.0,0.0,0.0,0.0,0.0,-4.3899,-4.4415,-4.4676,-4.4865,-4.4981,-4.5062,-4.5418,-4.6044,-4.6881,-4.7339,-4.7339,-4.7647,-4.7903,-4.8229,-4.8731,-4.8951,-4.8944,-4.9766,-5.0135,-5.0135,-5.0135,-5.0135,-5.0135,-5.0135,-4.9373,-4.826,-4.7951,-4.7153,-4.6209,0.0,0.0,0.0,0.0,0.0,0.0,0.0,0.0,0.0,0.0,0.0,0.0,0.0,-3.6405,-3.6405,-3.6405,-3.6405,-3.6405,-3.6405,-3.6405,-3.6405,-3.6405,-3.6405,-3.6405,-3.6405,-3.6405,-3.6405,-3.6405,-3.6405,-3.6405,-3.6405,-3.6782,-3.7203,-3.7741,-3.7932,-3.863,-3.9689,-3.9995,-4.0461,-4.0984,-4.0984,-4.1115,-4.1324,-4.1324,-4.1324,-4.1324,-4.1324,-4.1324,-4.1324,-4.1324,-4.1324,-4.1324,-4.1324,-4.1324,-4.1324,-4.1324,-4.1324,-4.1324,-4.1324,-4.1324,-4.1324,-4.1324,-4.1324,-4.1324,-4.1324,-4.1324,-4.1324,0.0,0.0,0.0,0.0,0.0,0.0,0.0,0.0,0.0,0.0,0.0,0.0,0.0,0.0,0.0,0.0,0.0,0.0,0.0,0.0,0.0,-4.3163,-4.3259,-4.3293,-4.3366,-4.3421,-4.3999,-4.5144,-4.6417,-4.6925,-4.6796,-4.7236,-4.7494,-4.7596,-4.7953,-4.8229,-4.8352,-4.833,-4.861,-4.9079,-4.9079,-4.9178,-4.9305,-4.9128,-4.8402,-4.7376,-4.6947,-4.6242,-4.5458,0.0,0.0,0.0,-3.6307,0.0,-3.6405,-3.6405,-3.6405,-3.6405,-3.6405,0.0,0.0,0.0,0.0,-3.6405,-3.6405,-3.6405,-3.6405,-3.6405,-3.6405,-3.6405,-3.6405,-3.6405,-3.6405,-3.6405,-3.6405,-3.6405,-3.6405,-3.6405,-3.6505,-3.6707,-3.701,-3.7533,-3.8155,-3.8447,-3.9197,-4.0337,-4.0595,-4.0958,-4.1324,-4.1324,-4.1324,-4.1324,-4.1324,-4.1324,-4.1324,-4.1324,-4.1324,-4.1324,-4.1324,-4.1324,-4.1324,-4.1324,-4.1324,-4.1324,-4.1324,-4.1324,-4.1324,-4.1324,-4.1324,-4.1324,-4.1324,-4.1324,-4.1324,-4.1324,-4.1324,-4.1324,0.0,0.0,0.0,0.0,0.0,0.0,0.0,0.0,0.0,0.0,0.0,0.0,0.0,0.0,0.0,0.0,0.0,0.0,0.0,0.0,0.0,-4.2338,-4.2338,-4.2396,-4.2511,-4.2796,-4.3436,-4.4571,-4.5816,-4.635,-4.6192,-4.656,-4.6717,-4.6717,-4.7029,-4.7157,-4.726,-4.6977,-4.7339,-4.8106,-4.8106,-4.8207,-4.8358,-4.8258,-4.7709,-4.6846,-4.6084,-4.5501,-4.4959,-3.6003,-3.6241,-3.6405,-3.6405,-3.6405,-3.6405,-3.6405,-3.6405,-3.6405,-3.6405,0.0,0.0,0.0,0.0,0.0,-3.6405,-3.6405,-3.6405,-3.6405,-3.6405,-3.6405,-3.6405,-3.6405,-3.6405,-3.6405,-3.6405,-3.6405,-3.6405,-3.643,-3.6707,-3.7186,-3.7211,-3.7961,-3.9297,-3.9597,-3.987,-4.0192,-4.0963,-4.1324,-4.1324,-4.1324,-4.1324,-4.1324,-4.1324,-4.1324,-4.1324,-4.1324,-4.1324,-4.1324,-4.1324,-4.1324,-4.1324,-4.1324,-4.1324,-4.1324,-4.1324,-4.1324,-4.1324,0.0,0.0,0.0,-4.1324,-4.1324,-4.1324,-4.1324,-4.1324,-4.1324,0.0,0.0,0.0,0.0,0.0,0.0,0.0,0.0,0.0,0.0,0.0,0.0,0.0,0.0,0.0,0.0,0.0,0.0,0.0,0.0,-4.1796,-4.2065,-4.2065,-4.221,-4.2567,-4.3148,-4.3754,-4.4256,-4.5156,-4.5582,-4.5609,-4.5609,-4.5609,-4.5609,-4.5848,-4.5848,-4.5609,-4.5848,-4.6455,-4.7236,-4.7236,-4.7236,-4.7288,-4.7545,-4.7286,-4.6623,-4.5513,-4.5007,-4.474,-3.6241,-3.6358,-3.6405,-3.6405,-3.6405,-3.6405,-3.6405,-3.6405,-3.6405,0.0,0.0,0.0,-3.6405,-3.6405,-3.6405,-3.6405,-3.6405,-3.6405,-3.6405,-3.6405,-3.6405,-3.6405,-3.6405,-3.6405,-3.6405,-3.6405,-3.6405,-3.6405,-3.6807,-3.7036,-3.7211,-3.8015,-3.8717,-3.9322,-4.0006,-4.0412,-4.0713,-4.1145,-4.1324,-4.1324,-4.1324,-4.1324,-4.1324,-4.1324,-4.1324,-4.1324,-4.1324,-4.1324,-4.1324,-4.1324,-4.1324,-4.1324,-4.1324,-4.1324,-4.1324,-4.1324,-4.1324,-4.1324,-4.1324,0.0,0.0,0.0,0.0,0.0,-4.1324,-4.1324,-4.1324,0.0,0.0,0.0,0.0,0.0,0.0,0.0,0.0,0.0,0.0,0.0,0.0,0.0,0.0,0.0,0.0,0.0,0.0,0.0,-4.1398,-4.1448,-4.1498,-4.1498,-4.1576,-4.166,-4.2413,-4.3146,-4.3728,-4.4545,-4.5156,-4.5609,-4.5609,-4.5609,-4.5609,-4.5715,-4.5662,-4.5609,-4.5448,-4.5555,-4.5822,-4.5981,-4.6165,-4.6323,-4.6245,-4.5919,-4.5481,-4.501,-4.463,-4.4343,-3.6358,-3.6405,-3.6405,-3.6405,-3.6405,-3.6405,-3.6405,-3.6405,-3.6405,0.0,0.0,0.0,-3.6405,-3.6405,-3.6405,-3.6405,-3.6405,-3.6405,-3.6405,-3.6405,-3.6405,-3.6405,-3.6405,-3.6405,-3.6405,-3.6631,-3.6757,-3.6757,-3.7262,-3.7638,-3.7889,-3.8617,-3.9095,-3.95,-4.0058,-4.0491,-4.0744,-4.0997,-4.1198,-4.1324,-4.1324,-4.1324,-4.1274,-4.1147,-4.1147,-4.1097,-4.1023,-4.1047,-4.1147,-4.1147,-4.1198,-4.1324,-4.1324,-4.1324,-4.1324,-4.1324,-4.1324,-4.1324,-4.1324,-4.1324,-4.1324,-4.1324,0.0,0.0,-4.1324,-4.1324,-4.1324,0.0,0.0,0.0,0.0,0.0,0.0,0.0,0.0,0.0,0.0,0.0,0.0,0.0,0.0,0.0,0.0,0.0,0.0,-4.1324,-4.1324,-4.1324,-4.1324,-4.1324,-4.1324,-4.1324,-4.2075,-4.2704,-4.3283,-4.3992,-4.4679,-4.5207,-4.5207,-4.5207,-4.5207,-4.5207,-4.5207,-4.5207,-4.5072,-4.5018,-4.5018,-4.518,-4.5395,-4.5662,-4.5609,-4.5502,-4.5259,-4.4704,-4.4516,-4.4325,0.0,-3.6405,-3.6405,-3.6405,-3.6405,-3.6405,-3.6405,-3.6405,-3.6405,0.0,-3.6405,-3.6405,-3.6405,-3.6405,-3.6405,-3.6405,-3.6455,-3.6505,-3.6505,-3.6556,-3.6581,-3.6581,-3.6581,-3.6581,-3.6581,-3.7036,-3.7287,-3.7287,-3.7839,-3.8366,-3.8919,-3.8944,-3.922,-3.9697,-3.9981,-4.0236,-4.0491,-4.0795,-4.1073,-4.1402,-4.135,-4.1324,-4.1274,-4.0997,-4.0896,-4.0846,-4.0593,-4.0643,-4.0896,-4.0946,-4.1097,-4.1324,-4.1324,-4.1324,-4.1324,-4.1324,-4.1324,-4.1324,-4.1324,-4.1324,-4.1324,-4.1324,-4.1324,0.0,-4.1324,-4.1324,-4.1324,0.0,0.0,0.0,0.0,0.0,0.0,0.0,0.0,0.0,0.0,0.0,0.0,0.0,0.0,0.0,0.0,-4.1324,-4.1324,-4.1324,-4.1324,-4.1324,-4.1324,-4.1324,-4.1324,-4.1324,-4.1794,-4.2369,-4.3023,-4.352,-4.4095,-4.4668,-4.4668,-4.4668,-4.4668,-4.4668,-4.4668,-4.4668,-4.4668,-4.4668,-4.4668,-4.4668,-4.491,-4.518,-4.5395,-4.5502,-4.5422,-4.4626,-4.4494,-4.4599,-3.6405,-3.6405,-3.6405,-3.6405,-3.6405,-3.6405,-3.6405,-3.6405,-3.6405,-3.6405,-3.6405,-3.6405,-3.6405,-3.6405,-3.6405,-3.6405,-3.6807,-3.701,-3.701,-3.7437,-3.7688,-3.7688,-3.7688,-3.7688,-3.7688,-3.7789,-3.7839,-3.7839,-3.8417,-3.8768,-3.8919,-3.932,-3.9597,-3.9697,-3.9981,-4.0236,-4.0491,-4.0795,-4.1357,-4.1951,-4.1507,-4.1324,-4.1274,-4.0997,-4.0896,-4.0846,-4.0593,-4.0643,-4.0946,-4.1147,-4.1274,-4.1324,0.0,0.0,0.0,-4.1324,-4.1324,-4.1324,-4.1324,-4.1324,-4.1324,0.0,0.0,0.0,-4.1324,-4.1324,-4.1324,0.0,0.0,0.0,0.0,0.0,0.0,0.0,0.0,0.0,0.0,0.0,0.0,0.0,0.0,0.0,0.0,-4.1324,-4.1324,-4.1324,-4.1324,-4.1324,-4.1324,-4.1324,-4.1324,-4.1324,-4.1428,-4.1977,-4.3023,-4.3127,-4.3702,-4.4668,-4.4668,-4.4668,-4.4668,-4.4668,-4.4668,-4.4668,-4.4668,-4.4668,-4.4668,-4.4668,-4.4722,-4.4776,-4.483,-4.4884,-4.4884,-4.4645,-4.4673,-4.4647,-3.6405,-3.6405,-3.6405,-3.6405,-3.6405,-3.6405,-3.6405,-3.6405,-3.6405,-3.6405,-3.6405,-3.6405,-3.6405,-3.6405,-3.6505,-3.6807,-3.7036,-3.7287,-3.7588,-3.7839,-3.8015,-3.8015,-3.8015,-3.8015,-3.8015,-3.8291,-3.8442,-3.8442,-3.8994,-3.927,-3.9295,-3.9572,-3.9697,-3.9697,-3.9826,-4.0134,-4.0517,-4.0952,-4.1491,-4.193,-4.1644,-4.1645,-4.1904,-4.1492,-4.1311,-4.1259,-4.0972,-4.1077,-4.1389,-4.1802,-4.1982,0.0,-4.2109,-4.216,-4.216,0.0,-4.216,-4.2108,0.0,0.0,0.0,-4.1402,0.0,0.0,0.0,-4.1324,-4.1324,0.0,0.0,0.0,0.0,0.0,0.0,0.0,0.0,0.0,0.0,0.0,0.0,0.0,0.0,0.0,0.0,-4.1324,-4.1324,-4.1324,-4.1324,-4.1324,-4.1324,-4.1324,-4.1324,-4.1324,-4.1324,-4.1873,-4.3023,-4.3023,-4.3598,-4.4668,-4.4668,-4.4668,-4.4668,-4.4668,-4.4668,-4.4668,-4.4668,-4.4668,-4.4668,-4.4668,-4.4668,-4.4668,-4.4668,-4.4668,-4.4668,-4.4668,-4.4668,-4.4668,-3.6405,-3.6405,-3.6405,-3.6405,-3.6405,-3.6405,-3.6405,-3.6405,-3.6455,-3.6556,-3.6556,-3.6606,-3.6707,-3.6732,-3.6908,-3.7312,-3.7437,-3.7688,-3.814,-3.8266,-3.8341,-3.8341,-3.8341,-3.8341,-3.8341,-3.8793,-3.9019,-3.9019,-3.9471,-3.9697,-3.9697,-3.9697,-3.9697,-3.9697,-3.9697,-4.0005,-4.0594,-4.1157,-4.1621,-4.1957,-4.1957,-4.2189,-4.2446,-4.1917,-4.1679,-4.1679,-4.1436,-4.1544,-4.1785,-4.2288,-4.2525,-4.2578,-4.2762,-4.2866,0.0,0.0,0.0,0.0,0.0,0.0,0.0,0.0,0.0,-4.1324,0.0,0.0,0.0,0.0,0.0,0.0,0.0,0.0,0.0,0.0,0.0,0.0,0.0,0.0,0.0,0.0,0.0,0.0,0.0,-4.1324,-4.1324,-4.1324,-4.1324,-4.1324,-4.1324,-4.1324,-4.1324,-4.1324,-4.1324,-4.1873,-4.3023,-4.3023,-4.3598,-4.4668,-4.4668,-4.4668,-4.4668,-4.4668,-4.4668,-4.4668,-4.4668,-4.4668,-4.4668,-4.4668,-4.4668,-4.4668,-4.4668,-4.4668,-4.4668,-4.4668,-4.4668,-4.4668,-3.6405,-3.6405,-3.6405,-3.6405,-3.6405,-3.6405,-3.6405,-3.6405,-3.6581,-3.7036,-3.7086,-3.7287,-3.7764,-3.7814,-3.7839,-3.7914,-3.8391,-3.8718,-3.8768,-3.922,-3.9496,-3.9496,-3.9496,-3.9496,-3.9496,-3.9572,-3.9597,-3.9597,-3.9672,-3.9697,-3.9697,-3.9697,-3.9697,-3.9697,-3.9697,-4.0104,-4.0871,-4.1259,-4.1953,-4.2823,-4.2823,-4.2567,-4.2129,-4.1785,-4.1679,-4.1679,-4.1679,-4.1679,-4.1732,0.0,-4.2182,-4.2182,0.0,-4.2394,-4.2683,-4.2683,0.0,0.0,0.0,0.0,0.0,0.0,-4.169,0.0,0.0,0.0,0.0,0.0,0.0,0.0,0.0,0.0,0.0,0.0,0.0,0.0,0.0,0.0,0.0,0.0,0.0,0.0,0.0,0.0,-4.1324,-4.1324,-4.1324,-4.1324,-4.1324,-4.1324,-4.1324,-4.1324,-4.1324,-4.1873,-4.3023,-4.3023,-4.3598,-4.4668,-4.4668,-4.4668,-4.4668,-4.4668,-4.4668,-4.4668,-4.4668,-4.4668,-4.4668,-4.4668,-4.4668,-4.4668,-4.4668,-4.4668,-4.4668,-4.4668,-4.4668,-4.4668,-3.6405,-3.6405,-3.6405,-3.6405,-3.6405,-3.6405,-3.6405,-3.6681,-3.7036,-3.7588,-3.7663,-3.7739,-3.799,-3.8015,-3.814,-3.8492,-3.8718,-3.9019,0.0,-3.9572,-3.9697,-3.9697,-3.9697,-3.9697,-3.9697,-3.9697,-3.9697,-3.9697,-3.9697,-3.9697,-3.9697,-3.9697,-3.9873,-4.0174,-4.0174,-4.0633,-4.1402,-4.1864,-4.2325,-4.2783,-4.3089,-4.2979,-4.2612,-4.2503,-4.2448,-4.2448,-4.2448,-4.2448,-4.2503,0.0,-4.2859,0.0,0.0,0.0,0.0,0.0,0.0,0.0,0.0,0.0,0.0,0.0,0.0,0.0,-4.1402,0.0,-4.1324,0.0,0.0,0.0,0.0,0.0,0.0,0.0,0.0,0.0,0.0,0.0,0.0,0.0,0.0,0.0,0.0,0.0,0.0,0.0,0.0,-4.1324,-4.1324,-4.1324,-4.1324,-4.1324,-4.1324,-4.1873,-4.3023,-4.3023,-4.3598,-4.4668,-4.4668,-4.4668,-4.4668,-4.4668,-4.4668,-4.4668,-4.4668,-4.4668,-4.4668,-4.4668,-4.4668,-4.4668,-4.4668,-4.4668,-4.4668,-4.4668,-4.4668,-4.4668,-3.6405,-3.6405,-3.6405,-3.6405,-3.6531,-3.6681,-3.6832,-3.7161,-3.7613,-3.8165,-3.8241,-3.8291,-3.8442,-3.8467,-3.8642,-3.9069,-3.9094,-3.927,0.0,-3.9697,-3.9697,-3.9697,-3.9697,-3.9697,-3.9697,-3.9697,-3.9697,-3.9697,-3.9697,-3.9697,-3.9697,-3.9848,-4.0124,-4.0526,-4.0676,-4.116,-4.1878,-4.2363,-4.2641,-4.2764,-4.3174,-4.324,-4.2986,-4.2986,-4.2986,-4.2986,-4.2986,-4.2986,-4.3042,-4.324,-4.3295,0.0,-4.3598,0.0,0.0,0.0,0.0,0.0,-4.3687,0.0,0.0,0.0,0.0,0.0,0.0,0.0,0.0,0.0,0.0,0.0,0.0,0.0,0.0,-4.1324,0.0,0.0,0.0,0.0,0.0,0.0,0.0,0.0,0.0,0.0,0.0,0.0,0.0,0.0,-4.1324,-4.1324,-4.1324,-4.1324,-4.1324,-4.1873,-4.3023,-4.3023,-4.3598,-4.4668,-4.4668,-4.4668,-4.4668,-4.4668,-4.4668,-4.4668,-4.4668,-4.4668,-4.4668,-4.4668,-4.4668,-4.4668,-4.4668,-4.4668,-4.4668,-4.4668,-4.4668,-4.4668,-3.6405,-3.6405,-3.6405,-3.6405,-3.6857,-3.7337,-3.7864,-3.7965,-3.8191,-3.8768,-3.8894,-3.9044,-3.9597,-3.9647,-3.9647,-3.9672,-3.9672,-3.9672,-3.9697,0.0,-3.9697,-3.9697,0.0,-3.9697,0.0,-3.9697,-3.9697,-3.9697,-3.9697,-3.9697,-3.9697,-4.0249,-4.0501,-4.0551,-4.1025,-4.1605,-4.2187,-4.2486,-4.276,-4.3017,-4.3295,-4.324,-4.2986,0.0,-4.2986,-4.2986,-4.2986,0.0,0.0,-4.3042,-4.3042,0.0,0.0,0.0,0.0,0.0,0.0,0.0,0.0,0.0,0.0,-4.3327,0.0,0.0,0.0,0.0,-4.1324,0.0,0.0,0.0,0.0,0.0,-4.1324,-4.1324,-4.1324,0.0,0.0,0.0,0.0,0.0,0.0,0.0,0.0,0.0,0.0,0.0,0.0,0.0,-4.1324,-4.1324,-4.1324,-4.1324,-4.1324,-4.1873,-4.3023,-4.3023,-4.3598,-4.4668,-4.4668,-4.4668,-4.4668,-4.4668,-4.4668,-4.4668,-4.4668,-4.4668,-4.4668,-4.4668,-4.4668,-4.4668,-4.4668,-4.4668,-4.4668,-4.4668,-4.4668,-4.4668,-3.7387,-3.7437,-3.7337,-3.696,-3.7362,-3.7914,-3.8492,-3.8567,-3.8768,-3.9346,-3.9421,-3.9496,-3.9672,-3.9697,-3.9697,0.0,0.0,-3.9697,-3.9697,-3.9697,0.0,0.0,0.0,-3.9697,0.0,0.0,-3.9697,-3.9697,-4.0049,-4.0249,-4.0249,-4.0802,-4.1254,-4.1605,-4.1781,-4.2183,-4.2766,-4.2821,-4.2922,-4.3042,-4.3073,-4.3073,-4.2986,0.0,0.0,-4.2986,-4.2986,-4.2986,0.0,-4.2986,-4.2986,-4.2986,-4.2986,-4.3073,-4.3129,-4.3129,-4.3351,0.0,0.0,0.0,-4.3515,-4.3213,0.0,0.0,0.0,0.0,0.0,0.0,0.0,0.0,0.0,0.0,-4.1324,-4.1324,-4.1324,-4.1324,0.0,0.0,0.0,0.0,0.0,0.0,0.0,0.0,0.0,0.0,-4.1324,0.0,0.0,-4.1324,-4.1324,-4.1324,-4.169,-4.2239,-4.3023,-4.3389,-4.3964,-4.4668,-4.4668,-4.4668,-4.4668,-4.4668,-4.4668,-4.4668,-4.4668,-4.4668,-4.4668,-4.4668,-4.4668,-4.4668,-4.4668,-4.4668,-4.4668,-4.4668,-4.4668,-4.4668,-3.7939,-3.8165,-3.814,-3.7563,-3.7939,-3.8517,-3.9069,-3.917,-3.9295,-3.9647,-3.9697,-3.9697,-3.9697,0.0,-3.9697,0.0,-3.9697,-3.9697,-3.9697,-3.9697,0.0,-3.9697,-3.9697,0.0,0.0,0.0,0.0,-3.9998,-4.035,-4.0626,-4.0827,-4.1379,-4.1831,-4.2213,-4.2414,-4.2715,-4.2986,-4.2986,-4.2986,-4.2986,-4.2986,-4.3087,0.0,0.0,-4.3162,-4.2986,0.0,-4.2986,-4.2986,-4.2986,-4.2986,-4.2986,-4.2986,-4.2986,-4.2986,-4.2986,-4.3129,-4.324,-4.324,-4.3432,0.0,-4.3249,-4.2738,0.0,-4.1956,0.0,0.0,0.0,0.0,0.0,0.0,0.0,-4.1073,-4.1147,-4.1147,-4.1198,0.0,-4.1324,0.0,0.0,0.0,0.0,0.0,0.0,0.0,-4.1324,-4.1324,0.0,0.0,0.0,-4.1324,-4.1324,-4.1873,-4.2448,-4.3023,-4.3598,-4.4173,-4.4668,-4.4668,-4.4668,-4.4668,-4.4668,-4.4668,-4.4668,-4.4668,-4.4668,-4.4668,-4.4668,-4.4668,-4.4668,-4.4668,-4.4668,-4.4668,-4.4668,-4.4668,-4.4668,-3.809,-3.8542,-3.8743,-3.8191,-3.8542,-3.9094,-3.9622,-3.9697,-3.9697,-3.9697,-3.9697,-3.9697,-3.9697,-3.9722,-3.9747,-3.9747,-3.9747,-3.9772,-3.9772,-3.9772,0.0,0.0,-3.9747,-3.9747,-3.9747,0.0,0.0,0.0,-4.0576,-4.0852,-4.1351,-4.1932,-4.2263,-4.2263,-4.2735,-4.2986,-4.2986,-4.2986,-4.2986,-4.3011,-4.3011,-4.3338,-4.384,-4.384,-4.3514,-4.3062,-4.3062,-4.3062,-4.3062,-4.3062,-4.3037,-4.3011,-4.3011,-4.3011,-4.2986,-4.2986,-4.2986,-4.2986,-4.2986,-4.2986,-4.3073,-4.3351,0.0,0.0,0.0,0.0,-4.1131,0.0,0.0,0.0,0.0,0.0,0.0,-4.0846,-4.0896,-4.0997,-4.1274,-4.1324,0.0,0.0,0.0,0.0,0.0,0.0,-4.1324,-4.1324,-4.1324,-4.1324,0.0,0.0,-4.1324,-4.1324,-4.1899,-4.2474,-4.3023,-4.3624,-4.4199,-4.4668,-4.4668,-4.4668,-4.4668,-4.4668,-4.4668,-4.4668,-4.4668,-4.4668,-4.4668,-4.4668,-4.4668,-4.4668,-4.4668,-4.4668,-4.4668,-4.4668,-4.4668,-4.4668,-3.9195,-3.9396,-3.9446,-3.9295,-3.9396,-3.9521,-3.9672,-3.9697,0.0,0.0,-3.9697,-3.9697,-3.9697,-4.0049,-4.03,-4.03,-4.0676,0.0,0.0,0.0,0.0,-4.0874,-4.0526,-4.03,-4.03,-4.03,0.0,-4.0526,0.0,-4.1806,-4.1957,-4.2564,-4.276,-4.2816,-4.2911,-4.2986,-4.2986,-4.2986,-4.3212,-4.3589,-4.3589,-4.3915,0.0,0.0,-4.4317,-4.4192,-4.4192,-4.4192,-4.4192,-4.4192,-4.394,-4.3589,-4.3589,-4.3313,-4.2986,-4.2986,-4.2986,-4.2986,-4.2986,-4.2986,-4.3042,-4.3073,-4.267,-4.2351,0.0,0.0,0.0,0.0,0.0,0.0,0.0,0.0,0.0,-4.0593,-4.0795,-4.0997,0.0,0.0,0.0,-4.1324,0.0,0.0,0.0,0.0,-4.1324,-4.1324,-4.1324,-4.1324,0.0,0.0,0.0,-4.1324,-4.2291,-4.2866,-4.3023,-4.4016,-4.4591,-4.4668,-4.4668,-4.4668,-4.4668,-4.4668,-4.4668,-4.4668,-4.4668,-4.4668,-4.4668,-4.4668,-4.4668,-4.4668,-4.4668,-4.4668,-4.4668,-4.4668,-4.4668,-4.4668,-3.9647,-3.9697,-3.9697,-3.9697,-3.9697,-3.9697,-3.9697,-3.9697,0.0,-3.9697,-3.9898,0.0,-4.0049,-4.0551,-4.0824,-4.0824,-4.11,0.0,-4.1275,0.0,0.0,-4.1275,-4.1,-4.0824,-4.0824,-4.0824,0.0,-4.1229,0.0,-4.2338,-4.259,-4.2891,-4.2986,-4.2986,-4.2986,-4.2986,-4.2986,-4.3237,-4.3664,-4.4166,-4.4166,-4.4493,0.0,-4.4995,-4.5146,-4.5347,-4.5347,-4.5045,-4.4618,-4.4618,-4.4418,-4.4166,-4.4166,-4.394,-4.3639,-4.3413,-4.3338,-4.3288,-4.3037,-4.2986,-4.2986,-4.2986,-4.2735,-4.2514,-4.2427,-4.1695,-4.1066,0.0,0.0,0.0,0.0,0.0,0.0,-4.0287,-4.0643,0.0,0.0,0.0,0.0,0.0,0.0,0.0,0.0,0.0,-4.1324,-4.1324,-4.1324,0.0,0.0,0.0,0.0,-4.169,-4.2552,-4.3154,-4.3389,-4.4278,-4.4668,-4.4668,-4.4668,-4.4668,-4.4668,-4.4668,-4.4668,-4.4668,-4.4668,-4.4668,-4.4668,-4.4668,-4.4668,-4.4668,-4.4668,-4.4668,-4.4668,-4.4668,-4.4668,-4.4668,-3.9697,-3.9697,-3.9697,-3.9697,-3.9747,-3.9798,-3.9798,-3.9798,0.0,-3.9798,0.0,-4.0626,-4.0626,-4.1103,-4.1401,-4.1401,0.0,-4.1501,-4.1501,-4.1501,-4.1501,-4.1501,-4.148,-4.1401,-4.1401,-4.1401,0.0,0.0,0.0,-4.2564,-4.2986,-4.2986,-4.2986,-4.2986,-4.3062,-4.3112,-4.3212,-4.3714,-4.4242,-4.4744,-4.4744,-4.507,-4.5598,-4.5598,-4.5899,-4.6301,-4.6301,-4.5673,-4.4844,-4.4844,-4.4794,-4.4744,-4.4744,-4.4694,-4.4543,-4.4041,-4.3915,-4.379,-4.3313,-4.3137,-4.3087,-4.3087,-4.3037,-4.2861,-4.2414,-4.1831,-4.1304,-4.0827,-4.0224,-3.9798,0.0,0.0,0.0,0.0,0.0,0.0,0.0,0.0,0.0,0.0,0.0,0.0,0.0,0.0,0.0,-4.1324,-4.1324,0.0,0.0,0.0,0.0,-4.2185,-4.2709,0.0,-4.3912,0.0,-4.4668,-4.4668,-4.4668,-4.4668,-4.4668,-4.4668,-4.4668,-4.4668,-4.4668,-4.4668,-4.4668,-4.4668,-4.4613,-4.4613,-4.4613,-4.4668,-4.4668,-4.4668,-4.4668,-4.4668,-3.9697,-3.9697,-3.9697,-3.9697,-4.0074,-4.0375,-4.0375,-4.0375,-4.0375,-4.0375,-4.0852,-4.115,-4.115,-4.1681,-4.2062,-4.2062,-4.2434,0.0,0.0,0.0,0.0,-4.2685,-4.2258,-4.2062,-4.2062,-4.2062,-4.2112,0.0,0.0,-4.2942,-4.2986,-4.2986,-4.2986,-4.2986,-4.3463,-4.3915,-4.4342,-4.4443,0.0,-4.5321,-4.5321,-4.5673,-4.6175,-4.6175,-4.6225,-4.6301,-4.6301,-4.6175,-4.6024,-4.6024,-4.5723,-4.5321,-4.5321,-4.502,-4.4593,-4.4518,-4.4468,-4.4468,-4.4367,-4.4016,-4.3664,-4.3664,-4.3313,-4.2961,-4.2861,-4.2464,-4.2037,-4.1936,-4.1078,-4.0375,-4.0375,0.0,0.0,0.0,0.0,0.0,0.0,0.0,0.0,0.0,0.0,0.0,0.0,0.0,0.0,0.0,0.0,0.0,0.0,0.0,0.0,0.0,-4.2709,0.0,0.0,0.0,-4.4668,-4.4668,-4.4668,-4.4559,-4.4367,-4.4367,-4.4367,-4.4367,-4.4367,-4.4531,-4.4668,-4.4476,-4.4258,-4.4064,-4.4258,-4.4367,-4.4422,-4.4613,-4.4668,-4.4668,-3.9697,-3.9923,-4.0124,0.0,0.0,0.0,0.0,-4.1178,-4.1254,-4.0978,-4.143,-4.1756,-4.1756,-4.2509,-4.3011,-4.3011,-4.3514,-4.384,-4.384,-4.384,-4.384,-4.384,-4.3589,0.0,-4.3438,-4.3438,-4.3438,-4.3438,0.0,-4.384,-4.384,-4.384,-4.384,-4.384,-4.4116,-4.4543,-4.507,0.0,0.0,-4.5924,-4.5924,-4.6075,-4.6276,-4.5999,-4.5874,-4.5849,-4.5547,-4.5447,-4.5522,-4.6125,-4.6125,-4.5924,-4.5924,-4.5723,-4.5447,-4.5146,-4.507,-4.4995,-4.4694,-4.4418,-4.4217,-4.4217,-4.3815,-4.3413,-4.3413,-4.276,-4.2213,-4.2213,-4.1505,-4.0852,-4.0576,-4.03,0.0,0.0,0.0,0.0,0.0,0.0,0.0,0.0,0.0,0.0,0.0,0.0,0.0,0.0,0.0,0.0,0.0,0.0,0.0,0.0,0.0,0.0,0.0,0.0,0.0,-4.4476,-4.4476,-4.4367,-4.4119,-4.4119,-4.4119,-4.4119,-4.4119,-4.4148,-4.4258,-4.4148,-4.401,-4.3899,-4.4064,-4.4148,-4.4313,-4.4422,-4.4559,-4.4668,-4.0023,-4.04,0.0,0.0,-4.1153,0.0,-4.1505,-4.2082,-4.2258,-4.1605,-4.2082,-4.2564,-4.2564,-4.3388,-4.3966,-4.3966,-4.4367,-4.4618,-4.4618,-4.4618,-4.4618,-4.4618,-4.4618,-4.4618,-4.4618,-4.4618,-4.4618,0.0,0.0,0.0,-4.4618,-4.4618,-4.4694,-4.4794,-4.4794,0.0,0.0,0.0,-4.5924,-4.6301,-4.6301,-4.6301,-4.625,-4.5824,-4.5673,-4.5598,-4.5146,-4.4995,-4.5121,-4.5999,-4.6225,-4.615,-4.6276,-4.6301,-4.6225,-4.5799,-4.5673,-4.5573,-4.5095,-4.4895,-4.4794,-4.4794,-4.4392,-4.3966,-4.3966,-4.3212,-4.2564,-4.2564,-4.1982,-4.1354,-4.0802,-4.0601,0.0,0.0,0.0,0.0,0.0,0.0,0.0,0.0,0.0,0.0,0.0,0.0,0.0,0.0,0.0,0.0,0.0,0.0,0.0,0.0,0.0,-4.4147,-4.4668,0.0,-4.4531,0.0,-4.4258,-4.4039,-4.3764,-4.3764,-4.3764,-4.3764,-4.3764,-4.3764,-4.3764,-4.3764,-4.3789,-4.3734,-4.3789,-4.3929,-4.4148,-4.4203,-4.4367,-4.4531,0.0,0.0,0.0,0.0,0.0,0.0,-4.2137,-4.2961,-4.3263,-4.2263,-4.2986,-4.3639,-4.3639,-4.4192,-4.4543,-4.4543,-4.4593,-4.4618,-4.4618,-4.4618,-4.4618,-4.4618,-4.4618,-4.4618,-4.4618,-4.4618,-4.4618,0.0,0.0,0.0,0.0,-4.4618,-4.4895,0.0,0.0,0.0,0.0,-4.6225,-4.625,-4.6301,-4.6301,-4.6301,-4.6301,-4.625,-4.6225,-4.6225,-4.6175,-4.615,-4.6175,-4.6276,-4.5974,-4.5648,-4.615,-4.6301,-4.6301,-4.625,-4.6225,-4.6225,-4.6175,-4.5799,-4.5422,-4.5422,-4.497,-4.4543,-4.4543,-4.4091,-4.3639,-4.3639,-4.2811,-4.1907,-4.1354,-4.0852,-4.0501,0.0,0.0,0.0,0.0,0.0,0.0,0.0,0.0,0.0,0.0,0.0,0.0,0.0,0.0,0.0,0.0,0.0,0.0,-4.3755,0.0,-4.4147,-4.4668,-4.4476,0.0,-4.4313,-4.4064,-4.3764,-4.3462,-4.3462,-4.3462,-4.3462,-4.3462,-4.3462,-4.3462,-4.3462,-4.3295,-4.3098,-4.3351,-4.3462,-4.3517,-4.3819,-4.3955,-4.401,0.0,0.0,0.0,0.0,0.0,0.0,0.0,-4.379,-4.4141,-4.3689,-4.4016,-4.4292,-4.4292,-4.4794,-4.5146,-4.5146,-4.5447,-4.5648,-4.5648,-4.5648,-4.5648,-4.5648,-4.5648,-4.5648,-4.5648,-4.5648,-4.5648,0.0,0.0,0.0,0.0,0.0,0.0,0.0,0.0,-4.61,-4.6301,-4.6301,-4.6301,-4.6301,-4.6301,-4.6301,-4.6276,-4.5949,-4.5824,-4.5773,-4.5422,-4.5296,-4.5347,-4.5698,-4.5899,-4.6024,-4.625,-4.6301,-4.6301,-4.6301,-4.6301,-4.6301,-4.6301,-4.615,-4.5974,-4.5974,-4.5573,-4.5146,-4.5146,-4.4694,-4.4292,-4.4292,-4.3689,-4.2861,-4.1982,-4.1656,-4.1379,0.0,0.0,0.0,0.0,0.0,0.0,0.0,0.0,0.0,0.0,0.0,-4.1209,0.0,0.0,0.0,0.0,0.0,0.0,-4.3912,0.0,-4.4405,-4.4476,-4.4367,-4.4148,-4.3738,-4.3628,-4.3462,-4.3129,-4.3129,-4.3129,-4.3129,-4.3129,-4.3129,-4.3129,-4.3129,-4.3073,-4.3042,-4.3129,-4.324,-4.3406,-4.3517,-4.3708,-4.3899,-4.1781,0.0,-4.269,0.0,-4.3413,-4.4041,-4.4041,-4.4518,-4.4869,-4.4869,-4.502,-4.5045,-4.4895,-4.5397,-4.5723,-4.5723,-4.6075,-4.6301,-4.6301,-4.6301,-4.6301,-4.6301,-4.6301,0.0,-4.6301,-4.6301,-4.6301,-4.6301,-4.6301,0.0,0.0,0.0,0.0,0.0,-4.6301,-4.6301,-4.6301,-4.6301,-4.6301,-4.6301,-4.6301,-4.6301,-4.6276,-4.5874,-4.5723,-4.5673,-4.5271,-4.5121,-4.5171,-4.5598,-4.5999,-4.6301,-4.6301,-4.6301,-4.6301,-4.6301,-4.6301,-4.6301,-4.6301,-4.6301,-4.6301,-4.6301,-4.6024,-4.5723,-4.5723,-4.5296,-4.4819,-4.4669,-4.4192,-4.3564,-4.2841,-4.2439,-4.2087,-4.163,0.0,0.0,0.0,0.0,0.0,0.0,-4.0331,-4.0461,-4.0461,0.0,0.0,0.0,0.0,0.0,0.0,0.0,0.0,0.0,0.0,0.0,0.0,-4.4094,-4.3793,-4.3381,-4.3351,-4.3184,-4.2986,-4.2986,-4.2986,-4.2986,-4.2986,-4.2986,-4.2986,-4.2986,-4.2986,-4.2986,-4.2986,-4.3129,-4.3295,-4.3295,-4.3432,-4.3653,-4.2861,-4.3413,-4.379,-4.379,-4.4242,-4.4618,-4.4618,-4.5095,-4.5472,-4.5472,-4.5949,-4.6075,-4.5547,-4.5974,-4.6301,-4.6301,-4.6301,-4.6301,-4.6301,-4.6301,-4.6301,0.0,0.0,-4.6301,-4.6301,-4.6301,-4.6301,-4.6301,0.0,0.0,-4.6301,0.0,-4.6301,-4.6301,-4.6301,-4.6301,-4.6301,-4.6301,-4.6301,-4.6301,-4.6301,-4.6301,-4.6301,-4.6301,-4.6301,-4.6301,-4.6301,-4.6301,-4.6301,-4.6301,-4.6301,-4.6301,-4.6301,-4.6301,-4.6301,-4.6301,-4.6301,-4.6301,-4.6301,-4.6301,-4.6301,-4.6301,-4.6301,-4.6301,-4.6301,-4.5874,-4.5321,-4.4744,-4.4192,-4.379,-4.379,-4.2886,-4.2213,-4.2213,0.0,0.0,0.0,0.0,0.0,0.0,-4.125,-4.1275,-4.1275,0.0,0.0,0.0,0.0,0.0,0.0,0.0,0.0,-4.3874,-4.3899,0.0,-4.3899,-4.3572,-4.3381,-4.3381,-4.3129,-4.2986,-4.2986,-4.2986,-4.2986,-4.2986,-4.2986,-4.2986,-4.2986,-4.2986,-4.2986,-4.2986,-4.2986,-4.2986,-4.2986,-4.2986,-4.3042,-4.3017,-4.3514,-4.3991,-4.4367,-4.4367,-4.4844,-4.5221,-4.5221,-4.5698,-4.605,-4.605,-4.62,-4.6376,-4.6602,-4.6426,-4.6451,0.0,-4.6878,-4.7029,0.0,-4.7079,-4.6878,-4.6878,-4.6502,-4.6301,-4.6301,-4.6301,-4.6301,-4.6301,0.0,0.0,0.0,-4.6301,-4.6301,-4.6301,-4.6301,-4.6301,-4.6301,-4.6301,-4.6301,-4.6301,-4.6301,-4.6301,-4.6301,-4.6301,-4.6301,-4.6301,-4.6301,-4.6301,-4.6301,-4.6301,-4.6301,-4.6301,-4.6301,-4.6301,-4.6301,-4.6301,-4.6301,-4.6301,-4.6301,-4.6301,-4.6301,-4.6301,-4.6301,-4.6301,-4.6301,-4.6175,-4.5899,-4.5321,-4.507,-4.4819,-4.4443,-4.3765,-4.3263,-4.3263,-4.2811,0.0,0.0,0.0,0.0,0.0,-4.1275,-4.1275,0.0,-4.1789,0.0,0.0,0.0,0.0,0.0,0.0,0.0,0.0,-4.3899,0.0,-4.3572,-4.3843,-4.3731,-4.3129,-4.3419,-4.3338,-4.2986,-4.2986,-4.2986,-4.2986,-4.2986,-4.2986,-4.2986,-4.2986,-4.2986,-4.2986,-4.2986,-4.2986,-4.2986,-4.2986,-4.2986,-4.3042,-4.4116,-4.4568,-4.4945,-4.4945,-4.5422,-4.5799,-4.5799,-4.6075,-4.6301,-4.6301,-4.6502,-4.6753,-4.7043,-4.7004,0.0,-4.738,-4.7431,-4.7556,-4.7883,-4.7606,-4.7431,-4.7431,-4.7104,-4.6828,-4.6627,0.0,0.0,-4.6301,-4.6301,-4.6301,-4.6301,-4.6301,-4.6301,-4.6301,-4.6301,-4.6301,-4.6301,-4.6301,-4.6301,-4.6301,-4.6301,-4.6301,-4.6301,-4.6301,-4.6301,-4.6301,-4.6301,-4.6301,-4.6301,-4.6301,-4.6301,-4.6301,-4.6301,-4.6301,-4.6301,-4.6301,-4.6301,-4.6301,-4.6301,-4.6301,-4.6301,-4.6301,-4.6301,-4.6301,-4.6301,-4.6301,-4.62,-4.5874,-4.5623,-4.5372,-4.502,-4.4493,-4.4116,-4.4116,-4.3639,-4.3162,-4.2866,0.0,0.0,0.0,0.0,0.0,0.0,-4.2258,0.0,0.0,0.0,0.0,0.0,0.0,0.0,-4.3873,-4.4077,0.0,-4.3846,-4.4023,-4.3866,-4.3288,-4.3413,-4.3413,-4.3288,-4.3288,-4.3388,-4.3589,-4.3589,-4.3589,-4.3589,-4.3589,-4.3589,-4.3589,-4.3589,-4.3463,-4.3288,-4.3288,-4.3162,-4.2986,-4.4694,-4.5146,0.0,0.0,-4.5974,0.0,-4.6301,-4.6301,-4.6326,-4.6351,-4.6803,-4.7093,-4.723,-4.7682,-4.7983,-4.8008,0.0,0.0,0.0,-4.7983,-4.7958,-4.7958,-4.7933,-4.7682,-4.7205,-4.7179,-4.6928,-4.6426,-4.6426,-4.6401,-4.6376,-4.6376,-4.6351,-4.6301,-4.6301,-4.6301,-4.6301,-4.6301,-4.6301,-4.6301,-4.6301,-4.6301,-4.6301,-4.6301,-4.6301,-4.6301,-4.6301,-4.6301,-4.6301,-4.6301,-4.6301,-4.6301,-4.6301,-4.6301,-4.6301,-4.6301,-4.6301,-4.6301,-4.6301,-4.6301,-4.6301,-4.6301,-4.6301,-4.6301,-4.6301,-4.6301,-4.6301,-4.6301,-4.5899,-4.5547,-4.5547,-4.507,-4.4694,-4.4694,-4.4217,-4.3865,-4.3865,0.0,0.0,0.0,0.0,0.0,0.0,-4.3087,-4.3087,0.0,0.0,0.0,0.0,0.0,-4.4257,-4.3865,-4.4342,-4.4593,-4.4568,-4.4091,-4.3865,-4.384,-4.3338,-4.3363,-4.3865,-4.3865,-4.4141,-4.4618,-4.4618,-4.4618,-4.4618,-4.4618,-4.4618,-4.4618,-4.4618,-4.4317,-4.3865,-4.3865,-4.3539,-4.3087,0.0,0.0,-4.6125,-4.6125,-4.6225,-4.6301,-4.6301,-4.6301,-4.6451,-4.6878,-4.6993,-4.7456,-4.8284,-4.8485,-4.8736,-4.9163,-4.8812,-4.8736,-4.9163,-4.8812,-4.856,-4.856,-4.8134,-4.7857,-4.7732,-4.7732,-4.7657,-4.7531,-4.7531,-4.733,-4.6928,-4.6928,-4.6702,-4.6301,-4.6301,-4.6301,-4.6301,-4.6301,-4.6301,-4.6301,-4.6301,-4.6301,-4.6301,-4.6301,-4.6301,-4.6301,-4.6301,-4.6301,-4.6301,-4.6301,-4.6301,-4.6301,-4.6301,-4.6301,-4.6301,-4.6301,-4.6301,-4.6301,-4.6301,-4.6301,-4.6301,-4.6301,-4.6301,-4.6301,-4.6301,-4.6301,-4.6301,-4.6301,-4.62,-4.6125,-4.6125,-4.5673,-4.5271,-4.5271,-4.4794,-4.4418,-4.4418,-4.4317,0.0,0.0,-4.4242,-4.4242,-4.4242,-4.4242,-4.4242,0.0,0.0,0.0,0.0,-4.4903,-4.4953,-4.4443,-4.4543,-4.4418,-4.3991,-4.4292,-4.4418,-4.4418,-4.4292,-4.4292,-4.4418,-4.4418,-4.4493,-4.4618,-4.4618,-4.4618,-4.4618,-4.4618,-4.4618,-4.4618,-4.4618,-4.4543,-4.4418,-4.4418,-4.4342,-4.4242,-4.5874,-4.61,-4.6301,-4.6301,-4.6301,-4.6301,-4.6301,-4.6527,-4.6803,-4.7043,-4.7581,-4.8109,-4.8711,-4.8987,-4.9264,-4.9565,-4.9314,-4.9264,-4.9565,-4.9314,-4.9163,-4.9163,-4.8837,-4.856,-4.8309,-4.8309,-4.8184,-4.7908,-4.7908,-4.7757,-4.7481,-4.7481,-4.733,-4.7029,-4.7029,-4.7029,-4.7029,-4.7029,-4.7029,-4.7029,-4.7029,-4.7029,-4.7029,-4.7029,-4.7029,-4.7029,-4.7029,-4.6878,-4.6702,-4.6702,-4.6527,-4.6301,-4.6301,-4.6301,-4.6301,-4.6301,-4.6301,-4.6301,-4.6301,-4.6301,-4.6301,-4.6301,-4.6301,-4.6301,-4.6301,-4.6301,-4.6301,-4.6301,-4.6301,-4.6301,-4.6301,-4.6075,-4.5874,-4.5874,-4.5397,-4.502,-4.502,-4.4794,0.0,-4.4618,-4.4618,-4.4618,-4.4618,-4.4618,-4.4618,-4.4618,0.0,0.0,-4.502,-4.5321,-4.5347,-4.502,-4.502,-4.4995,-4.4945,-4.4995,-4.4895,-4.4618,-4.4618,-4.4769,-4.502,-4.502,-4.5146,-4.5397,-4.5397,-4.5397,-4.5397,-4.5397,-4.5397,-4.5397,-4.5397,-4.5246,-4.502,-4.502,-4.4844,-4.4618,-4.6301,-4.6301,-4.6301,-4.6301,-4.6301,-4.6326,-4.6426,-4.6828,-4.7143,-4.7355,-4.8184,-4.8812,-4.8887,-4.9314,-4.959,-4.959,-4.959,-4.959,-4.959,-4.959,-4.959,-4.959,-4.959,-4.9364,-4.8912,-4.8887,-4.8661,-4.8159,-4.8159,-4.8134,-4.8033,-4.8033,-4.7983,-4.7908,-4.7908,-4.7908,-4.7908,-4.7908,-4.7908,-4.7908,-4.7908,-4.7908,-4.7908,-4.7908,-4.7908,-4.7908,-4.7908,-4.7631,-4.7193,-4.7193,-4.6878,-4.6426,-4.6426,-4.6376,-4.6301,-4.6301,-4.6301,-4.6301,-4.6301,-4.6301,-4.6301,-4.6301,-4.6301,-4.6301,-4.6301,-4.6301,-4.6301,-4.6301,-4.6301,-4.6301,-4.6301,-4.6301,-4.6301,-4.6301,-4.5924,-4.5623,-4.5623,0.0,-4.4869,-4.4869,-4.4869,-4.4869,-4.4869,-4.4869,-4.4869,-4.4869,-4.5271,-4.5522,0.0,-4.5522,-4.5522,-4.5623,-4.5522,-4.5723,-4.6175,-4.5723,-4.5246,-4.4744,-4.4844,-4.5146,-4.5623,-4.5623,-4.5874,-4.6301,-4.6301,-4.6301,-4.6301,-4.6301,-4.6301,-4.6301,-4.6301,-4.6024,-4.5623,-4.5623,-4.5296,-4.4869,-4.6301,-4.6301,-4.6301,-4.6301,-4.6301,-4.6476,-4.6928,-4.7079,-4.7481,-4.8385,-4.8661,-4.8962,-4.9414,-4.954,-4.959,-4.959,-4.959,-4.959,-4.959,-4.959,-4.959,-4.959,-4.959,-4.9565,-4.9464,-4.9464,-4.9414,-4.9339,-4.9339,-4.9088,-4.8636,-4.8636,-4.8385,-4.7908,-4.7908,-4.7908,-4.7908,-4.7908,-4.7908,-4.7908,-4.7908,-4.7908,-4.7908,-4.7908,-4.7908,-4.7908,-4.7908,-4.7857,-4.7782,-4.7782,-4.7431,-4.7004,-4.7004,-4.6677,-4.6301,-4.6301,-4.6301,-4.6301,-4.6301,-4.6301,-4.6301,-4.6301,-4.6301,-4.6301,-4.6301,-4.6301,-4.6301,-4.6301,-4.6301,-4.6301,-4.6301,-4.6301,-4.6301,-4.6301,-4.6225,-4.6175,-4.6175,0.0,-4.605,-4.605,-4.605,-4.605,-4.605,-4.605,-4.605,-4.605,-4.5698,-4.5698,-4.615,-4.5748,-4.5698,-4.6175,-4.5723,-4.5522,-4.5623,-4.5522,-4.5447,-4.5372,-4.5824,-4.61,-4.6175,-4.6175,-4.6225,-4.6301,-4.6301,-4.6301,-4.6301,-4.6301,-4.6301,-4.6301,-4.6301,-4.625,-4.6175,-4.6175,-4.6125,-4.605,-4.6301,-4.6301,-4.6301,-4.6301,-4.6552,-4.6828,-4.7043,-4.7631,-4.8184,-4.8711,-4.9038,-4.9314,-4.9565,-4.959,-4.959,-4.959,-4.959,-4.959,-4.959,-4.959,-4.959,-4.959,-4.959,-4.959,-4.959,-4.959,-4.959,-4.959,-4.959,-4.9464,-4.9213,-4.9213,-4.9063,-4.8812,-4.8812,-4.8812,-4.8812,-4.8812,-4.8812,-4.8812,-4.8812,-4.8812,-4.8812,-4.8812,-4.8812,-4.8812,-4.8812,-4.8636,-4.836,-4.836,-4.8008,-4.7556,-4.7556,-4.738,-4.7129,-4.6828,-4.6552,-4.6301,-4.6301,-4.6301,-4.6301,-4.6301,-4.6301,-4.6301,-4.6301,-4.6301,-4.6301,-4.6301,-4.6301,-4.6301,-4.6301,-4.6301,-4.6301,-4.6301,-4.6301,0.0,0.0,-4.6301,-4.6301,-4.6301,-4.6301,-4.6301,-4.6301,-4.6301,-4.6301,-4.6301,-4.6075,-4.605,-4.6301,-4.5773,-4.5748,-4.6301,-4.6075,-4.5799,-4.5497,-4.5773,-4.5924,-4.5924,-4.6175,-4.6301,-4.6301,-4.6301,-4.6301,-4.6301,-4.6301,-4.6301,-4.6301,-4.6301,-4.6301,-4.6301,-4.6301,-4.6301,-4.6301,-4.6301,-4.6301,-4.6301,-4.6301,-4.6301,-4.6351,-4.6476,-4.6853,-4.723,-4.7481,-4.8234,-4.8812,-4.8937,-4.9339,-4.959,-4.959,-4.959,-4.959,-4.959,-4.959,-4.959,-4.959,-4.959,-4.959,-4.959,-4.959,-4.959,-4.959,-4.959,-4.959,-4.959,-4.959,-4.959,-4.959,-4.959,-4.959,-4.959,-4.959,-4.959,-4.959,-4.959,-4.959,-4.959,-4.959,-4.959,-4.959,-4.959,-4.959,-4.959,-4.959,-4.9314,-4.8962,-4.8962,-4.8586,-4.8109,-4.8109,-4.8008,-4.7832,-4.7431,-4.6928,-4.6476,-4.6351,-4.6301,-4.6301,-4.6301,-4.6301,-4.6301,-4.6301,-4.6301,-4.6301,-4.6301,-4.6301,-4.6301,-4.6301,-4.6301,-4.6301,-4.6301,0.0,0.0,0.0,-4.6301,-4.6301,-4.6301,-4.6301,-4.6301,-4.6301,-4.6301,-4.6301,-4.6301,-4.62,-4.6175,-4.6301,-4.5773,-4.5748,-4.6301,-4.6301,-4.61,-4.5673,-4.61,-4.6301,-4.6301,-4.6301,-4.6301,-4.6301,-4.6301,-4.6301,-4.6301,-4.6301,-4.6301,-4.6301,-4.6301,-4.6301,-4.6301,-4.6301,-4.6301,-4.6301,-4.6301,-4.6301,-4.6301,-4.6301,-4.6301,-4.6476,-4.6918,-4.7043,-4.7481,-4.8485,-4.8711,-4.8962,-4.9464,-4.9565,-4.959,-4.959,-4.959,-4.959,-4.959,-4.959,-4.959,-4.959,-4.959,-4.959,-4.959,-4.959,-4.959,-4.959,-4.959,-4.959,-4.959,-4.959,-4.959,-4.959,-4.959,-4.959,-4.959,-4.959,-4.959,-4.959,-4.959,-4.959,-4.959,-4.959,-4.959,-4.959,-4.959,-4.959,-4.959,-4.959,-4.9565,-4.954,-4.954,-4.9163,-4.8711,-4.8711,-4.8335,-4.7908,-4.7857,-4.7481,-4.6954,-4.6451,-4.6301,-4.6301,-4.6301,-4.6301,-4.6301,-4.6301,-4.6301,-4.6301,-4.6301,-4.6301,-4.6301,-4.6301,-4.6301,-4.6301,-4.6301,0.0,0.0,-4.6301,-4.6301,-4.6301,-4.6301,-4.6301,-4.6301,-4.6301,-4.6301,-4.6301,-4.6301,-4.5824,-4.5773,-4.6276,-4.5773,-4.5748,-4.6301,-4.6301,-4.6301,-4.625,-4.6301,-4.6301,-4.6301,-4.6301,-4.6301,-4.6301,-4.6301,-4.6301,-4.6301,-4.6301,-4.6301,-4.6301,-4.6301,-4.6301,-4.6301,-4.6301,-4.6301,-4.6301,-4.6301,-4.6301,-4.6301,-4.6753,-4.6828,-4.7004,-4.7531,-4.7908,-4.8284,-4.8711,-4.9063,-4.9364,-4.9565,-4.959,-4.959,-4.959,-4.959,-4.959,-4.959,-4.959,-4.959,-4.959,-4.959,-4.959,-4.959,-4.959,-4.959,-4.959,-4.959,-4.959,-4.959,-4.959,-4.959,-4.959,-4.959,-4.9414,-4.9088,-4.9088,-4.8887,-4.856,-4.856,-4.856,-4.856,-4.856,-4.856,-4.856,-4.856,-4.856,-4.856,-4.856,-4.856,-4.8611,-4.8962,-4.8937,-4.8837,-4.9163,-4.9138,-4.8887,-4.8535,-4.8058,-4.7556,-4.7355,-4.6828,-4.6301,-4.6301,-4.6301,-4.6301,-4.6301,-4.6301,-4.6301,-4.6301,-4.6301,-4.6301,-4.6301,-4.6301,-4.6301,-4.6301,0.0,-4.6301,-4.6301,-4.6301,-4.6301,-4.6301,-4.6301,-4.6301,-4.6301,-4.6301,-4.6301,-4.6301,-4.6125,-4.61,-4.6301,-4.6125,-4.61,-4.6301,-4.6301,-4.6301,-4.6301,-4.6301,-4.6301,-4.6301,-4.6301,-4.6301,-4.6301,-4.6301,-4.6301,-4.6301,-4.6301,-4.6301,-4.6301,-4.6301,-4.6301,-4.6301,-4.6301,-4.6301,-4.6301,-4.6301,-4.6301,-4.6301,-4.6968,-4.7068,-4.7355,-4.8058,-4.851,-4.8837,-4.9012,-4.9339,-4.959,-4.959,-4.959,-4.959,-4.959,-4.959,-4.959,-4.959,-4.959,-4.959,-4.959,-4.959,-4.959,-4.959,-4.959,-4.959,-4.959,-4.959,-4.959,-4.959,-4.959,-4.959,-4.959,-4.959,-4.9389,-4.9038,-4.9038,-4.8812,-4.8435,-4.8435,-4.8435,-4.8435,-4.8435,-4.8435,-4.8435,-4.8435,-4.8435,-4.8435,-4.8435,-4.8435,-4.851,-4.8887,-4.9038,-4.9088,-4.9464,-4.959,-4.949,-4.8937,-4.836,-4.7908,-4.7908,-4.7255,-4.6577,-4.6577,-4.6577,-4.6527,-4.6351,-4.6301,-4.6301,-4.6301,-4.6301,-4.6301,-4.6301,-4.6301,-4.6301,-4.6301,-4.6301,-4.6301,-4.6301,-4.6301,-4.6301,-4.6301,-4.6301,-4.6301,-4.6301,-4.6301,-4.6301,-4.6301,-4.6301,-4.6301,-4.6301,-4.6301,-4.6301,-4.6301,-4.6476,-4.6476,-4.6301,-4.6301,-4.6401,-4.6577,-4.6577,-4.6652,-4.6803,-4.6803,-4.6728,-4.6577,-4.6577,-4.6476,-4.6301,-4.6301,-4.6301,-4.6301,-4.6301,-4.6301,-4.6301,-4.6301,-4.6301,-4.6301,-4.6968,-4.7093,-4.7481,-4.8586,-4.8786,-4.8962,-4.9515,-4.959,-4.959,-4.959,-4.959,-4.959,-4.959,-4.959,-4.959,-4.959,-4.959,-4.959,-4.959,-4.959,-4.959,-4.959,-4.959,-4.959,-4.959,-4.959,-4.959,-4.959,-4.959,-4.959,-4.959,-4.959,-4.959,-4.959,-4.959,-4.959,-4.959,-4.959,-4.959,-4.959,-4.959,-4.959,-4.959,-4.959,-4.959,-4.959,-4.959,-4.959,-4.959,-4.959,-4.959,-4.959,-4.959,-4.959,-4.949,-4.8937,-4.836,-4.7933,-4.7933,-4.7531,-4.7093,-4.7093,-4.7093,-4.7004,-4.6451,-4.6326,-4.6326,-4.6326,-4.6326,-4.6326,-4.6326,-4.6301,-4.6301,-4.6301,-4.6301,-4.6301,-4.6301,-4.6301,-4.6301,-4.6301,-4.6301,-4.6301,-4.6301,-4.6301,-4.6301,-4.6301,-4.6301,-4.6326,-4.6301,-4.6301,-4.6326,-4.6301,-4.6853,-4.6853,-4.6326,-4.6326,-4.6602,-4.7068,-4.7068,-4.7405,-4.7908,-4.7908,-4.7606,-4.7068,-4.7068,-4.6803,-4.6301,-4.6301,-4.6301,-4.6301,-4.6301,-4.6301,-4.6301,-4.6301,-4.6301,-4.6301,-4.7581,-4.8008,-4.851,-4.9213,-4.9339,-4.9414,-4.9565,-4.959,-4.959,-4.959,-4.959,-4.959,-4.959,-4.959,-4.959,-4.959,-4.959,-4.959,-4.959,-4.959,-4.959,-4.959,-4.959,-4.959,-4.959,-4.959,-4.959,-4.959,-4.959,-4.959,-4.959,-4.959,-4.9389,-4.9012,-4.9012,-4.8786,-4.841,-4.841,-4.841,-4.841,-4.841,-4.841,-4.841,-4.841,-4.841,-4.841,-4.841,-4.841,-4.8485,-4.8887,-4.9012,-4.9088,-4.9464,-4.959,-4.9565,-4.9389,-4.9213,-4.9088,-4.9088,-4.8987,-4.8661,-4.7883,-4.7682,-4.7631,-4.7481,-4.7431,-4.7431,-4.7431,-4.7154,-4.6878,-4.6878,-4.6577,-4.6301,-4.6301,-4.6301,-4.6301,-4.6301,-4.6301,-4.6301,-4.6301,-4.6301,-4.6301,-4.6301,-4.6301,-4.6301,-4.6301,-4.6677,-4.6728,-4.6326,-4.6677,-4.6702,-4.6326,-4.6476,-4.6476,-4.6301,-4.6702,-4.6778,-4.6552,-4.6552,-4.6627,-4.6778,-4.6778,-4.6702,-4.6552,-4.6552,-4.6451,-4.6301,-4.6301,-4.6301,-4.6301,-4.6301,-4.6301,-4.6301,-4.6301,-4.6301,-4.6301,-4.7807,-4.8385,-4.8937,-4.949,-4.959,-4.959,-4.959,-4.959,-4.959,-4.959,-4.959,-4.959,-4.959,-4.959,-4.959,-4.959,-4.959,-4.9515,-4.9289,-4.9464,-4.949,-4.9289,-4.949,-4.959,-4.959,-4.959,-4.959,-4.959,-4.959,-4.959,-4.959,-4.959,-4.9414,-4.9113,-4.9113,-4.8912,-4.8586,-4.8586,-4.8586,-4.8586,-4.8586,-4.8586,-4.8586,-4.8586,-4.8586,-4.8586,-4.8586,-4.8586,-4.8636,-4.8987,-4.9113,-4.9163,-4.949,-4.959,-4.9565,-4.9339,-4.9264,-4.9264,-4.9264,-4.9264,-4.9163,-4.8686,-4.8234,-4.7807,-4.738,-4.728,-4.733,-4.7556,-4.7355,-4.7143,-4.7405,-4.7154,-4.6928,-4.6928,-4.6928,-4.6928,-4.6928,-4.6928,-4.6928,-4.6928,-4.6928,-4.6928,-4.6928,-4.6928,-4.6853,-4.6652,-4.6954,-4.6903,-4.6351,-4.6627,-4.6652,-4.6326,-4.6527,-4.6527,-4.6301,-4.6853,-4.6979,-4.6652,-4.6652,-4.6753,-4.6928,-4.6928,-4.6828,-4.6652,-4.6652,-4.6527,-4.6301,-4.6301,-4.6301,-4.6301,-4.6301,-4.6301,-4.6301,-4.6301,-4.6301,-4.6301,-4.7883,-4.846,-4.9012,-4.9515,-4.959,-4.959,-4.959,-4.959,-4.959,-4.959,-4.959,-4.959,-4.959,-4.959,-4.959,-4.959,-4.9565,-4.9314,-4.8812,-4.9238,-4.9314,-4.8862,-4.9314,-4.959,-4.959,-4.959,-4.959,-4.959,-4.959,-4.959,-4.959,-4.959,-4.959,-4.959,-4.959,-4.959,-4.959,-4.959,-4.959,-4.959,-4.959,-4.959,-4.959,-4.959,-4.959,-4.959,-4.959,-4.959,-4.959,-4.959,-4.959,-4.959,-4.959,-4.959,-4.949,-4.8987,-4.8837,-4.8837,-4.8837,-4.8837,-4.8962,-4.9414,-4.8736,-4.7732,-4.6828,-4.6577,-4.6677,-4.7179,-4.7143,-4.728,-4.7757,-4.7807,-4.7757,-4.7757,-4.7757,-4.7757,-4.7757,-4.7757,-4.7757,-4.7757,-4.7757,-4.7757,-4.7757,-4.7757,-4.7556,-4.7104,-4.7043,-4.6903,-4.6351,-4.6351,-4.6351,-4.6301,-4.6803,-4.6828,-4.6326,-4.6803,-4.7054,-4.7054,-4.7054,-4.7305,-4.7757,-4.7757,-4.7506,-4.7054,-4.7054,-4.6778,-4.6301,-4.6301,-4.6301,-4.6301,-4.6301,-4.6301,-4.6301,-4.6301,-4.6301,-4.6301,-4.846,-4.9038,-4.9464,-4.9565,-4.959,-4.959,-4.959,-4.959,-4.959,-4.959,-4.959,-4.959,-4.959,-4.959,-4.959,-4.959,-4.9213,-4.8912,-4.8786,-4.8887,-4.9088,-4.9414,-4.954,-4.959,-4.959,-4.959,-4.959,-4.959,-4.959,-4.959,-4.959,-4.959,-4.959,-4.959,-4.959,-4.959,-4.959,-4.959,-4.959,-4.959,-4.959,-4.959,-4.959,-4.959,-4.959,-4.959,-4.959,-4.959,-4.959,-4.959,-4.959,-4.959,-4.959,-4.959,-4.9565,-4.9464,-4.9414,-4.9414,-4.9414,-4.9414,-4.9339,-4.9038,-4.8761,-4.8636,-4.8837,-4.856,-4.8259,-4.8385,-4.7732,-4.7179,-4.728,-4.6954,-4.6652,-4.6652,-4.6652,-4.6652,-4.6652,-4.6652,-4.6652,-4.6652,-4.6652,-4.6652,-4.6652,-4.6652,-4.6602,-4.6502,-4.6878,-4.6903,-4.6351,-4.6728,-4.6753,-4.6326,-4.6426,-4.6426,-4.6301,-4.6426,-4.6502,-4.6502,-4.6502,-4.6552,-4.6652,-4.6652,-4.6602,-4.6502,-4.6502,-4.6426,-4.6301,-4.6301,-4.6301,-4.6301,-4.6301,-4.6301,-4.6301,-4.6301,-4.6301,-4.6301,-4.8432,-4.8853,-4.9162,-4.9332,-4.9332,-4.9396,-4.959,-4.959,-4.959,-4.959,-4.959,-4.959,-4.959,-4.959,-4.949,-4.9213,-4.8937,-4.8661,-4.8385,-4.8862,-4.9163,-4.9213,-4.9464,-4.959,-4.959,-4.959,-4.959,-4.959,-4.959,-4.959,-4.959,-4.959,-4.959,-4.959,-4.959,-4.959,-4.959,-4.959,-4.959,-4.959,-4.959,-4.959,-4.959,-4.959,-4.959,-4.959,-4.959,-4.959,-4.959,-4.959,-4.959,-4.959,-4.959,-4.959,-4.959,-4.959,-4.959,-4.959,-4.959,-4.959,-4.9515,-4.9238,-4.9163,-4.9088,-4.8837,-4.856,-4.8435,-4.8711,-4.8309,-4.7908,-4.7908,-4.7682,-4.7405,-4.7129,-4.7079,-4.7079,-4.7079,-4.7079,-4.7079,-4.7079,-4.7079,-4.7079,-4.7079,-4.7079,-4.6979,-4.6728,-4.6979,-4.6903,-4.6351,-4.6577,-4.6602,-4.6326,-4.6301,-4.6301,-4.6301,-4.6301,-4.6301,-4.6301,-4.6301,-4.6301,-4.6301,-4.6301,-4.6301,-4.6301,-4.6301,-4.6301,-4.6301,-4.6301,-4.6301,-4.6301,-4.6301,-4.6301,-4.6301,-4.6301,-4.6301,-4.6301,-4.811,-4.8281,-4.8445,-4.8747,-4.8853,-4.9072,-4.9461,-4.9525,-4.959,-4.959,-4.9525,-4.95,-4.94,-4.93,-4.9049,-4.8598,-4.8636,-4.846,-4.8083,-4.8937,-4.9289,-4.8937,-4.9339,-4.959,-4.959,-4.959,-4.959,-4.959,-4.959,-4.959,-4.959,-4.959,-4.959,-4.959,-4.959,-4.959,-4.959,-4.959,-4.959,-4.959,-4.959,-4.959,-4.959,-4.959,-4.959,-4.959,-4.959,-4.959,-4.959,-4.959,-4.959,-4.959,-4.959,-4.959,-4.959,-4.959,-4.959,-4.959,-4.959,-4.959,-4.959,-4.959,-4.959,-4.9339,-4.841,-4.8134,-4.8184,-4.8686,-4.8686,-4.8636,-4.8636,-4.8636,-4.8435,-4.7857,-4.7782,-4.7732,-4.7657,-4.7631,-4.7631,-4.7631,-4.7631,-4.7631,-4.7631,-4.7631,-4.7456,-4.7029,-4.6943,-4.6803,-4.6326,-4.6301,-4.6301,-4.6301,-4.6301,-4.6301,-4.6301,-4.6301,-4.6301,-4.6301,-4.6301,-4.6301,-4.6301,-4.6301,-4.6301,-4.6301,-4.6301,-4.6301,-4.6301,-4.6301,-4.6301,-4.6301,-4.6301,-4.6301,-4.6301,-4.6301,-4.6301,-4.6301,-4.7979,-4.7557,-4.7274,-4.763,-4.7936,-4.8396,-4.9072,-4.9396,-4.959,-4.959,-4.9332,-4.9028,-4.8554,-4.8056,-4.7757,-4.7682,-4.7908,-4.8209,-4.8636,-4.8786,-4.9063,-4.9464,-4.9565,-4.959,-4.959,-4.959,-4.959,-4.959,-4.959,-4.959,-4.959,-4.959,-4.959,-4.959,-4.959,-4.959,-4.959,-4.959,-4.959,-4.959,-4.959,-4.959,-4.959,-4.959,-4.959,-4.959,-4.959,-4.959,-4.959,-4.959,-4.959,-4.959,-4.959,-4.959,-4.959,-4.959,-4.959,-4.959,-4.959,-4.959,-4.959,-4.959,-4.959,-4.9565,-4.9414,-4.8987,-4.8686,-4.8761,-4.836,-4.8033,-4.8033,-4.8033,-4.7857,-4.733,-4.723,-4.7079,-4.6602,-4.6527,-4.6527,-4.6527,-4.6527,-4.6527,-4.6527,-4.6527,-4.6502,-4.6426,-4.6426,-4.6401,-4.6301,-4.6301,-4.6301,-4.6301,-4.6301,-4.6301,-4.6301,-4.6301,-4.6301,-4.6301,-4.6301,-4.6301,-4.6301,-4.6301,-4.6301,-4.6301,-4.6301,-4.6301,-4.6301,-4.6301,-4.6301,-4.6301,-4.6301,-4.6301,-4.6301,-4.6301,-4.6301,-4.6301,-4.7088,-4.654,-4.6136,-4.6563,-4.7008,-4.7606,-4.8158,-4.8682,-4.8967,-4.8747,-4.8346,-4.7856,-4.7223,-4.6382,-4.6144,-4.6816,-4.6967,-4.7467,-4.8444,-4.8807,-4.9146,-4.959,-4.959,-4.959,-4.959,-4.959,-4.959,-4.959,-4.959,-4.959,-4.959,-4.959,-4.959,-4.959,-4.959,-4.959,-4.959,-4.959,-4.959,-4.959,-4.959,-4.959,-4.959,-4.959,-4.959,-4.959,-4.959,-4.959,-4.959,-4.959,-4.959,-4.959,-4.959,-4.959,-4.959,-4.959,-4.959,-4.959,-4.959,-4.959,-4.959,-4.959,-4.959,-4.959,-4.959,-4.9414,-4.9238,-4.9238,-4.9038,-4.8761,-4.846,-4.8385,-4.8209,-4.7657,-4.7556,-4.738,-4.6853,-4.6778,-4.6652,-4.6351,-4.6301,-4.6301,-4.6301,-4.6301,-4.6301,-4.6301,-4.6301,-4.6301,-4.6301,-4.6301,-4.6301,-4.6301,-4.6301,-4.6301,-4.6301,-4.6301,-4.6301,-4.6301,-4.6301,-4.6301,-4.6301,-4.6301,-4.6301,-4.6301,-4.6301,-4.6301,-4.6301,-4.6301,-4.6301,-4.6301,-4.6301,-4.6301,-4.6301,-4.6301,-4.6301,-4.6301]},{"header":{"parameterUnit":"m.s-1","parameterCategory":1,"la1":30.6,"la2":28.766,"lo1":-90.7593,"lo2":-88.6598,"dy":0.0162,"dx":0.0183,"nx":116,"ny":114,"refTime":"2024-04-25T06:00:00:Z","depth":0,"parameterNumber":3,"parameterNumberName":"V-component_of_WINDS"},"data":[0.0,0.0,0.0,0.0,0.0,0.0,0.0,0.0,0.0,0.0,0.0,0.0,0.0,0.0,0.0,0.0,0.0,0.0,0.0,0.0,0.0,0.0,0.0,0.0,0.0,0.0,0.0,0.0,0.0,0.0,0.0,0.0,0.0,0.0,0.0,0.0,0.0,0.0,0.0,0.0,0.0,0.0,0.0,0.0,0.0,0.0,0.0,0.0,0.0,0.0,0.0,0.0,0.0,0.0,0.0,0.0,0.0,0.0,0.0,0.0,0.0,0.0,0.0,0.0,0.0,0.0,0.0,0.0,0.0,0.0,0.0,0.0,0.0,0.0,0.0,0.0,0.0,0.0,0.0,0.0,0.0,0.0,0.0,0.0,0.0,0.0,0.0,0.0,0.0,0.0,0.0,0.0,0.0,0.0,0.0,0.0,0.0,0.0,0.0,0.0,0.0,0.0,0.0,0.0,0.0,0.0,0.0,0.0,0.0,0.0,0.0,0.0,0.0,0.0,0.0,0.0,0.0,0.0,0.0,0.0,0.0,0.0,0.0,0.0,0.0,0.0,0.0,0.0,0.0,0.0,0.0,0.0,0.0,0.0,0.0,0.0,0.0,0.0,0.0,0.0,0.0,0.0,0.0,0.0,0.0,0.0,0.0,0.0,0.0,0.0,0.0,0.0,0.0,0.0,0.0,0.0,0.0,0.0,0.0,0.0,0.0,0.0,0.0,0.0,0.0,0.0,0.0,0.0,0.0,0.0,0.0,0.0,0.0,0.0,0.0,0.0,0.0,0.0,0.0,0.0,0.0,0.0,0.0,0.0,0.0,0.0,0.0,0.0,0.0,0.0,0.0,0.0,0.0,0.0,0.0,0.0,0.0,0.0,0.0,0.0,0.0,0.0,0.0,0.0,0.0,0.0,0.0,0.0,0.0,0.0,0.0,0.0,0.0,0.0,0.0,0.0,0.0,0.0,0.0,0.0,0.0,0.0,0.0,0.0,0.0,0.0,0.0,0.0,0.0,0.0,0.0,0.0,0.0,0.0,0.0,0.0,0.0,0.0,0.0,0.0,0.0,0.0,0.0,0.0,0.0,0.0,0.0,0.0,0.0,0.0,0.0,0.0,0.0,0.0,0.0,0.0,0.0,0.0,0.0,0.0,0.0,0.0,0.0,0.0,0.0,0.0,0.0,0.0,0.0,0.0,0.0,0.0,0.0,0.0,0.0,0.0,0.0,0.0,0.0,0.0,0.0,0.0,0.0,0.0,0.0,0.0,0.0,0.0,0.0,0.0,0.0,0.0,0.0,0.0,0.0,0.0,0.0,0.0,0.0,0.0,0.0,0.0,0.0,0.0,0.0,0.0,0.0,0.0,0.0,0.0,0.0,0.0,0.0,0.0,0.0,0.0,0.0,0.0,0.0,0.0,0.0,0.0,0.0,0.0,0.0,0.0,0.0,0.0,0.0,0.0,0.0,0.0,0.0,0.0,0.0,0.0,0.0,0.0,0.0,0.0,0.0,0.0,0.0,0.0,0.0,0.0,0.0,0.0,0.0,0.0,0.0,0.0,0.0,0.0,0.0,0.0,0.0,0.0,0.0,0.0,0.0,0.0,0.0,0.0,0.0,0.0,0.0,0.0,0.0,0.0,0.0,0.0,0.0,0.0,0.0,0.0,0.0,0.0,0.0,0.0,0.0,0.0,0.0,0.0,0.0,0.0,0.0,0.0,0.0,0.0,0.0,0.0,0.0,0.0,0.0,0.0,0.0,0.0,0.0,0.0,0.0,0.0,0.0,0.0,0.0,0.0,0.0,0.0,0.0,0.0,0.0,0.0,0.0,0.0,0.0,0.0,0.0,0.0,0.0,0.0,0.0,0.0,0.0,0.0,0.0,0.0,0.0,0.0,0.0,0.0,0.0,0.0,0.0,0.0,0.0,0.0,0.0,0.0,0.0,0.0,0.0,0.0,0.0,0.0,0.0,0.0,0.0,0.0,0.0,0.0,0.0,0.0,0.0,0.0,0.0,0.0,0.0,0.0,0.0,0.0,0.0,0.0,0.0,0.0,0.0,0.0,0.0,0.0,0.0,0.0,0.0,0.0,0.0,0.0,0.0,0.0,0.0,0.0,0.0,0.0,0.0,0.0,0.0,0.0,0.0,0.0,0.0,0.0,0.0,0.0,0.0,0.0,0.0,0.0,0.0,0.0,0.0,0.0,0.0,0.0,0.0,0.0,0.0,0.0,0.0,0.0,0.0,0.0,0.0,0.0,0.0,0.0,0.0,0.0,0.0,0.0,0.0,0.0,0.0,0.0,0.0,0.0,0.0,0.0,0.0,0.0,0.0,0.0,0.0,0.0,0.0,0.0,0.0,0.0,0.0,0.0,0.0,0.0,0.0,0.0,0.0,0.0,0.0,0.0,0.0,0.0,0.0,0.0,0.0,0.0,0.0,0.0,0.0,0.0,0.0,0.0,0.0,0.0,0.0,0.0,0.0,0.0,0.0,0.0,0.0,0.0,0.0,0.0,0.0,0.0,0.0,0.0,0.0,0.0,0.0,0.0,0.0,0.0,0.0,0.0,0.0,0.0,0.0,0.0,0.0,0.0,0.0,0.0,0.0,0.0,0.0,0.0,0.0,0.0,0.0,0.0,0.0,0.0,0.0,0.0,0.0,0.0,0.0,0.0,0.0,0.0,0.0,0.0,0.0,0.0,0.0,0.0,0.0,0.0,0.0,0.0,0.0,0.0,0.0,0.0,0.0,0.0,0.0,0.0,0.0,0.0,0.0,0.0,0.0,0.0,0.0,0.0,0.0,0.0,0.0,0.0,0.0,0.0,0.0,0.0,0.0,0.0,0.0,0.0,0.0,0.0,0.0,0.0,0.0,0.0,0.0,0.0,0.0,0.0,0.0,0.0,0.0,0.0,0.0,0.0,0.0,0.0,0.0,0.0,0.0,0.0,0.0,0.0,0.0,0.0,0.0,0.0,0.0,0.0,0.0,0.0,0.0,0.0,0.0,0.0,0.0,0.0,0.0,0.0,0.0,0.0,0.0,0.0,0.0,0.0,0.0,0.0,0.0,0.0,0.0,0.0,0.0,0.0,0.0,0.0,0.0,0.0,0.0,0.0,0.0,0.0,0.0,0.0,0.0,0.0,0.0,0.0,0.0,0.0,0.0,0.0,0.0,0.0,0.0,0.0,0.0,0.0,0.0,0.0,0.0,0.0,0.0,0.0,0.0,0.0,0.0,0.0,0.0,0.0,0.0,0.0,0.0,0.0,0.0,0.0,0.0,0.0,0.0,0.0,0.0,0.0,0.0,0.0,0.0,0.0,0.0,0.0,0.0,0.0,0.0,0.0,0.0,0.0,0.0,0.0,0.0,0.0,0.0,0.0,0.0,0.0,0.0,0.0,0.0,0.0,0.0,0.0,0.0,0.0,0.0,0.0,0.0,0.0,0.0,0.0,0.0,0.0,0.0,0.0,0.0,0.0,0.0,0.0,0.0,0.0,0.0,0.0,0.0,0.0,0.0,0.0,0.0,0.0,0.0,0.0,0.0,0.0,0.0,0.0,0.0,0.0,0.0,0.0,0.0,0.0,0.0,0.0,0.0,0.0,0.0,0.0,0.0,0.0,0.0,0.0,0.0,0.0,0.0,0.0,0.0,0.0,0.0,0.0,0.0,0.0,0.0,0.0,0.0,0.0,0.0,0.0,0.0,0.0,0.0,0.0,0.0,0.0,0.0,0.0,0.0,0.0,0.0,0.0,0.0,0.0,0.0,0.0,0.0,0.0,0.0,0.0,0.0,0.0,0.0,0.0,0.0,0.0,0.0,0.0,0.0,0.0,0.0,0.0,0.0,0.0,0.0,0.0,0.0,0.0,0.0,0.0,0.0,0.0,0.0,0.0,0.0,0.0,0.0,0.0,0.0,0.0,0.0,0.0,0.0,0.0,0.0,0.0,0.0,0.0,0.0,0.0,0.0,0.0,0.0,0.0,0.0,0.0,0.0,0.0,0.0,0.0,0.0,0.0,0.0,0.0,0.0,0.0,0.0,0.0,0.0,0.0,0.0,0.0,0.0,0.0,0.0,0.0,0.0,0.0,0.0,0.0,0.0,0.0,0.0,0.0,0.0,0.0,0.0,0.0,0.0,0.0,0.0,0.0,0.0,0.0,0.0,0.0,0.0,0.0,0.0,0.0,0.0,0.0,0.0,0.0,0.0,0.0,0.0,0.0,0.0,0.0,0.0,0.0,0.0,0.0,0.0,0.0,0.0,0.0,0.0,0.0,0.0,0.0,0.0,0.0,0.0,0.0,0.0,0.0,0.0,0.0,0.0,0.0,0.0,0.0,0.0,0.0,0.0,0.0,0.0,0.0,0.0,0.0,0.0,0.0,0.0,0.0,0.0,0.0,0.0,0.0,0.0,0.0,0.0,0.0,0.0,0.0,0.0,0.0,0.0,0.0,0.0,0.0,0.0,0.0,0.0,0.0,0.0,0.0,0.0,0.0,0.0,0.0,0.0,0.0,0.0,0.0,0.0,0.0,0.0,0.0,0.0,0.0,0.0,0.0,0.0,0.0,0.0,0.0,0.0,0.0,0.0,0.0,0.0,0.0,0.0,0.0,0.0,0.0,0.0,0.0,0.0,0.0,0.0,0.0,0.0,0.0,0.0,0.0,0.0,0.0,0.0,0.0,0.0,0.0,0.0,0.0,0.0,0.0,0.0,0.0,0.0,0.0,0.0,0.0,0.0,0.0,0.0,0.0,0.0,0.0,0.0,0.0,0.0,0.0,0.0,0.0,0.0,0.0,0.0,0.0,0.0,0.0,0.0,0.0,0.0,0.0,0.0,0.0,0.0,0.0,0.0,0.0,0.0,0.0,0.0,0.0,0.0,0.0,0.0,0.0,0.0,0.0,0.0,0.0,0.0,0.0,0.0,0.0,0.0,0.0,0.0,0.0,0.0,0.0,0.0,0.0,0.0,0.0,0.0,0.0,0.0,0.0,0.0,0.0,0.0,0.0,0.0,0.0,0.0,0.0,0.0,0.0,0.0,0.0,0.0,0.0,0.0,0.0,0.0,0.0,0.0,0.0,0.0,0.0,0.0,0.0,0.0,0.0,0.0,0.0,0.0,0.0,0.0,0.0,0.0,0.0,0.0,0.0,0.0,0.0,0.0,0.0,0.0,0.0,0.0,0.0,0.0,0.0,0.0,0.0,0.0,0.0,0.0,0.0,0.0,0.0,0.0,0.0,0.0,0.0,0.0,0.0,0.0,0.0,0.0,0.0,0.0,0.0,0.0,0.0,0.0,0.0,0.0,0.0,0.0,0.0,0.0,0.0,0.0,0.0,0.0,0.0,0.0,0.0,0.0,0.0,0.0,0.0,0.0,0.0,0.0,0.0,0.0,0.0,0.0,0.0,0.0,0.0,0.0,0.0,0.0,0.0,0.0,0.0,0.0,0.0,0.0,0.0,0.0,0.0,0.0,0.0,0.0,0.0,0.0,0.0,0.0,0.0,0.0,0.0,0.0,0.0,0.0,0.0,0.0,0.0,0.0,0.0,0.0,0.0,0.0,0.0,0.0,0.0,0.0,0.0,0.0,0.0,0.0,0.0,0.0,0.0,0.0,0.0,0.0,0.0,0.0,0.0,0.0,0.0,0.0,0.0,0.0,0.0,0.0,0.0,0.0,0.0,0.0,0.0,0.0,0.0,0.0,0.0,0.0,0.0,0.0,0.0,0.0,0.0,0.0,0.0,0.0,0.0,0.0,0.0,0.0,0.0,0.0,0.0,0.0,0.0,0.0,0.0,0.0,0.0,0.0,0.0,0.0,0.0,0.0,0.0,0.0,0.0,0.0,0.0,0.0,0.0,0.0,0.0,0.0,0.0,0.0,0.0,0.0,0.0,0.0,0.0,0.0,0.0,0.0,0.0,0.0,0.0,0.0,0.0,0.0,0.0,0.0,0.0,0.0,0.0,0.0,0.0,0.0,0.0,0.0,0.0,0.0,0.0,0.0,0.0,0.0,0.0,0.0,0.0,0.0,0.0,0.0,0.0,0.0,0.0,0.0,0.0,0.0,0.0,0.0,0.0,0.0,0.0,0.0,0.0,0.0,0.0,3.3943,0.0,0.0,0.0,0.0,0.0,0.0,0.0,0.0,0.0,0.0,0.0,0.0,0.0,0.0,0.0,0.0,0.0,0.0,0.0,0.0,0.0,0.0,0.0,0.0,3.6444,3.6381,3.6318,3.6284,3.6456,3.6835,3.7271,3.7823,3.8525,3.9284,3.9847,4.0156,4.045,4.0655,4.0799,4.0655,4.0704,4.0894,4.0894,4.0894,4.0894,0.0,0.0,0.0,0.0,0.0,0.0,0.0,0.0,0.0,0.0,0.0,0.0,0.0,0.0,0.0,0.0,0.0,0.0,0.0,0.0,0.0,0.0,0.0,0.0,0.0,0.0,0.0,0.0,0.0,0.0,0.0,0.0,0.0,0.0,0.0,0.0,0.0,0.0,0.0,0.0,0.0,0.0,0.0,0.0,0.0,0.0,0.0,0.0,0.0,0.0,0.0,0.0,0.0,0.0,0.0,0.0,0.0,0.0,0.0,0.0,0.0,0.0,0.0,0.0,0.0,0.0,0.0,0.0,0.0,0.0,0.0,3.4592,0.0,0.0,0.0,0.0,0.0,0.0,0.0,0.0,0.0,0.0,0.0,0.0,0.0,0.0,0.0,0.0,0.0,0.0,0.0,0.0,0.0,3.6464,3.6464,3.6381,3.6284,3.6284,3.6422,3.6801,3.7478,3.7754,3.8422,3.9606,3.9813,4.0145,4.068,4.0558,4.0583,4.0704,4.0607,4.068,4.0894,4.0894,4.0894,4.0894,4.0894,0.0,0.0,0.0,0.0,0.0,0.0,0.0,0.0,0.0,0.0,0.0,0.0,0.0,0.0,0.0,0.0,0.0,0.0,0.0,0.0,0.0,0.0,0.0,0.0,0.0,0.0,0.0,0.0,0.0,0.0,0.0,0.0,0.0,0.0,0.0,0.0,0.0,0.0,0.0,0.0,0.0,0.0,0.0,0.0,0.0,0.0,0.0,0.0,0.0,0.0,0.0,0.0,0.0,0.0,0.0,0.0,0.0,0.0,0.0,0.0,0.0,0.0,0.0,3.7701,3.7701,3.7853,3.7853,3.7853,3.7796,3.6137,3.5311,3.5085,0.0,0.0,0.0,0.0,0.0,0.0,0.0,0.0,0.0,0.0,0.0,0.0,0.0,0.0,0.0,0.0,0.0,0.0,0.0,0.0,3.6339,3.6339,3.6305,3.6284,3.6284,3.6939,3.7409,3.7512,3.872,3.9445,3.9512,4.0188,4.0601,4.0714,4.0558,4.0631,4.0871,4.0847,4.0847,4.0894,4.0894,4.0894,4.0894,4.0894,4.0858,4.0714,0.0,0.0,0.0,0.0,0.0,0.0,0.0,0.0,0.0,0.0,0.0,0.0,0.0,0.0,0.0,0.0,0.0,0.0,0.0,0.0,0.0,0.0,0.0,0.0,0.0,0.0,0.0,0.0,0.0,0.0,0.0,0.0,0.0,0.0,0.0,0.0,0.0,0.0,0.0,0.0,0.0,3.7614,3.8182,0.0,0.0,0.0,0.0,0.0,0.0,0.0,0.0,0.0,0.0,0.0,0.0,0.0,3.7853,3.7853,3.7663,3.7586,3.7663,3.7625,3.7625,3.7663,3.7663,3.7739,3.7891,3.7605,0.0,3.7177,3.6609,0.0,0.0,0.0,0.0,0.0,0.0,0.0,0.0,0.0,0.0,0.0,0.0,0.0,0.0,0.0,0.0,0.0,0.0,0.0,0.0,0.0,3.6284,3.649,3.6939,3.7305,3.7858,3.8663,3.9319,3.9859,4.0165,4.0508,4.0655,4.0583,4.0534,4.0583,4.0776,4.0847,4.1101,4.1516,4.1516,4.1757,4.2171,4.2171,4.1891,4.1366,4.1594,0.0,0.0,0.0,0.0,0.0,0.0,0.0,0.0,0.0,0.0,0.0,0.0,0.0,0.0,0.0,0.0,0.0,0.0,0.0,0.0,0.0,0.0,0.0,0.0,0.0,0.0,0.0,0.0,0.0,0.0,0.0,0.0,0.0,0.0,0.0,0.0,0.0,0.0,0.0,3.8506,3.8631,3.8931,3.896,3.908,0.0,0.0,0.0,0.0,0.0,0.0,0.0,0.0,0.0,3.8315,3.8165,3.8081,3.8081,3.7976,3.7938,3.7938,3.7938,3.7938,3.7938,3.7938,3.7976,3.8081,3.8081,3.8043,3.7863,3.7289,3.6744,3.6163,0.0,0.0,0.0,0.0,3.2925,3.2525,0.0,0.0,0.0,0.0,0.0,0.0,0.0,0.0,0.0,0.0,0.0,0.0,3.6284,3.6284,3.6628,3.7443,3.7685,3.8341,3.9629,3.9871,4.018,4.0631,4.0631,4.0583,4.0461,4.051,4.0607,4.0762,4.1054,4.1481,4.1999,4.2206,4.262,4.3207,4.3414,4.2984,4.2205,4.2603,4.255,4.2153,0.0,0.0,0.0,0.0,0.0,0.0,0.0,0.0,0.0,0.0,0.0,0.0,0.0,0.0,0.0,0.0,0.0,0.0,0.0,0.0,0.0,0.0,0.0,0.0,0.0,0.0,0.0,0.0,0.0,0.0,0.0,0.0,0.0,0.0,0.0,0.0,0.0,3.9373,3.9373,3.9373,3.9337,3.9301,0.0,0.0,0.0,0.0,0.0,0.0,3.8689,3.8652,3.8702,3.8696,3.8696,3.8696,3.8696,3.8696,3.8696,3.8696,3.8696,3.8696,3.8696,3.862,3.862,3.862,3.8543,3.8505,3.8476,3.77,3.7134,3.6705,3.5871,3.5182,3.4688,3.4314,3.3852,3.3386,0.0,0.0,0.0,0.0,0.0,0.0,0.0,0.0,0.0,0.0,0.0,3.6284,3.6284,3.6284,3.6628,3.7443,3.8134,3.887,3.9629,4.0446,4.0741,4.0534,4.051,4.0436,4.0313,4.0534,4.0762,4.0871,4.1619,4.1964,4.2033,4.2792,4.3172,4.3241,4.3931,4.3828,4.3113,4.3021,4.2792,4.2438,4.2045,0.0,0.0,0.0,0.0,0.0,0.0,0.0,0.0,0.0,0.0,0.0,0.0,0.0,0.0,0.0,0.0,0.0,0.0,0.0,0.0,0.0,0.0,0.0,0.0,0.0,0.0,0.0,0.0,0.0,0.0,0.0,0.0,0.0,0.0,0.0,0.0,0.0,0.0,3.9373,3.9228,0.0,0.0,0.0,0.0,3.853,3.8352,3.8501,3.9131,3.916,3.9421,3.9973,4.0002,4.0002,4.0002,4.0002,4.0002,4.0002,4.0002,4.0002,4.0002,3.9794,3.9715,3.9715,3.9505,3.9424,3.9339,3.8072,3.7356,3.69,3.623,3.5467,3.4688,3.4481,3.3979,3.3386,0.0,0.0,0.0,0.0,0.0,3.6643,3.6541,3.6402,3.6284,3.6284,3.6284,3.6284,3.6284,3.6766,3.7353,3.8134,3.887,3.9606,4.0305,4.0614,4.0631,4.0387,4.0362,4.0387,4.0436,4.1062,4.1474,4.1619,4.2378,4.3034,4.3483,4.3759,4.4147,4.463,4.4906,4.4872,4.463,4.4466,4.4308,4.4068,4.363,4.3089,0.0,0.0,0.0,0.0,0.0,0.0,0.0,0.0,0.0,0.0,0.0,0.0,0.0,0.0,0.0,0.0,0.0,0.0,0.0,0.0,0.0,0.0,0.0,0.0,0.0,0.0,0.0,0.0,0.0,0.0,0.0,0.0,0.0,0.0,0.0,0.0,0.0,3.9373,3.9505,0.0,3.9736,3.9753,3.9691,3.9691,3.9537,3.9538,3.977,3.977,3.9886,4.0089,4.0089,4.0089,4.0089,3.996,3.9921,3.9921,3.979,3.9711,3.9711,3.9441,3.9361,3.9321,3.8956,3.8792,3.8723,3.799,3.7653,3.7489,3.6687,3.5872,3.51,3.4605,3.4063,3.3556,0.0,0.0,0.0,3.6806,3.6684,3.6582,3.6437,3.6276,3.6233,3.6255,3.6276,3.6276,3.6318,3.7008,3.7823,3.8548,3.9239,3.9926,4.0597,4.0583,4.0495,4.0238,4.0263,4.0523,4.0935,4.1488,4.199,4.2413,4.3207,4.3828,4.4311,4.4527,4.4941,4.5397,4.5397,4.5397,4.5397,4.5318,4.5177,4.5049,4.4659,4.4236,4.3651,0.0,0.0,0.0,0.0,0.0,0.0,0.0,0.0,0.0,0.0,0.0,0.0,0.0,0.0,0.0,0.0,0.0,0.0,0.0,0.0,0.0,0.0,0.0,0.0,0.0,0.0,0.0,0.0,0.0,0.0,0.0,0.0,0.0,0.0,0.0,3.9682,4.0001,4.0159,4.0237,4.0343,4.0391,4.0393,4.0315,4.0168,4.0205,4.0437,4.0437,4.0525,4.0757,4.0677,4.0636,4.0636,4.0435,4.0302,4.0192,4.0016,3.9852,3.9769,3.941,3.9215,3.9131,3.8753,3.8541,3.8413,3.8027,3.7803,3.7634,3.6916,3.6201,3.552,3.5015,3.4547,3.4117,0.0,3.6989,3.6946,3.6725,3.6582,3.6423,3.6225,3.6062,3.6041,3.6182,3.6204,3.6247,3.6353,3.7042,3.7836,3.856,3.9181,3.9819,4.0417,4.0362,4.0213,4.0113,4.0213,4.0753,4.1753,4.1812,4.2299,4.3241,4.3966,4.4345,4.4345,4.5079,4.5397,4.5397,4.5397,4.5397,4.5397,4.5397,4.5344,4.5177,4.5042,4.4631,4.4001,0.0,0.0,0.0,0.0,0.0,0.0,0.0,0.0,0.0,0.0,0.0,0.0,0.0,0.0,0.0,0.0,0.0,0.0,0.0,0.0,0.0,0.0,0.0,0.0,0.0,0.0,0.0,0.0,0.0,0.0,0.0,0.0,0.0,4.0516,4.0427,4.0666,4.1294,4.1224,4.1033,4.084,4.0676,4.0441,4.0147,4.0147,4.0437,4.1105,4.1134,4.1424,4.2063,4.1856,4.1702,4.1702,4.148,4.1269,4.0986,4.0801,4.0544,4.03,3.9821,3.9441,3.9193,3.8926,3.8702,3.845,3.8232,3.7825,3.7227,3.6857,3.6401,3.5991,3.5771,3.5442,3.5066,0.0,3.6851,3.6771,3.6602,3.6444,3.6297,3.6084,3.6019,3.6019,3.6041,3.6161,3.6453,3.7111,3.7747,3.8459,3.9215,3.9758,4.0084,4.0087,3.9935,3.9858,3.9807,4.0113,4.0703,4.1654,4.2437,4.3191,4.4,4.4734,4.5113,4.5113,4.5294,4.5397,4.5397,4.5397,4.5397,4.5397,4.5397,4.5371,4.5344,4.5177,4.4988,4.4659,0.0,0.0,0.0,0.0,0.0,0.0,0.0,0.0,0.0,0.0,0.0,0.0,0.0,0.0,0.0,0.0,0.0,0.0,0.0,0.0,0.0,0.0,0.0,0.0,0.0,0.0,0.0,0.0,0.0,0.0,0.0,4.1422,4.1324,4.1145,4.1002,4.1024,4.1354,4.1495,4.1489,4.145,4.1693,4.1784,4.1541,4.1541,4.1628,4.1802,4.1831,4.1918,4.2092,4.1856,4.1702,4.1702,4.1156,4.0955,4.1116,4.057,4.0359,4.0467,3.9559,3.9142,3.9024,3.8215,3.7848,3.7756,3.7526,3.7191,3.6847,3.6689,3.6311,3.5727,3.5398,3.5085,3.4816,0.0,3.671,3.6609,3.6444,3.6233,3.6019,3.58,3.5711,3.5711,3.5756,3.5866,3.6305,3.7234,3.7877,3.8504,3.9184,3.9747,3.991,3.954,3.9468,3.9494,3.9703,4.0341,4.1104,4.2023,4.2988,4.3855,4.4577,4.4997,4.5238,4.5238,4.5291,4.5318,4.5318,4.5371,4.5397,4.5397,4.5397,4.5371,4.5318,4.523,4.515,4.5015,4.4547,4.415,4.3831,4.3232,4.2803,4.2492,4.2301,0.0,0.0,0.0,0.0,0.0,0.0,0.0,0.0,0.0,0.0,0.0,0.0,0.0,0.0,0.0,0.0,0.0,0.0,0.0,0.0,0.0,0.0,0.0,0.0,4.2192,4.2192,4.2192,4.1906,4.1778,4.2162,4.2287,4.2327,4.2248,4.2441,4.2433,4.2257,4.2133,4.2092,4.2092,4.198,4.2055,4.2273,4.1894,4.1796,4.201,4.1315,4.1024,4.1158,4.0356,4.0081,4.0092,3.9302,3.8839,0.0,3.8122,3.7826,3.7658,3.7286,3.7042,0.0,0.0,0.0,0.0,0.0,3.5567,3.5403,3.6751,3.6588,3.6402,3.6276,3.5975,3.5644,3.5362,3.5281,3.5291,3.535,3.5487,3.5949,3.7024,3.7602,3.8197,3.8873,3.9353,3.9382,3.892,3.8925,3.9148,3.9573,4.0565,4.1594,4.2602,4.3439,4.4217,4.4934,4.4934,4.4934,4.4934,4.5069,4.515,4.515,4.5318,4.5344,4.5344,4.5344,4.5291,4.515,4.515,4.515,4.5123,4.4886,4.4581,4.4207,4.3772,4.3386,4.3082,4.2961,0.0,0.0,0.0,0.0,0.0,0.0,0.0,0.0,0.0,0.0,0.0,0.0,0.0,0.0,0.0,0.0,0.0,0.0,0.0,0.0,0.0,0.0,0.0,0.0,4.329,4.329,4.329,4.2851,4.2671,4.323,4.329,4.321,4.3021,4.2809,4.2607,4.2433,4.2216,4.2121,4.2138,0.0,0.0,0.0,0.0,4.1892,4.2379,4.1654,4.1202,4.1078,4.0224,3.9773,3.9563,3.9051,3.8683,3.8461,3.8385,3.8212,3.7965,3.7487,3.7236,3.7184,3.6796,3.6546,3.6405,3.6405,3.6405,3.6405,3.6506,3.636,3.6114,3.5932,3.5633,3.5314,3.5024,3.4977,3.4977,3.5001,3.5222,3.591,3.733,3.7504,3.7936,3.9075,3.9016,3.8761,3.8282,3.8432,3.86,3.8788,3.9972,4.109,4.2045,4.3003,4.3857,4.4603,4.4603,4.4603,4.4603,4.4803,4.4886,4.4886,4.5022,4.5103,4.5103,4.5103,4.5022,4.4886,4.4886,4.4886,4.4858,4.4631,4.4378,4.4097,4.3747,4.3386,4.3082,4.2961,4.265,4.2302,4.2109,4.1687,0.0,0.0,0.0,0.0,0.0,0.0,0.0,0.0,0.0,0.0,0.0,0.0,0.0,0.0,0.0,0.0,0.0,0.0,0.0,4.329,4.329,4.329,4.329,4.32,4.314,4.329,4.329,4.321,4.3021,4.2809,4.2607,4.2433,4.2216,4.2212,4.2493,4.2451,0.0,4.2716,4.2256,4.1952,4.1837,4.099,4.0621,4.0861,0.0,0.0,3.993,3.9196,3.8869,3.8793,3.8315,3.8064,3.799,3.7889,3.7588,3.7136,3.6679,3.6452,3.6405,3.6405,3.6405,3.6405,3.5941,3.5788,3.5667,3.5588,3.5234,3.4883,3.4643,3.4667,3.4667,3.4594,3.4811,3.5566,3.7045,3.7053,3.747,3.8625,3.8427,3.8177,3.8001,3.8119,3.8262,3.8455,3.9832,4.0842,4.1375,4.2613,4.3402,4.3798,4.3798,4.3827,4.3914,4.4174,4.435,4.4468,4.4659,4.4714,4.4631,4.4631,4.4519,4.4293,4.4236,4.4093,4.3977,4.4207,4.4093,4.3802,4.3565,4.3265,4.2959,4.293,4.2681,4.2333,4.2142,4.172,4.1256,0.0,0.0,0.0,0.0,0.0,0.0,0.0,0.0,0.0,0.0,0.0,0.0,0.0,0.0,4.329,4.329,0.0,4.329,4.329,4.329,4.329,4.329,4.329,4.329,4.329,4.329,4.321,4.3021,4.2809,4.2754,4.2831,4.2653,4.2691,4.3085,4.2854,4.2789,4.2918,4.2168,4.184,4.1903,4.1068,4.0664,4.0804,4.0156,3.9956,4.0058,3.9549,3.927,3.927,3.8969,3.8843,3.8818,3.8542,3.8115,3.7563,3.7287,3.6883,3.6405,3.6405,3.6405,3.6405,3.527,3.5142,3.5105,3.5175,3.4859,3.4521,3.425,3.4325,3.4325,3.4201,3.4399,3.5079,3.6488,3.6548,3.695,3.8072,3.786,3.7716,3.7833,3.786,3.7943,3.8173,3.9761,4.0655,4.0805,4.2239,4.3021,4.3021,4.3021,4.305,4.3171,4.3532,4.3739,4.3923,4.4207,4.4231,4.4121,4.4121,4.3919,4.3625,4.3505,4.3235,4.2959,4.3505,4.3565,4.3355,4.3078,4.2865,4.268,4.2681,4.2492,4.2206,4.2013,4.1621,4.1254,4.1242,4.1399,0.0,0.0,0.0,0.0,0.0,0.0,0.0,0.0,4.329,4.329,4.329,4.329,4.329,4.329,4.329,4.329,4.329,4.329,4.329,4.329,4.329,4.329,4.329,4.329,4.321,4.3021,4.2887,4.2937,4.3215,4.3108,4.3199,4.3528,4.3158,4.2901,4.2915,4.2045,4.1634,4.1868,4.1121,4.0744,4.0744,4.0236,4.0032,4.0032,3.98,3.9697,3.9697,3.9697,3.9697,3.9672,3.922,3.8693,3.8165,3.8165,3.7563,3.6707,3.6606,3.6505,3.6405,3.4667,3.4399,3.4349,3.4691,3.4521,3.425,3.4,3.3949,3.3924,3.3771,3.3899,3.4523,3.5943,3.6077,3.652,3.7677,3.7628,3.7539,3.7539,3.7658,3.7746,3.7743,3.9413,4.0333,4.0395,4.1873,4.2648,4.2648,4.2648,4.2648,4.268,4.3021,4.3204,4.3235,4.3532,4.3591,4.3413,4.3413,4.3232,4.2992,4.2992,4.2649,4.2238,4.2302,4.2397,4.2492,4.2078,4.1949,4.1884,4.1785,4.172,4.1654,4.1456,4.1256,4.1213,4.1596,4.1635,4.1669,4.1852,4.2115,4.2479,4.306,4.32,4.32,0.0,4.329,4.329,4.329,4.329,4.329,4.329,4.329,4.329,4.329,4.329,4.329,4.329,4.329,4.329,4.329,4.329,4.321,4.3021,4.3137,4.3186,4.3034,4.3128,4.3247,4.3392,4.3146,4.2868,4.2593,4.1985,4.1468,4.1021,4.0465,4.0185,4.0185,3.9878,3.9749,3.9749,3.9697,3.9697,3.9697,3.9697,3.9697,3.9697,3.9622,3.927,3.8768,3.8768,3.8391,3.7764,3.7287,3.6832,3.6405,3.43,3.405,3.3924,3.4101,3.4151,3.4101,3.3822,3.3848,3.3822,3.3591,3.3694,3.429,3.5591,3.6434,3.7049,3.7535,3.7539,3.751,3.751,3.7569,3.7599,3.7599,3.902,3.9845,3.9845,4.1278,4.2013,4.2013,4.2013,4.2077,4.2206,4.2429,4.2586,4.2711,4.2927,4.2927,4.2805,4.2805,4.2649,4.2397,4.2206,4.2013,4.1785,4.1456,4.139,4.1489,4.1491,4.1456,0.0,4.1321,4.1321,4.1288,4.1221,4.1333,4.1538,4.1713,4.2181,4.2652,4.291,4.2965,4.3,4.323,4.329,4.329,4.329,4.329,4.329,4.329,4.329,4.329,4.329,4.329,4.329,4.329,4.321,4.313,4.313,4.301,4.293,4.293,4.3164,4.3248,4.3166,4.2986,4.2983,4.3206,4.3133,4.3146,4.3294,4.2869,4.2479,4.2065,4.1348,4.095,4.0901,4.0513,4.0482,4.081,4.0704,4.0475,4.0174,4.0174,3.9998,3.9697,3.9697,3.9697,3.9697,3.9697,3.9546,3.9346,3.9346,3.8994,3.8442,3.7864,3.7513,3.7287,0.0,3.3771,3.3642,3.3642,3.3822,3.3899,3.3668,3.372,3.3694,3.3492,3.3545,3.408,3.5403,3.6527,3.7259,3.7478,3.751,3.751,3.751,3.751,3.751,3.751,3.8776,3.9503,3.9503,4.0862,4.1588,4.1588,4.1588,4.1654,4.1817,4.198,4.2141,4.227,4.2397,4.2397,4.227,4.227,4.2142,4.1948,4.1654,4.1489,4.139,4.0953,4.078,4.078,4.0987,4.1018,4.0916,4.0916,4.0916,4.0979,4.1165,4.15,4.1793,4.2129,4.2794,4.3427,4.3633,4.3518,4.329,4.329,4.329,4.329,4.329,4.329,4.329,4.329,4.329,4.329,4.329,4.325,4.321,4.321,4.301,4.285,4.285,4.2607,4.2503,4.2761,4.2869,4.301,4.3314,4.3041,4.2931,4.3082,4.2962,4.2861,4.2771,4.2333,4.1921,4.1583,4.0926,4.0746,4.1043,4.0832,4.0953,4.1275,4.1275,4.1075,4.0752,4.0752,4.045,3.9923,3.9923,3.9848,3.9697,3.9697,3.9697,3.9697,3.9697,3.9446,3.9044,3.8617,3.8266,3.7939,0.0,0.0,3.3519,3.3519,3.3617,3.3668,3.3545,3.3519,3.3466,3.3335,3.3309,3.3846,3.5264,3.6026,3.6722,3.7447,3.751,3.751,3.751,3.751,3.751,3.751,3.8776,3.9503,3.9503,4.0862,4.1588,4.1588,4.1588,4.1588,4.1621,4.1817,4.1914,4.1947,4.2077,4.2045,4.1914,4.1914,4.1784,4.1588,4.139,4.1254,4.1083,4.0882,4.0681,4.0505,4.0539,4.0539,4.0539,4.0539,4.0539,4.0662,4.134,4.1586,4.1797,4.2904,4.3449,4.3714,4.3675,4.3518,4.329,4.329,4.329,4.329,4.329,4.329,4.329,4.329,4.329,4.329,4.329,4.317,4.3021,4.3021,4.2688,4.2433,4.2433,4.2034,4.2058,4.2876,4.2367,4.2329,0.0,4.3385,4.3092,4.2375,4.2445,4.2284,4.1796,4.1471,4.1331,4.1311,4.1051,4.0991,4.1304,4.125,4.1275,4.1275,4.1275,4.1275,4.125,4.125,4.0949,4.0501,4.0501,4.0199,3.9697,3.9697,3.9697,3.9697,3.9697,3.9697,3.9672,3.9647,3.8944,3.8015,0.0,0.0,0.0,0.0,0.0,3.344,3.3388,3.3466,3.3435,3.3335,3.4099,0.0,0.0,0.0,0.0,0.0,3.751,3.751,3.751,3.751,3.751,3.751,3.8776,3.9503,3.9503,4.0862,4.1588,4.1588,4.1588,4.1588,4.1588,4.1654,4.1719,4.1719,4.1753,4.1753,4.1719,4.1719,4.1654,4.1555,4.1288,4.112,4.1083,4.0746,4.0574,4.0505,0.0,4.0505,4.0505,4.0505,4.0812,4.1243,4.1321,4.199,4.2836,4.338,4.3642,4.3636,4.3478,4.3369,4.329,4.329,4.329,4.329,4.329,4.329,4.329,4.329,4.321,4.313,4.313,4.2809,4.2607,4.2607,4.2146,4.1731,4.1731,4.1198,4.1013,4.1749,4.148,0.0,0.0,0.0,0.0,4.1941,4.1614,4.1272,4.0896,4.0978,4.1028,4.0999,4.1117,4.1436,4.1882,4.1882,4.2057,4.2434,4.2057,4.1882,4.1856,4.1505,4.1175,4.1,4.1,4.0752,4.0249,4.0249,4.0023,3.9697,3.9697,3.9697,3.9697,3.9697,3.9446,3.9069,0.0,0.0,0.0,0.0,0.0,0.0,0.0,0.0,0.0,0.0,0.0,0.0,0.0,0.0,0.0,0.0,0.0,3.751,3.751,3.751,3.751,3.751,3.8555,3.925,3.9503,4.064,4.1336,4.1588,4.1588,4.1588,4.1588,4.1588,4.1588,4.1588,4.1588,4.1588,4.1588,4.1588,4.1555,4.1456,4.1187,4.1083,4.095,4.0643,4.0505,0.0,4.0505,4.0505,4.0505,4.0505,4.0931,4.1444,4.1551,4.2413,4.3479,4.3633,4.3636,4.3518,4.3329,4.329,4.329,4.329,4.329,4.329,4.329,4.325,4.321,4.321,4.297,4.2769,4.2659,4.224,4.1868,4.1785,4.1198,4.0773,4.0773,4.0336,4.0254,4.0931,4.0862,4.0935,0.0,0.0,0.0,4.1272,4.0846,4.0568,4.0491,4.0665,4.094,4.1344,4.1537,4.1882,4.2489,4.2514,4.269,4.2961,4.2665,4.2514,4.2489,4.2082,4.1806,4.163,4.163,4.1304,4.0802,4.0802,4.0475,3.9998,3.9998,3.9873,3.9697,3.9697,3.9697,3.9647,0.0,0.0,0.0,0.0,0.0,0.0,0.0,0.0,0.0,0.0,0.0,0.0,0.0,0.0,0.0,0.0,0.0,0.0,3.748,3.748,3.748,3.748,3.8144,3.8777,3.9439,4.0198,4.0893,4.1525,4.1557,4.1588,4.1588,4.1588,4.1588,4.1588,4.1588,4.1588,4.1588,4.1588,4.1456,4.129,4.112,4.095,4.0749,4.0574,4.0505,4.0505,4.0505,4.0505,4.0536,4.0536,4.0892,4.1418,4.2157,4.2955,4.3675,4.3675,4.3518,4.329,4.329,4.329,4.329,4.329,4.329,4.329,4.329,4.313,4.2981,4.2941,4.2648,4.224,4.2005,4.1352,4.0873,4.0617,4.0012,3.9574,3.9574,3.9464,3.9687,4.0535,4.0456,4.0595,4.1169,0.0,0.0,4.0466,0.0,4.0259,4.0475,4.0576,4.1078,4.2187,4.2238,4.2514,4.2961,4.2986,4.2986,4.2986,4.2986,4.2986,4.2986,4.2986,4.274,4.2263,4.2263,4.1882,4.1326,4.1326,4.1053,4.0551,4.0551,4.0224,3.9747,3.9747,3.9722,3.9697,0.0,0.0,0.0,0.0,0.0,0.0,0.0,0.0,0.0,0.0,0.0,0.0,0.0,0.0,0.0,0.0,0.0,0.0,3.73,3.7181,3.7181,3.727,3.7962,3.8464,3.8776,3.9977,4.0672,4.0862,4.1336,4.1588,4.1588,4.1588,4.1588,4.1588,4.1588,4.1522,4.139,4.139,4.129,4.112,4.095,4.0848,4.0749,4.0574,4.0505,4.0505,4.0505,4.0743,4.1036,4.1238,4.1862,4.2629,4.3144,4.3365,4.3369,4.3369,4.3329,4.329,4.329,4.329,4.329,4.329,4.329,4.325,4.313,4.293,4.2688,4.2333,4.1951,4.1493,4.1029,4.0417,3.994,3.9853,3.9264,3.8845,3.8845,3.8852,3.9061,3.9542,3.9532,3.975,4.0363,4.0083,0.0,0.0,4.023,4.0427,4.0501,4.1304,4.1911,4.2213,4.2615,4.2836,4.2986,4.2986,4.2986,4.2986,4.2986,4.2986,4.2986,4.2986,4.2911,4.2816,4.2816,4.2459,4.1957,4.1957,4.163,4.1075,4.1075,4.0802,4.03,4.03,4.0049,3.9697,0.0,0.0,0.0,0.0,0.0,0.0,0.0,0.0,0.0,0.0,0.0,0.0,0.0,0.0,0.0,0.0,0.0,0.0,0.0,3.703,3.703,3.7089,3.7527,3.7902,3.8277,3.9031,3.9754,4.0382,4.0759,4.1074,4.1388,4.1388,4.1388,4.1388,4.1388,4.1321,4.1221,4.1221,4.112,0.0,0.0,4.078,4.0677,4.047,4.0401,4.0401,4.0296,4.0837,4.1584,4.1955,4.2386,4.2916,4.3386,4.3438,4.329,4.329,4.329,4.329,4.329,4.329,4.329,4.329,4.325,4.313,4.29,4.2456,4.2005,4.1603,4.1001,4.0358,3.994,3.9282,3.8792,3.8684,3.8258,3.7939,3.7939,3.8272,3.8633,3.8823,3.9194,3.955,3.9904,3.98,3.9798,0.0,4.035,4.0626,4.0852,4.1681,4.2313,4.2564,4.2811,4.2986,4.2986,4.2986,4.2986,4.2986,4.2986,4.2986,4.2986,4.2986,4.2986,4.2986,0.0,4.2811,4.2564,4.2564,4.2183,4.1681,4.1681,4.1354,4.0852,4.0601,4.0325,4.0023,0.0,0.0,0.0,0.0,0.0,0.0,0.0,0.0,0.0,0.0,3.6098,3.6477,0.0,0.0,0.0,0.0,0.0,0.0,0.0,0.0,3.6938,3.6969,3.6969,3.7249,3.7842,3.7935,3.8621,3.9932,4.0056,4.0431,4.1117,4.1117,4.1117,4.1117,4.1117,4.1083,4.1083,4.1083,4.095,4.0749,4.0749,4.0677,4.047,0.0,4.0261,4.0257,4.0228,4.0976,4.2031,4.253,4.2694,4.2814,4.3189,4.329,4.329,4.329,4.329,4.329,4.329,4.329,4.329,4.329,4.313,4.29,4.2648,4.1852,4.1099,4.083,3.9924,3.9087,3.8774,3.8187,3.7638,3.7505,3.7201,3.7062,3.7062,3.7843,3.836,3.836,3.9171,3.9697,3.9697,3.9747,3.9998,4.0475,4.0651,4.0953,4.1376,4.1957,4.2539,4.2961,4.2986,4.2986,4.2986,4.2986,4.2986,4.2986,4.2986,4.2986,4.2986,4.2986,4.2986,4.2986,0.0,0.0,4.2986,4.2986,4.2766,4.2313,4.2313,4.1932,4.1326,4.0902,4.0651,4.045,0.0,0.0,0.0,0.0,0.0,0.0,0.0,0.0,0.0,0.0,3.681,3.6904,0.0,0.0,0.0,0.0,0.0,0.0,0.0,0.0,0.0,3.6754,3.6754,3.6878,3.7186,3.7717,3.8372,3.9183,3.9807,4.0431,4.1117,4.1117,4.1117,4.1117,4.1117,4.0984,4.0848,4.0848,4.0746,4.0574,4.0574,4.047,4.0331,4.0296,4.0222,0.0,4.1073,4.1542,4.1897,4.2839,4.3337,4.3485,4.3339,4.329,4.329,4.329,4.329,4.329,4.329,4.329,4.329,4.329,4.301,4.2648,4.2211,4.1268,4.0315,3.9733,3.898,3.8258,3.7802,3.7433,3.7201,3.7155,3.6968,3.6756,3.6756,3.7698,3.831,3.8114,3.9045,3.9697,3.9697,4.0099,0.0,0.0,0.0,4.1961,4.2062,4.2534,4.2886,4.2986,4.2986,4.2986,4.2986,4.2986,4.2986,4.2986,4.2986,4.2986,4.2986,4.2986,4.2986,4.2986,4.2986,0.0,4.2986,4.2986,4.2911,4.2836,4.2836,4.2564,4.2062,4.1961,4.1304,4.0501,0.0,0.0,0.0,0.0,0.0,0.0,3.6349,3.6598,3.6847,3.6754,3.6754,3.6816,3.6969,3.6908,3.6847,0.0,0.0,0.0,0.0,0.0,0.0,3.66,3.66,3.6631,3.6754,3.7064,3.756,3.8242,0.0,3.9637,4.0254,4.0625,4.078,4.078,4.078,4.0746,4.0612,4.0612,4.0608,4.0505,4.0436,4.0366,4.0261,4.0051,4.0086,0.0,4.1242,4.1776,4.2196,4.3,4.3369,4.3478,4.3329,4.329,4.329,4.329,4.325,4.317,4.317,4.309,4.297,4.297,4.2566,4.2075,4.159,4.0503,3.9397,3.8845,3.8004,3.7315,3.7108,3.6875,3.6734,3.6734,3.664,3.6647,3.6925,3.7682,3.8264,3.8466,3.9195,3.9697,3.9697,4.0199,4.0626,0.0,0.0,4.2213,4.2213,4.274,4.2986,4.2986,4.2986,4.2986,4.2986,4.2986,4.2986,4.2986,4.2986,4.2986,4.2986,4.2986,4.2986,4.2986,4.2986,0.0,4.2986,4.2986,4.2986,4.2986,4.2986,4.2811,4.2615,4.2313,4.1861,4.1279,0.0,0.0,0.0,0.0,0.0,0.0,3.6693,3.6662,3.6631,3.6507,3.6507,3.66,3.6877,3.6723,3.6662,0.0,0.0,0.0,0.0,0.0,0.0,0.0,3.6507,3.6507,3.6507,0.0,0.0,3.7492,3.8169,0.0,0.0,0.0,0.0,0.0,4.0505,4.0505,4.047,4.047,4.047,0.0,0.0,4.0191,4.0121,0.0,0.0,0.0,0.0,4.1841,4.25,4.312,4.325,4.325,4.317,4.321,4.321,4.317,4.305,4.297,4.297,4.2809,4.2607,4.2607,4.2075,4.1339,4.0958,3.9722,3.8549,3.8122,3.7294,3.6615,3.6615,3.6499,3.6405,3.6405,3.6405,3.6606,3.7111,3.7663,3.8216,3.8844,3.9346,3.9697,3.9697,4.03,0.0,0.0,0.0,0.0,4.2389,4.2791,4.2986,4.2986,4.2986,4.2986,4.2986,4.2986,4.2986,4.2986,4.2986,4.2986,4.2986,4.2986,4.2986,4.2986,4.2986,0.0,0.0,4.2986,4.2986,4.2986,4.2986,4.2986,4.2936,4.2539,4.2313,4.2087,0.0,0.0,0.0,0.0,0.0,0.0,3.6538,3.6507,3.6507,3.6507,3.6507,3.6538,3.6569,3.6507,3.6507,0.0,0.0,0.0,0.0,0.0,0.0,0.0,0.0,0.0,0.0,0.0,0.0,3.7492,3.8169,0.0,0.0,0.0,0.0,0.0,0.0,4.0436,4.0296,4.0296,0.0,0.0,0.0,0.0,0.0,0.0,0.0,0.0,0.0,4.1841,4.25,4.312,4.317,4.2981,4.2809,4.289,4.2981,4.2809,4.2729,4.2729,4.2729,4.2566,4.2433,4.2433,4.1577,4.073,4.0445,3.9104,3.7821,3.7598,3.6968,3.6452,3.6452,3.6405,3.6405,3.6405,3.6405,3.6606,3.7111,3.7663,3.8216,3.8844,3.9346,3.9697,3.9697,4.0651,0.0,0.0,0.0,0.0,4.2911,4.2961,4.2986,4.2986,4.2986,4.2986,4.2986,4.2986,4.2986,4.2986,4.2986,4.2986,4.2986,4.2986,4.2986,4.2986,4.2986,0.0,0.0,4.2986,4.2986,4.2986,4.2986,4.2986,4.2961,4.2911,4.264,4.2187,0.0,0.0,0.0,0.0,0.0,0.0,3.6538,3.6507,3.6507,3.6507,3.6507,3.6507,3.6507,3.6507,3.6507,3.6507,3.6507,0.0,0.0,0.0,0.0,0.0,0.0,0.0,0.0,0.0,3.6815,3.7492,3.8169,0.0,0.0,0.0,0.0,0.0,0.0,4.0156,4.0117,4.0117,0.0,0.0,0.0,0.0,0.0,0.0,0.0,0.0,0.0,0.0,4.2812,4.3041,4.293,4.2566,4.2199,4.2075,4.2075,4.2211,4.2281,4.2281,4.2281,4.2117,4.1951,4.1856,4.1029,4.0126,3.9574,3.8504,3.7526,3.7108,3.6687,3.6405,3.6405,3.6405,3.6405,3.6405,3.6405,3.6732,3.7563,3.7864,3.8341,3.9245,3.9572,3.9697,0.0,0.0,0.0,0.0,0.0,0.0,4.2986,4.2986,4.2986,4.2986,4.2986,4.2986,4.2986,4.2986,4.2986,4.2986,4.2986,4.2986,4.2986,4.2986,4.2986,4.2986,4.2986,0.0,0.0,4.2986,4.2986,4.2986,4.2986,4.2986,4.2986,4.2986,4.2836,4.2665,0.0,0.0,0.0,0.0,0.0,3.6507,3.6507,3.6507,3.6507,3.6507,3.6507,3.6507,3.6507,3.6507,3.6476,3.6414,3.6414,0.0,0.0,0.0,0.0,0.0,0.0,0.0,0.0,3.6352,3.6657,3.7362,3.8006,3.8613,0.0,0.0,0.0,0.0,0.0,0.0,0.0,0.0,0.0,0.0,0.0,0.0,0.0,0.0,0.0,0.0,0.0,0.0,0.0,0.0,0.0,4.2075,4.1577,4.1198,4.1071,4.1464,4.1632,4.1702,4.1702,4.1577,4.1367,4.1114,4.0343,3.9424,3.8819,3.7939,3.7155,3.6756,3.6546,3.6405,3.6405,3.6405,3.6405,3.6405,3.6556,3.6983,3.7864,3.814,3.8617,3.9572,0.0,3.9697,0.0,4.0701,0.0,0.0,0.0,0.0,0.0,4.2986,4.2986,4.2986,4.2986,4.2986,4.2986,4.2986,4.2986,4.2986,4.2986,4.2986,4.2986,4.2986,4.2986,4.2986,0.0,0.0,0.0,4.2986,4.2986,4.2986,4.2986,4.2986,4.2986,4.2986,4.2986,4.2911,0.0,0.0,0.0,0.0,0.0,3.6507,3.6507,3.6507,3.6507,3.6507,3.6507,3.6507,3.6507,3.6507,3.6414,3.6196,3.6196,0.0,0.0,0.0,0.0,3.6005,3.6005,3.6005,3.6005,3.6005,3.6307,3.7005,3.7673,3.8371,3.9039,3.9677,3.9874,3.9732,0.0,0.0,0.0,0.0,3.9696,0.0,0.0,0.0,3.9463,0.0,0.0,0.0,0.0,0.0,0.0,0.0,0.0,0.0,0.0,4.0386,4.0126,4.0559,4.0859,4.1001,4.1001,4.083,4.0645,4.0402,3.9441,3.8557,3.8258,3.7407,3.6709,3.6709,3.6546,3.6405,3.6405,3.6405,3.6405,3.6405,3.6883,3.7362,3.7914,3.8492,3.9069,0.0,0.0,3.9697,3.9697,0.0,0.0,0.0,0.0,0.0,0.0,4.2986,4.2986,4.2986,4.2986,4.2986,4.2986,4.2986,4.2986,4.2986,4.2986,4.2986,4.2986,4.2986,4.2986,0.0,0.0,0.0,0.0,4.2986,4.2986,4.2986,4.2986,4.2986,4.2986,4.2986,4.2986,4.2986,0.0,0.0,0.0,0.0,0.0,0.0,3.6507,3.6507,3.6507,3.6507,3.6507,3.6507,3.6507,3.6507,3.6414,3.6196,3.6196,0.0,0.0,0.0,3.6005,3.6005,3.6005,3.6186,3.6671,3.6702,3.7248,3.8371,3.8584,3.897,3.9501,3.9713,3.9696,3.9481,3.9553,3.9553,0.0,3.9481,3.9481,0.0,0.0,3.9373,3.9463,0.0,0.0,0.0,0.0,0.0,0.0,0.0,0.0,0.0,0.0,0.0,0.0,3.8774,3.9326,4.0027,4.0027,4.0012,3.9881,3.9662,3.898,3.8213,3.7802,3.7201,3.6662,3.6546,3.6452,3.6405,3.6405,3.6405,3.6531,3.6908,3.7061,3.7513,3.8467,3.8768,3.9069,3.9622,4.0023,4.04,0.0,0.0,0.0,0.0,0.0,0.0,0.0,4.2986,4.2986,4.2986,4.2986,4.2986,4.2986,4.2986,4.2986,4.2986,4.2986,4.2986,4.2986,4.2986,0.0,0.0,0.0,0.0,0.0,4.2986,4.2986,4.2986,4.2986,4.2986,4.2986,4.2986,4.2986,4.2986,0.0,0.0,0.0,0.0,0.0,0.0,3.6507,3.6507,3.6507,3.6507,3.6507,3.6507,3.6507,3.6507,3.6383,3.6163,3.6101,0.0,0.0,3.5846,3.5782,3.5782,3.6023,3.6386,3.6808,3.705,3.7684,3.8771,3.8771,3.9033,3.9589,3.9589,3.9517,3.9373,3.9373,3.9373,0.0,3.9373,3.9373,3.9373,3.9373,3.9559,3.9858,0.0,0.0,0.0,0.0,0.0,0.0,0.0,0.0,0.0,0.0,0.0,0.0,0.0,3.8096,3.8702,3.8997,3.9087,3.9042,3.8774,3.8258,3.771,3.7294,3.6875,3.6546,3.6452,3.6405,3.648,3.6681,3.6732,3.6908,3.7412,3.7688,3.8065,3.8818,3.9044,0.0,3.9647,0.0,0.0,0.0,0.0,0.0,0.0,0.0,0.0,0.0,4.2986,4.2986,4.2986,4.2986,4.2986,4.2986,4.2986,4.2986,4.2986,4.2986,4.2986,4.2986,4.2986,0.0,0.0,0.0,0.0,0.0,4.2986,4.2986,4.2986,4.2986,4.2986,4.2986,4.2986,4.2986,4.2986,0.0,0.0,0.0,0.0,0.0,0.0,0.0,3.6507,3.6507,3.6507,3.6507,3.6507,3.6507,3.6507,3.6352,3.6037,3.6035,0.0,3.5748,3.5647,3.5579,3.5579,3.6207,3.6567,3.6626,3.7195,3.7793,3.8452,3.8452,3.8781,3.9373,3.9373,3.9373,3.9373,3.9373,3.9373,3.9373,3.9373,3.9373,3.9373,3.9433,3.9858,0.0,0.0,0.0,0.0,0.0,0.0,0.0,0.0,0.0,0.0,0.0,0.0,0.0,0.0,0.0,0.0,0.0,3.8122,3.8076,3.7821,3.7407,3.7015,3.6756,3.6546,0.0,3.6405,3.6405,3.6581,3.7086,3.7186,3.7387,3.7965,3.8517,3.8894,3.8969,3.9371,0.0,0.0,4.0224,0.0,0.0,0.0,0.0,0.0,0.0,0.0,0.0,4.2986,4.2986,4.2986,4.2986,4.2986,4.2986,4.2986,4.2986,4.2986,4.2986,4.2986,4.2986,4.2986,0.0,0.0,0.0,0.0,0.0,4.2986,4.2986,4.2986,4.2986,4.2986,4.2986,4.2986,4.2986,4.2986,0.0,0.0,0.0,0.0,0.0,0.0,0.0,0.0,0.0,0.0,3.6507,3.6507,3.6507,3.6507,3.6352,0.0,0.0,3.6632,3.6337,3.6271,3.6237,3.6237,3.6866,3.7434,3.7943,3.8093,3.8482,3.917,3.917,3.926,3.9373,3.9373,3.9373,3.9373,3.9373,3.9373,3.9373,3.9373,3.9373,3.9433,3.9978,4.0277,0.0,0.0,0.0,0.0,4.2693,4.2607,0.0,0.0,0.0,0.0,0.0,0.0,0.0,0.0,3.6546,3.6593,3.6781,0.0,3.7341,3.7294,3.7036,3.6756,0.0,3.6546,3.6405,3.6405,3.6405,3.6581,3.7086,3.7186,3.7513,3.8517,3.8844,3.9019,3.9446,3.9622,0.0,3.9697,4.0551,0.0,0.0,0.0,0.0,0.0,0.0,0.0,0.0,4.2986,4.2986,4.2986,4.2986,4.2986,4.2986,4.2986,4.2986,4.2986,4.2986,4.2986,4.2986,4.2986,0.0,0.0,0.0,0.0,4.2986,4.2986,4.2986,4.2986,4.2986,4.2986,4.2986,4.2986,4.2986,4.2986,0.0,0.0,0.0,0.0,0.0,0.0,0.0,0.0,0.0,0.0,3.6507,3.6599,3.6938,3.6875,3.6839,0.0,0.0,3.7195,3.6959,3.7195,3.7225,3.6926,3.7524,3.8033,3.8392,3.8691,3.905,3.9373,3.9373,3.9373,3.9373,3.9373,3.9373,3.9373,3.9373,3.9373,3.9373,3.9373,3.9589,3.9888,4.0247,0.0,0.0,0.0,0.0,0.0,4.2731,4.2485,0.0,4.0873,3.9924,3.9087,0.0,0.0,0.0,0.0,3.6405,3.6405,3.6405,3.6593,3.6781,3.6781,3.6687,3.6546,3.6546,3.6499,3.6405,3.6405,3.6606,3.6958,3.7462,3.7789,3.8241,3.912,3.9245,3.9346,0.0,0.0,3.9697,3.9697,0.0,0.0,0.0,0.0,0.0,0.0,0.0,0.0,0.0,4.2986,4.2986,4.2986,4.2986,4.2986,4.2986,4.2986,4.2986,4.2986,4.2986,4.2986,4.2986,4.2986,4.2986,0.0,0.0,0.0,4.2986,4.2986,4.2986,4.2986,4.2986,4.2986,4.2986,4.2986,4.2986,4.2986,0.0,0.0,0.0,0.0,0.0,0.0,0.0,0.0,0.0,0.0,0.0,0.0,0.0,0.0,0.0,0.0,3.7929,3.7755,3.7554,3.8182,3.8302,3.7734,3.8242,3.8542,3.8542,3.911,3.9373,3.9373,3.9373,3.9373,3.9373,3.9373,3.9373,3.9373,3.9373,3.9433,3.9559,3.9559,3.9948,4.0546,4.0666,0.0,0.0,0.0,0.0,0.0,0.0,0.0,0.0,4.0944,4.0039,3.9069,3.805,0.0,0.0,0.0,0.0,0.0,3.6405,3.6405,3.6405,3.6405,3.6405,3.6405,3.6405,3.6405,3.6405,3.6405,3.6857,3.7337,3.7914,3.8492,3.9095,3.9597,3.9697,3.9697,3.9697,3.9697,3.9697,3.9697,0.0,0.0,0.0,0.0,0.0,0.0,0.0,0.0,0.0,4.2986,4.2986,4.2986,4.2986,4.2986,4.2986,4.2986,4.2986,4.2986,4.2986,4.2986,4.2986,4.2986,4.2986,0.0,0.0,0.0,4.2986,4.2986,4.2986,4.2986,4.2986,4.2986,4.2986,4.2986,4.2986,4.2986,0.0,0.0,0.0,0.0,0.0,0.0,0.0,0.0,0.0,0.0,0.0,0.0,0.0,0.0,0.0,0.0,3.8353,3.8482,3.8277,3.8871,3.9194,3.911,3.92,3.926,3.926,3.9379,3.9373,3.9373,3.9373,3.9373,3.9373,3.9373,3.9373,3.9373,3.9373,3.9738,4.0247,4.0247,4.0636,4.1294,4.1871,0.0,0.0,0.0,0.0,0.0,0.0,0.0,0.0,4.0717,3.9749,3.8774,3.7848,0.0,0.0,0.0,0.0,0.0,3.6405,3.6405,3.6405,3.6405,3.6405,3.6405,3.6405,3.6405,3.6405,3.6405,3.6857,3.7337,3.7914,3.8492,3.9095,3.9597,3.9697,3.9697,0.0,0.0,3.9697,0.0,0.0,0.0,0.0,0.0,0.0,0.0,0.0,0.0,0.0,4.2986,4.2986,4.2986,4.2986,4.2986,4.2986,4.2986,4.2986,4.2986,4.2986,4.2986,4.2986,4.2986,4.2986,0.0,0.0,4.2986,4.2986,4.2986,4.2986,4.2986,4.2986,4.2986,4.2986,4.2986,4.2986,4.2986,0.0,0.0,0.0,0.0,0.0,0.0,0.0,0.0,0.0,0.0,0.0,0.0,0.0,0.0,0.0,0.0,3.9063,3.9032,3.896,3.926,3.9373,3.9373,3.9373,3.9373,3.9373,3.9373,3.9373,3.9373,3.9373,3.9373,3.9373,3.9373,3.9373,3.9439,3.9798,4.0127,4.0427,4.0786,4.1362,4.1961,0.0,0.0,0.0,0.0,0.0,0.0,0.0,0.0,0.0,0.0,4.0027,3.9131,3.8349,0.0,0.0,0.0,0.0,0.0,3.6405,3.6405,3.6405,3.6405,3.6405,3.6405,3.6405,3.6405,3.648,3.6782,3.7236,3.7814,3.8366,3.8944,3.9396,3.9647,3.9697,3.9697,3.9697,3.9697,0.0,0.0,0.0,0.0,0.0,0.0,0.0,0.0,0.0,0.0,0.0,0.0,4.2986,4.2986,4.2986,4.2986,4.2986,4.2986,4.2986,4.2986,4.2986,4.2986,4.2986,4.2986,4.2986,4.2986,0.0,4.2986,4.2986,4.2986,4.2986,4.2986,4.2986,4.2986,4.2986,4.2986,4.2986,4.2986,0.0,0.0,0.0,0.0,0.0,0.0,0.0,0.0,0.0,0.0,0.0,0.0,0.0,0.0,0.0,0.0,3.9625,3.9373,3.9373,3.9373,3.9373,3.9373,3.9373,3.9373,3.9373,3.9373,3.9373,3.9373,3.9373,3.9373,3.9373,3.9589,3.9649,3.9679,4.0337,4.0689,4.0801,4.1308,4.1906,4.2464,0.0,0.0,0.0,0.0,0.0,0.0,0.0,0.0,0.0,0.0,0.0,0.0,0.0,0.0,0.0,3.6781,3.6546,3.6405,3.6405,3.6405,3.6405,3.6405,3.6405,3.6405,3.6405,3.6505,3.6732,3.7086,3.7739,3.8341,3.8793,3.932,3.9697,3.9697,3.9697,3.9697,3.9697,0.0,0.0,0.0,0.0,0.0,0.0,0.0,0.0,0.0,0.0,0.0,0.0,0.0,4.2986,4.2986,4.2986,4.2986,4.2986,4.2986,4.2986,4.2986,4.2986,4.2986,4.2986,4.2986,4.2986,4.2986,4.2986,4.2986,4.2986,4.2986,4.2986,4.2986,4.2986,4.2986,4.2986,4.2986,4.2986,4.2986,0.0,0.0,0.0,0.0,0.0,0.0,0.0,0.0,0.0,0.0,0.0,0.0,0.0,0.0,3.995,4.0011,3.9625,3.9373,3.9373,3.9373,3.9373,3.9373,3.9373,3.9373,3.9373,3.9373,3.9373,3.9373,3.9373,3.9373,3.9403,4.0038,4.0337,4.0367,4.1025,4.1539,4.1882,4.1941,4.2248,4.271,4.2881,0.0,0.0,0.0,0.0,0.0,0.0,0.0,0.0,0.0,0.0,0.0,0.0,0.0,3.7015,3.6546,3.6405,3.6405,3.6405,3.6405,3.6405,3.6405,3.6405,3.6405,3.6405,3.6807,3.7136,3.7186,3.804,3.8869,3.8919,3.932,3.9697,3.9697,3.9697,3.9697,0.0,0.0,0.0,0.0,0.0,0.0,0.0,0.0,0.0,0.0,0.0,0.0,0.0,0.0,0.0,4.2986,4.2986,4.2986,4.2986,4.2986,4.2986,4.2986,4.2986,4.2986,4.2986,4.2986,4.2986,4.2986,4.2986,4.2986,4.2986,4.2986,4.2986,4.2986,4.2986,4.2986,4.2986,4.2986,4.2986,4.2986,0.0,0.0,0.0,0.0,0.0,0.0,0.0,0.0,0.0,0.0,0.0,4.047,4.0366,0.0,3.9975,3.9803,3.9553,3.9373,3.9373,3.9373,3.9373,3.9373,3.9373,3.9373,3.9373,3.9373,3.9373,3.9373,3.9373,3.9619,4.0038,4.0277,4.0606,4.1025,4.1569,4.187,4.1991,4.2287,4.2533,4.2688,4.2769,4.2769,0.0,0.0,0.0,0.0,0.0,0.0,0.0,0.0,4.0659,3.9793,3.9114,3.8232,3.7453,3.6968,3.664,3.6452,3.6546,3.6734,3.693,3.7286,3.7505,3.7479,3.7003,3.7036,3.7387,3.809,3.8617,3.8969,3.932,3.9546,3.9697,3.9697,3.9697,3.9697,0.0,0.0,0.0,0.0,0.0,0.0,0.0,0.0,0.0,0.0,0.0,0.0,0.0,0.0,0.0,4.2986,4.2986,4.2986,4.2986,4.2986,4.2986,4.2986,4.2986,4.2986,4.2986,4.2986,4.2986,4.2986,4.2986,4.2986,4.2986,4.2986,4.2986,4.2986,4.2986,4.2986,4.2986,4.2986,4.2986,4.2986,0.0,0.0,0.0,0.0,0.0,0.0,0.0,0.0,4.0505,0.0,0.0,0.0,0.0,4.0051,3.9839,0.0,3.9517,3.9373,3.9373,3.9373,3.9373,3.9373,3.9373,3.9373,3.9373,3.9619,3.9619,3.9373,3.9619,4.0068,4.0726,4.0935,4.1227,4.1599,4.2108,4.2248,4.2119,4.2471,4.2596,4.2514,4.2566,4.2596,0.0,0.0,0.0,0.0,0.0,0.0,0.0,0.0,4.0859,4.0099,3.938,3.8504,3.769,3.7479,3.7108,3.6897,3.7381,3.7668,3.7985,3.8372,3.8592,3.8618,3.8199,3.7958,3.8038,3.8768,3.9019,3.9245,3.9622,3.9697,3.9697,0.0,3.9697,0.0,0.0,0.0,0.0,0.0,0.0,0.0,0.0,0.0,0.0,0.0,0.0,0.0,0.0,0.0,0.0,0.0,4.2986,4.2986,4.2986,4.2986,4.2986,4.2986,4.2986,4.2986,4.2986,4.2986,4.2986,4.2986,4.2986,4.2986,4.2986,4.2986,4.2986,4.2986,4.2986,4.2986,4.2986,4.2986,4.2986,4.2961,0.0,0.0,0.0,0.0,0.0,0.0,0.0,0.0,4.0505,4.0505,4.0366,0.0,0.0,0.0,0.0,0.0,3.9517,3.9373,3.9373,3.9373,3.9373,3.9373,3.9439,3.9403,3.9403,4.0068,4.0098,3.9403,4.0098,4.0756,4.1414,4.2081,4.2264,4.206,4.2713,4.2769,4.2392,4.2392,4.2269,4.2133,4.231,4.2269,4.2133,0.0,0.0,0.0,0.0,0.0,0.0,0.0,4.0773,3.9865,3.9131,3.8258,3.7588,3.7921,3.7836,3.7843,3.891,3.9403,3.9621,3.9621,3.9621,3.973,4.006,3.9721,3.9246,3.8969,3.9372,3.9697,3.9697,3.9697,3.9697,3.9697,0.0,0.0,0.0,0.0,0.0,0.0,0.0,0.0,0.0,0.0,0.0,0.0,0.0,0.0,0.0,0.0,0.0,0.0,4.2986,4.2986,4.2986,4.2986,4.2986,4.2986,4.2986,4.2986,4.2986,4.2986,4.2986,4.2986,4.2986,4.2986,4.2986,4.2986,4.2986,4.2986,4.2986,4.2986,4.2986,4.2986,4.2986,4.2886,0.0,0.0,0.0,0.0,0.0,0.0,0.0,0.0,4.047,4.0366,4.0331,0.0,0.0,0.0,0.0,0.0,0.0,3.9373,3.9373,3.9373,3.9373,3.9373,3.9858,4.0098,4.0098,4.0756,4.0995,4.0816,4.0995,4.1482,4.2111,4.2097,4.2346,4.2713,4.26,4.2514,4.2392,4.2257,4.2133,4.2092,4.2175,4.2133,4.2092,0.0,0.0,0.0,0.0,0.0,0.0,0.0,0.0,0.0,4.0319,3.9803,3.9527,3.9428,3.9242,3.9146,3.9854,4.0354,4.0743,4.1194,4.1281,4.1346,4.1497,4.0475,3.9699,3.9981,4.0135,4.0262,4.0262,4.0262,0.0,4.0032,0.0,0.0,0.0,0.0,0.0,0.0,0.0,0.0,0.0,0.0,0.0,0.0,0.0,0.0,0.0,0.0,0.0,0.0,4.2986,4.2986,4.2986,4.2986,4.2986,4.2986,4.2986,4.2986,4.2986,4.2986,4.2986,4.2986,4.2986,4.2986,4.2986,4.2986,4.2986,4.2986,4.2986,4.2986,4.2986,4.2986,4.2986,4.2886,0.0,0.0,0.0,0.0,0.0,0.0,4.0436,4.0436,4.0366,4.0191,4.0086,3.998,0.0,0.0,0.0,3.9409,3.9649,3.9798,3.9798,4.0068,4.0187,4.0187,4.0576,4.0905,4.1175,4.1602,4.1893,4.2162,4.1893,4.2141,4.2731,4.2535,4.2584,4.289,4.2555,4.2351,4.2269,4.2133,4.2092,4.2092,4.2092,4.2092,4.2092,0.0,0.0,0.0,0.0,0.0,0.0,0.0,0.0,0.0,4.1311,4.0876,4.0717,4.0742,4.0606,4.0611,4.1423,4.1855,4.2199,4.2649,4.2712,4.2603,4.2452,4.1406,4.0532,4.0768,4.0896,4.0946,4.0846,4.0744,0.0,0.0,0.0,0.0,0.0,0.0,0.0,0.0,0.0,0.0,0.0,0.0,0.0,0.0,0.0,0.0,0.0,0.0,0.0,0.0,4.2986,4.2986,4.2986,4.2986,4.2986,4.2986,4.2986,4.2986,4.2986,4.2986,4.2986,4.2986,4.2986,4.2986,4.2986,4.2986,4.2986,4.2986,4.2986,4.2986,4.2986,4.2986,4.2891,4.2615,0.0,0.0,4.0505,4.0505,0.0,0.0,4.0296,4.0261,4.0191,4.0011,3.9803,3.9727,0.0,0.0,0.0,3.9589,4.0157,4.0487,4.0487,4.1055,4.1422,4.1422,4.1482,4.1811,4.247,4.25,4.2731,4.329,4.2731,4.2761,4.329,4.309,4.289,4.2688,4.2474,4.2269,4.2092,4.2092,4.2092,4.2092,4.2092,4.2092,4.2121,4.215,0.0,0.0,0.0,0.0,0.0,0.0,0.0,0.0,4.2192,4.17,4.1466,4.1964,4.1958,4.2066,4.3353,4.3681,4.3804,4.4021,4.3899,4.3614,4.3115,4.2484,4.1895,4.1521,4.1647,4.1746,4.1471,4.1222,4.0997,0.0,0.0,0.0,0.0,0.0,0.0,0.0,0.0,0.0,0.0,0.0,0.0,0.0,0.0,0.0,0.0,0.0,0.0,4.2986,4.2986,4.2986,4.2986,4.2986,4.2986,0.0,4.2986,4.2986,4.2986,4.2986,4.2986,4.2986,4.2986,4.2986,4.2986,4.2986,4.2986,4.2986,4.2986,4.2986,4.2961,4.2911,4.264,4.2112,0.0,0.0,4.047,4.0366,0.0,0.0,4.0117,4.0081,3.998,3.9803,3.9732,3.9841,4.0201,4.0224,0.0,4.0905,4.1085,4.1175,4.1175,4.1294,4.1422,4.1422,4.1901,4.2462,4.312,4.312,4.314,4.329,4.314,4.314,4.329,4.293,4.2729,4.2688,4.231,4.2133,4.2092,4.2092,4.2092,4.2092,4.2092,4.2092,4.215,4.2615,4.2789,0.0,0.0,0.0,0.0,0.0,0.0,0.0,4.3364,4.3241,4.3369,4.3271,4.3346,4.3563,4.4059,4.449,4.4787,4.4833,4.4723,4.4443,4.4162,4.4115,4.3832,4.2776,4.2582,4.2631,4.2582,4.2484,0.0,0.0,0.0,0.0,0.0,0.0,0.0,0.0,0.0,0.0,0.0,0.0,0.0,0.0,0.0,0.0,0.0,0.0,0.0,4.2961,4.2986,4.2986,4.2986,4.2986,4.2986,0.0,4.2986,4.2986,4.2986,4.2986,4.2986,4.2986,4.2986,4.2986,4.2986,4.2986,4.2986,4.2986,4.2986,4.2986,4.2936,4.2539,4.2313,4.2062,0.0,0.0,0.0,0.0,0.0,0.0,0.0,0.0,4.0251,4.007,4.0304,4.0598,4.0846,4.0876,0.0,0.0,4.1692,4.1901,4.1901,4.2132,4.2312,4.2312,4.2641,4.3,4.329,4.329,4.329,4.329,4.329,4.329,4.329,4.289,4.2688,4.2688,4.2269,4.2092,4.2092,4.2092,4.2092,4.2121,4.2411,4.2528,4.2586,4.3224,4.3456,4.3515,4.3863,0.0,0.0,0.0,0.0,0.0,0.0,0.0,4.4509,4.4369,4.4415,4.4602,4.4862,4.5,4.511,4.511,4.5046,4.4908,4.4769,4.4862,4.4769,4.4087,4.3879,4.3737,4.3451,0.0,0.0,0.0,0.0,0.0,0.0,0.0,0.0,0.0,0.0,0.0,0.0,0.0,0.0,0.0,0.0,0.0,0.0,4.1965,4.2393,4.2806,4.3058,4.324,4.3432,4.3432,4.3432,4.3432,4.324,4.3129,4.2986,4.2986,4.2986,4.2986,4.2986,4.2986,4.2986,4.2986,4.2986,4.2986,4.2986,4.2986,4.2911,4.2414,4.2037,4.1656,0.0,0.0,0.0,0.0,0.0,0.0,0.0,0.0,0.0,4.0613,4.1055,4.1414,4.1572,4.1602,4.1594,0.0,0.0,0.0,4.256,4.303,4.329,4.329,4.329,4.329,4.329,4.329,4.329,4.329,4.329,4.329,4.329,4.293,4.2729,4.2688,4.231,4.2133,4.2092,4.2092,4.215,4.2295,4.2789,4.305,4.3224,4.3892,4.4153,4.4153,4.4269,4.4647,4.5053,4.4905,0.0,0.0,0.0,0.0,4.5155,4.511,4.511,4.523,4.5458,4.5367,4.523,4.523,4.523,4.523,4.523,4.523,4.523,4.523,4.5046,4.4751,0.0,0.0,0.0,0.0,0.0,0.0,0.0,0.0,0.0,0.0,0.0,0.0,0.0,0.0,0.0,0.0,0.0,0.0,4.0947,4.1622,4.2175,4.2649,4.319,4.3636,4.4039,4.4064,4.4064,4.4039,4.3683,4.3406,4.3154,4.3098,4.3042,4.2986,4.2986,4.2986,4.2986,4.2986,4.2986,4.2986,4.2986,4.2911,4.2816,4.2263,4.1681,4.1103,0.0,0.0,0.0,0.0,0.0,0.0,0.0,0.0,0.0,0.0,4.1324,4.1632,4.2201,4.2261,4.25,4.2991,4.311,4.317,4.317,0.0,0.0,4.329,4.329,4.329,4.329,4.329,4.329,4.329,4.329,4.329,4.329,4.309,4.289,4.2688,4.2474,4.2228,4.2092,4.2092,4.2382,4.2876,4.2963,4.334,4.3921,4.4531,4.4763,4.485,4.543,4.5692,4.575,4.575,4.5763,0.0,0.0,0.0,4.5413,4.5184,4.5276,4.5458,4.5504,4.564,4.5776,4.5776,4.5776,4.5776,4.5776,4.5776,4.5776,4.5776,4.5413,4.5046,0.0,0.0,0.0,0.0,0.0,0.0,0.0,0.0,0.0,0.0,0.0,0.0,0.0,0.0,0.0,0.0,0.0,0.0,4.1259,4.1152,4.1633,4.2923,4.3484,4.4038,4.4559,4.483,4.483,4.4559,4.4313,4.4039,4.3789,4.3462,4.324,4.2986,4.2986,4.2986,4.2986,4.2986,4.2986,4.2986,4.2986,4.274,4.2263,4.1656,4.1103,4.0551,0.0,0.0,0.0,0.0,0.0,0.0,0.0,0.0,0.0,0.0,0.0,4.2581,4.288,4.291,4.303,4.326,4.329,4.329,4.329,4.329,4.329,4.329,4.329,4.329,4.329,4.329,4.329,4.329,4.329,4.329,4.329,4.321,4.301,4.2688,4.2514,4.2473,4.2586,4.2586,4.2963,4.3573,4.3921,4.424,4.456,4.5198,4.543,4.5488,4.5779,4.5895,4.5895,4.5895,4.5895,4.5895,4.573,0.0,0.0,0.0,4.564,4.573,4.573,4.5805,4.5895,4.5895,4.5895,4.5895,4.5895,4.5895,4.5895,4.5895,4.5685,0.0,0.0,0.0,0.0,0.0,0.0,0.0,0.0,0.0,0.0,0.0,0.0,0.0,0.0,0.0,0.0,0.0,0.0,4.1925,4.1765,4.1774,4.2164,4.2918,4.4122,4.4914,4.5155,4.5713,4.5821,4.5422,4.5018,4.4639,4.4367,4.4013,4.3572,4.3042,4.3129,4.324,4.324,4.324,4.324,4.324,4.324,4.2911,4.2381,4.196,4.1349,4.0687,0.0,0.0,0.0,0.0,0.0,0.0,0.0,0.0,0.0,0.0,0.0,4.329,4.329,0.0,0.0,0.0,4.329,4.329,4.329,4.329,4.329,4.329,4.329,4.329,4.329,4.329,4.329,4.329,4.329,4.329,4.329,4.329,4.318,4.2953,4.279,4.2848,4.3076,4.3209,4.3631,4.4269,4.4705,4.4995,4.5198,4.5692,4.5895,4.5895,4.5895,4.5895,4.5895,4.5895,4.5895,4.5895,4.5895,4.5895,0.0,0.0,0.0,4.5895,4.5895,4.5895,4.5895,4.5895,4.5895,4.5895,4.5895,4.5895,4.5895,0.0,0.0,0.0,0.0,0.0,0.0,0.0,0.0,0.0,0.0,0.0,0.0,0.0,0.0,0.0,0.0,0.0,0.0,0.0,0.0,4.2652,4.2311,4.2442,4.2711,4.3195,4.4746,4.5676,4.5789,4.6545,4.6742,4.6323,4.5875,4.5448,4.51,4.4776,4.4287,4.3657,4.3628,4.3628,4.3628,4.3628,4.3628,4.3628,4.3628,4.322,4.2557,4.2442,4.1773,4.09,0.0,0.0,0.0,0.0,0.0,0.0,0.0,0.0,0.0,0.0,0.0,4.329,4.329,4.329,4.329,4.329,4.329,4.329,4.329,4.329,4.329,4.329,4.329,0.0,4.329,4.329,4.329,4.329,4.329,4.329,4.329,4.329,4.3448,4.3661,4.3661,4.3495,4.3303,4.3774,4.4298,4.485,4.4879,4.5256,4.5837,4.5866,4.5895,4.5895,4.5895,4.5895,4.5895,4.5895,4.5895,4.5895,4.5895,4.5895,4.5895,0.0,0.0,0.0,4.5895,4.5895,4.5895,4.5895,4.5895,4.5895,4.5895,4.5895,4.5895,4.5895,0.0,0.0,0.0,0.0,0.0,0.0,0.0,0.0,0.0,0.0,0.0,0.0,0.0,0.0,0.0,0.0,0.0,0.0,0.0,4.3328,4.2798,4.2582,4.2949,4.401,4.5259,4.6117,4.6651,4.7086,4.7236,4.7236,4.6925,4.6665,4.627,4.5742,4.5449,4.5342,4.4613,4.4258,4.4258,4.4258,4.4258,4.4258,4.4258,4.3586,4.2603,4.2892,4.2086,4.0972,0.0,0.0,0.0,0.0,0.0,0.0,0.0,0.0,0.0,0.0,0.0,0.0,0.0,4.329,4.329,4.329,4.329,4.329,4.329,4.329,4.329,4.329,4.329,4.329,4.329,4.329,4.329,4.329,4.329,4.329,4.329,4.3738,4.3945,4.3897,4.3732,4.3952,4.437,4.4516,4.4937,4.5518,4.5518,4.5663,4.5895,4.5895,4.5895,4.5895,4.5895,4.5895,4.5895,4.5895,4.5895,4.5895,4.5895,4.5895,4.5895,4.5895,4.5895,4.5895,4.5895,4.5895,4.5895,4.5895,4.5895,4.5895,4.5895,4.5895,4.5895,0.0,0.0,0.0,0.0,0.0,0.0,0.0,0.0,0.0,0.0,0.0,0.0,0.0,0.0,0.0,0.0,0.0,0.0,0.0,0.0,0.0,4.4115,4.4021,4.4152,4.4517,4.5657,4.667,4.7468,4.7544,4.7647,4.7829,4.7339,4.7081,4.6977,4.6612,4.627,4.6085,4.6165,4.5928,4.5368,4.5368,4.5261,4.518,4.5315,4.4547,4.3412,4.3875,4.3027,4.1746,0.0,0.0,0.0,4.3269,0.0,4.329,4.329,4.329,4.329,4.329,0.0,0.0,0.0,0.0,4.329,4.329,4.329,4.329,4.329,4.329,4.329,4.329,4.329,4.329,4.329,4.329,4.329,4.329,4.329,4.3409,4.3648,4.4107,4.4434,4.4674,4.4423,4.4598,4.4996,4.5184,4.5488,4.5895,4.5895,4.5895,4.5895,4.5895,4.5895,4.5895,4.5895,4.5895,4.5895,4.5895,4.5895,4.5895,4.5895,4.5895,4.5895,4.5895,4.5895,4.5895,4.5895,4.5895,4.5895,4.5895,4.5895,4.5895,4.5895,4.5895,4.5895,0.0,0.0,0.0,0.0,0.0,0.0,0.0,0.0,0.0,0.0,0.0,0.0,0.0,0.0,0.0,0.0,0.0,0.0,0.0,0.0,0.0,4.4908,4.4908,4.5068,4.5388,4.6297,4.7195,4.8007,4.8069,4.8207,4.8358,4.8004,4.7852,4.7852,4.7545,4.7363,4.726,4.7596,4.7236,4.6455,4.6455,4.635,4.6192,4.6297,4.5572,4.4552,4.4893,4.4036,4.2851,4.3675,4.3478,4.329,4.329,4.329,4.329,4.329,4.329,4.329,4.329,0.0,0.0,0.0,0.0,0.0,4.329,4.329,4.329,4.329,4.329,4.329,4.329,4.329,4.329,4.329,4.329,4.329,4.329,4.3319,4.3648,4.4317,4.4347,4.4941,4.601,4.5752,4.5463,4.523,4.5694,4.5895,4.5895,4.5895,4.5895,4.5895,4.5895,4.5895,4.5895,4.5895,4.5895,4.5895,4.5895,4.5895,4.5895,4.5895,4.5895,4.5895,4.5895,4.5895,4.5895,0.0,0.0,0.0,4.5895,4.5895,4.5895,4.5895,4.5895,4.5895,0.0,0.0,0.0,0.0,0.0,0.0,0.0,0.0,0.0,0.0,0.0,0.0,0.0,0.0,0.0,0.0,0.0,0.0,0.0,0.0,4.5413,4.511,4.511,4.5562,4.6454,4.7088,4.7645,4.8297,4.8636,4.8881,4.8909,4.8909,4.8909,4.8909,4.8631,4.8631,4.8909,4.8631,4.8106,4.7339,4.7339,4.7339,4.7288,4.7029,4.6569,4.6017,4.5912,4.5204,4.4255,4.3478,4.3329,4.329,4.329,4.329,4.329,4.329,4.329,4.329,0.0,0.0,0.0,4.329,4.329,4.329,4.329,4.329,4.329,4.329,4.329,4.329,4.329,4.329,4.329,4.329,4.329,4.329,4.329,4.3768,4.4137,4.4347,4.5304,4.5836,4.604,4.6225,4.6182,4.5917,4.5898,4.5895,4.5895,4.5895,4.5895,4.5895,4.5895,4.5895,4.5895,4.5895,4.5895,4.5895,4.5895,4.5895,4.5895,4.5895,4.5895,4.5895,4.5895,4.5895,4.5895,4.5895,0.0,0.0,0.0,0.0,0.0,4.5895,4.5895,4.5895,0.0,0.0,0.0,0.0,0.0,0.0,0.0,0.0,0.0,0.0,0.0,0.0,0.0,0.0,0.0,0.0,0.0,0.0,0.0,4.5776,4.573,4.5685,4.5685,4.5772,4.6065,4.6489,4.6983,4.7616,4.7978,4.8424,4.8909,4.8909,4.8909,4.8909,4.881,4.8859,4.8909,4.9058,4.8959,4.871,4.8559,4.833,4.8179,4.8308,4.7863,4.72,4.7327,4.6825,4.6019,4.3329,4.329,4.329,4.329,4.329,4.329,4.329,4.329,4.329,0.0,0.0,0.0,4.329,4.329,4.329,4.329,4.329,4.329,4.329,4.329,4.329,4.329,4.329,4.329,4.329,4.3559,4.3708,4.3708,4.4407,4.4855,4.5155,4.592,4.6386,4.6556,4.6695,4.658,4.6358,4.6135,4.5956,4.5895,4.5895,4.5895,4.594,4.6001,4.6001,4.6046,4.6164,4.609,4.6001,4.6001,4.5956,4.5895,4.5895,4.5895,4.5895,4.5895,4.5895,4.5895,4.5895,4.5895,4.5895,4.5895,0.0,0.0,4.5895,4.5895,4.5895,0.0,0.0,0.0,0.0,0.0,0.0,0.0,0.0,0.0,0.0,0.0,0.0,0.0,0.0,0.0,0.0,0.0,0.0,4.5895,4.5895,4.5895,4.5895,4.5895,4.5895,4.5895,4.6321,4.6911,4.7546,4.8009,4.8546,4.9227,4.9227,4.9227,4.9227,4.9227,4.9227,4.9227,4.9404,4.9453,4.9453,4.9305,4.9108,4.8859,4.8909,4.8581,4.8112,4.815,4.7738,4.7222,0.0,4.329,4.329,4.329,4.329,4.329,4.329,4.329,4.329,0.0,4.329,4.329,4.329,4.329,4.329,4.329,4.3349,4.3409,4.3409,4.3469,4.3499,4.3499,4.3499,4.3499,4.3499,4.4137,4.4436,4.4436,4.5095,4.5723,4.6279,4.6411,4.6741,4.7309,4.7019,4.68,4.658,4.6314,4.612,4.5982,4.5924,4.5895,4.594,4.6135,4.6225,4.6269,4.6491,4.6447,4.6225,4.618,4.6046,4.5895,4.5895,4.5895,4.5895,4.5895,4.5895,4.5895,4.5895,4.5895,4.5895,4.5895,4.5895,0.0,4.5895,4.5895,4.5895,0.0,0.0,0.0,0.0,0.0,0.0,0.0,0.0,0.0,0.0,0.0,0.0,0.0,0.0,0.0,0.0,4.5895,4.5895,4.5895,4.5895,4.5895,4.5895,4.5895,4.5895,4.5895,4.6417,4.7056,4.7782,4.8333,4.8972,4.9717,4.9717,4.9717,4.9717,4.9717,4.9717,4.9717,4.9717,4.9717,4.9717,4.9717,4.9551,4.9305,4.9108,4.9009,4.8923,4.8594,4.8344,4.8141,4.329,4.329,4.329,4.329,4.329,4.329,4.329,4.329,4.329,4.329,4.329,4.329,4.329,4.329,4.329,4.329,4.3768,4.4107,4.4107,4.4616,4.4915,4.4915,4.4915,4.4915,4.4915,4.5035,4.5095,4.5095,4.5783,4.6202,4.6279,4.686,4.7189,4.7309,4.7019,4.68,4.658,4.6314,4.6337,4.6592,4.6098,4.5895,4.594,4.6135,4.6225,4.6269,4.6491,4.6447,4.618,4.6001,4.594,4.5895,0.0,0.0,0.0,4.5895,4.5895,4.5895,4.5895,4.5895,4.5895,0.0,0.0,0.0,4.5895,4.5895,4.5895,0.0,0.0,0.0,0.0,0.0,0.0,0.0,0.0,0.0,0.0,0.0,0.0,0.0,0.0,0.0,0.0,4.5895,4.5895,4.5895,4.5895,4.5895,4.5895,4.5895,4.5895,4.5895,4.6011,4.6621,4.7782,4.7898,4.8537,4.9717,4.9717,4.9717,4.9717,4.9717,4.9717,4.9717,4.9717,4.9717,4.9717,4.9717,4.9669,4.962,4.9571,4.9522,4.9522,4.9475,4.9397,4.9368,4.329,4.329,4.329,4.329,4.329,4.329,4.329,4.329,4.329,4.329,4.329,4.329,4.329,4.329,4.3409,4.3768,4.4137,4.4436,4.4796,4.5095,4.5304,4.5304,4.5304,4.5304,4.5304,4.5633,4.5813,4.5813,4.6471,4.68,4.683,4.716,4.7309,4.7309,4.7149,4.6887,4.6609,4.68,4.6897,4.6978,4.6658,4.6761,4.7053,4.7417,4.7523,4.7568,4.7867,4.7777,4.7507,4.7144,4.7036,0.0,4.687,4.6824,4.6824,0.0,4.6824,4.6766,0.0,0.0,0.0,4.5982,0.0,0.0,0.0,4.5895,4.5895,0.0,0.0,0.0,0.0,0.0,0.0,0.0,0.0,0.0,0.0,0.0,0.0,0.0,0.0,0.0,0.0,4.5895,4.5895,4.5895,4.5895,4.5895,4.5895,4.5895,4.5895,4.5895,4.5895,4.6505,4.7782,4.7782,4.842,4.9717,4.9717,4.9717,4.9717,4.9717,4.9717,4.9717,4.9717,4.9717,4.9717,4.9717,4.9717,4.9717,4.9717,4.9717,4.9717,4.9717,4.9717,4.9717,4.329,4.329,4.329,4.329,4.329,4.329,4.329,4.329,4.3349,4.3469,4.3469,4.3529,4.3648,4.3678,4.3888,4.4466,4.4616,4.4915,4.5454,4.5603,4.5693,4.5693,4.5693,4.5693,4.5693,4.6232,4.6501,4.6501,4.704,4.7309,4.7309,4.7309,4.7309,4.7309,4.7309,4.7151,4.6904,4.7346,4.7564,4.7633,4.7633,4.7896,4.8295,4.8755,4.8907,4.8907,4.9164,4.9073,4.8816,4.8433,4.8278,4.8231,4.8016,4.7922,0.0,0.0,0.0,0.0,0.0,0.0,0.0,0.0,0.0,4.5895,0.0,0.0,0.0,0.0,0.0,0.0,0.0,0.0,0.0,0.0,0.0,0.0,0.0,0.0,0.0,0.0,0.0,0.0,0.0,4.5895,4.5895,4.5895,4.5895,4.5895,4.5895,4.5895,4.5895,4.5895,4.5895,4.6505,4.7782,4.7782,4.842,4.9717,4.9717,4.9717,4.9717,4.9717,4.9717,4.9717,4.9717,4.9717,4.9717,4.9717,4.9717,4.9717,4.9717,4.9717,4.9717,4.9717,4.9717,4.9717,4.329,4.329,4.329,4.329,4.329,4.329,4.329,4.329,4.3499,4.4137,4.4197,4.4436,4.5005,4.5065,4.5095,4.5185,4.5753,4.6142,4.6202,4.6741,4.707,4.707,4.707,4.707,4.707,4.716,4.7189,4.7189,4.7279,4.7309,4.7309,4.7309,4.7309,4.7309,4.7309,4.7477,4.7748,4.7568,4.8155,4.9262,4.9262,4.8968,4.8571,4.8816,4.8907,4.8907,4.8907,4.8907,4.8862,0.0,4.8525,4.8525,0.0,4.8341,4.8138,4.8138,0.0,0.0,0.0,0.0,0.0,0.0,4.6301,0.0,0.0,0.0,0.0,0.0,0.0,0.0,0.0,0.0,0.0,0.0,0.0,0.0,0.0,0.0,0.0,0.0,0.0,0.0,0.0,0.0,4.5895,4.5895,4.5895,4.5895,4.5895,4.5895,4.5895,4.5895,4.5895,4.6505,4.7782,4.7782,4.842,4.9717,4.9717,4.9717,4.9717,4.9717,4.9717,4.9717,4.9717,4.9717,4.9717,4.9717,4.9717,4.9717,4.9717,4.9717,4.9717,4.9717,4.9717,4.9717,4.329,4.329,4.329,4.329,4.329,4.329,4.329,4.3618,4.4137,4.4796,4.4885,4.4975,4.5274,4.5304,4.5454,4.5873,4.6142,4.6501,0.0,4.716,4.7309,4.7309,4.7309,4.7309,4.7309,4.7309,4.7309,4.7309,4.7309,4.7309,4.7309,4.7309,4.7519,4.7878,4.7878,4.8104,4.8476,4.88,4.9229,4.9762,5.0117,5.0211,5.0113,5.0206,5.0253,5.0253,5.0253,5.0253,5.0206,0.0,4.9851,0.0,0.0,0.0,0.0,0.0,0.0,0.0,0.0,0.0,0.0,0.0,0.0,0.0,4.5982,0.0,4.5895,0.0,0.0,0.0,0.0,0.0,0.0,0.0,0.0,0.0,0.0,0.0,0.0,0.0,0.0,0.0,0.0,0.0,0.0,0.0,0.0,4.5895,4.5895,4.5895,4.5895,4.5895,4.5895,4.6505,4.7782,4.7782,4.842,4.9717,4.9717,4.9717,4.9717,4.9717,4.9717,4.9717,4.9717,4.9717,4.9717,4.9717,4.9717,4.9717,4.9717,4.9717,4.9717,4.9717,4.9717,4.9717,4.329,4.329,4.329,4.329,4.3439,4.3618,4.3798,4.4287,4.4825,4.5484,4.5574,4.5633,4.5813,4.5843,4.6052,4.6561,4.6591,4.68,0.0,4.7309,4.7309,4.7309,4.7309,4.7309,4.7309,4.7309,4.7309,4.7309,4.7309,4.7309,4.7309,4.7489,4.7818,4.8297,4.8476,4.8835,4.925,4.971,5.0037,5.0292,5.0662,5.0964,5.1229,5.1229,5.1229,5.1229,5.1229,5.1229,5.1182,5.0964,5.0917,0.0,5.071,0.0,0.0,0.0,0.0,0.0,4.9597,0.0,0.0,0.0,0.0,0.0,0.0,0.0,0.0,0.0,0.0,0.0,0.0,0.0,0.0,4.5895,0.0,0.0,0.0,0.0,0.0,0.0,0.0,0.0,0.0,0.0,0.0,0.0,0.0,0.0,4.5895,4.5895,4.5895,4.5895,4.5895,4.6505,4.7782,4.7782,4.842,4.9717,4.9717,4.9717,4.9717,4.9717,4.9717,4.9717,4.9717,4.9717,4.9717,4.9717,4.9717,4.9717,4.9717,4.9717,4.9717,4.9717,4.9717,4.9717,4.329,4.329,4.329,4.329,4.3828,4.4496,4.5125,4.5244,4.5514,4.6202,4.6249,4.6531,4.7189,4.7249,4.7249,4.7279,4.7279,4.7279,4.7309,0.0,4.7309,4.7309,0.0,4.7309,0.0,4.7309,4.7309,4.7309,4.7309,4.7309,4.7309,4.7967,4.8267,4.8327,4.9,4.9583,5.0166,4.9965,5.0398,5.1152,5.0917,5.0964,5.1229,0.0,5.1229,5.1229,5.1229,0.0,0.0,5.1182,5.1182,0.0,0.0,0.0,0.0,0.0,0.0,0.0,0.0,0.0,0.0,4.908,0.0,0.0,0.0,0.0,4.5895,0.0,0.0,0.0,0.0,0.0,4.5895,4.5895,4.5895,0.0,0.0,0.0,0.0,0.0,0.0,0.0,0.0,0.0,0.0,0.0,0.0,0.0,4.5895,4.5895,4.5895,4.5895,4.5895,4.6505,4.7782,4.7782,4.842,4.9717,4.9717,4.9717,4.9717,4.9717,4.9717,4.9717,4.9717,4.9717,4.9717,4.9717,4.9717,4.9717,4.9717,4.9717,4.9717,4.9717,4.9717,4.9717,4.4556,4.4616,4.4496,4.4047,4.4526,4.5185,4.5873,4.5963,4.6202,4.689,4.698,4.707,4.7279,4.7309,4.7309,0.0,0.0,4.7309,4.7309,4.7309,0.0,0.0,0.0,4.7309,0.0,0.0,4.7309,4.7309,4.7728,4.7967,4.7967,4.8626,4.9164,4.9583,4.9793,5.0272,5.0853,5.0807,5.0926,5.1182,5.1105,5.1105,5.1229,0.0,0.0,5.1229,5.1229,5.1229,0.0,5.1229,5.1229,5.1229,5.1229,5.1105,5.1058,5.1058,5.087,0.0,0.0,0.0,5.0058,4.9493,0.0,0.0,0.0,0.0,0.0,0.0,0.0,0.0,0.0,0.0,4.5895,4.5895,4.5895,4.5895,0.0,0.0,0.0,0.0,0.0,0.0,0.0,0.0,0.0,0.0,4.5895,0.0,0.0,4.5895,4.5895,4.5895,4.6301,4.6911,4.7782,4.8188,4.8827,4.9717,4.9717,4.9717,4.9717,4.9717,4.9717,4.9717,4.9717,4.9717,4.9717,4.9717,4.9717,4.9717,4.9717,4.9717,4.9717,4.9717,4.9717,4.9717,4.5214,4.5484,4.5454,4.4766,4.5214,4.5903,4.6561,4.6681,4.683,4.7249,4.7309,4.7309,4.7309,0.0,4.7309,0.0,4.7309,4.7309,4.7309,4.7309,0.0,4.7309,4.7309,0.0,0.0,0.0,0.0,4.7668,4.8087,4.8416,4.8656,4.9314,4.9853,5.0196,5.0435,5.0794,5.1229,5.1229,5.1229,5.1229,5.1229,5.1349,0.0,0.0,5.1439,5.1229,0.0,5.1229,5.1229,5.1229,5.1229,5.1229,5.1229,5.1229,5.1229,5.1229,5.1058,5.0964,5.0964,5.0852,0.0,5.0082,4.9491,0.0,4.7842,0.0,0.0,0.0,0.0,0.0,0.0,0.0,4.612,4.6001,4.6001,4.5956,0.0,4.5895,0.0,0.0,0.0,0.0,0.0,0.0,0.0,4.5895,4.5895,0.0,0.0,0.0,4.5895,4.5895,4.6505,4.7143,4.7782,4.842,4.9059,4.9717,4.9717,4.9717,4.9717,4.9717,4.9717,4.9717,4.9717,4.9717,4.9717,4.9717,4.9717,4.9717,4.9717,4.9717,4.9717,4.9717,4.9717,4.9717,4.5394,4.5933,4.6172,4.5514,4.5933,4.6591,4.7219,4.7309,4.7309,4.7309,4.7309,4.7309,4.7309,4.7339,4.7369,4.7369,4.7369,4.7399,4.7399,4.7399,0.0,0.0,4.7369,4.7369,4.7369,0.0,0.0,0.0,4.8356,4.8686,4.9389,4.9972,5.0255,5.0255,5.093,5.1229,5.1229,5.1229,5.1229,5.1259,5.1259,5.1648,5.2247,5.2247,5.1858,5.1319,5.1319,5.1319,5.1319,5.1319,5.1289,5.1259,5.1259,5.1259,5.1229,5.1229,5.1229,5.1229,5.1229,5.1229,5.1105,5.087,0.0,0.0,0.0,0.0,4.7421,0.0,0.0,0.0,0.0,0.0,0.0,4.6269,4.6225,4.6135,4.594,4.5895,0.0,0.0,0.0,0.0,0.0,0.0,4.5895,4.5895,4.5895,4.5895,0.0,0.0,4.5895,4.5895,4.6534,4.7172,4.7782,4.8449,4.9088,4.9717,4.9717,4.9717,4.9717,4.9717,4.9717,4.9717,4.9717,4.9717,4.9717,4.9717,4.9717,4.9717,4.9717,4.9717,4.9717,4.9717,4.9717,4.9717,4.6711,4.695,4.701,4.683,4.695,4.71,4.7279,4.7309,0.0,0.0,4.7309,4.7309,4.7309,4.7728,4.8027,4.8027,4.8476,0.0,0.0,0.0,0.0,4.882,4.8297,4.8027,4.8027,4.8027,0.0,4.8297,0.0,4.9823,5.0002,5.0614,5.096,5.0913,5.1139,5.1229,5.1229,5.1229,5.1498,5.1947,5.1947,5.2336,0.0,0.0,5.2815,5.2665,5.2665,5.2665,5.2665,5.2665,5.2366,5.1947,5.1947,5.1618,5.1229,5.1229,5.1229,5.1229,5.1229,5.1229,5.1182,5.1105,5.0627,5.0027,0.0,0.0,0.0,0.0,0.0,0.0,0.0,0.0,0.0,4.6491,4.6314,4.6135,0.0,0.0,0.0,4.5895,0.0,0.0,0.0,0.0,4.5895,4.5895,4.5895,4.5895,0.0,0.0,0.0,4.5895,4.6969,4.7608,4.7782,4.8885,4.9524,4.9717,4.9717,4.9717,4.9717,4.9717,4.9717,4.9717,4.9717,4.9717,4.9717,4.9717,4.9717,4.9717,4.9717,4.9717,4.9717,4.9717,4.9717,4.9717,4.7249,4.7309,4.7309,4.7309,4.7309,4.7309,4.7309,4.7309,0.0,4.7309,4.7549,0.0,4.7728,4.8327,4.876,4.876,4.909,0.0,4.9299,0.0,0.0,4.9299,4.897,4.876,4.876,4.876,0.0,4.9134,0.0,5.0345,5.0644,5.1003,5.1229,5.1229,5.1229,5.1229,5.1229,5.1528,5.2037,5.2636,5.2636,5.3025,0.0,5.3623,5.3803,5.4042,5.4042,5.3683,5.3174,5.3174,5.2935,5.2636,5.2636,5.2366,5.2007,5.1738,5.1648,5.1588,5.1289,5.1229,5.1229,5.1229,5.093,5.0554,5.0117,4.9252,4.8402,0.0,0.0,0.0,0.0,0.0,0.0,4.6756,4.6447,0.0,0.0,0.0,0.0,0.0,0.0,0.0,0.0,0.0,4.5895,4.5895,4.5895,0.0,0.0,0.0,0.0,4.6301,4.7259,4.7927,4.8188,4.9175,4.9717,4.9717,4.9717,4.9717,4.9717,4.9717,4.9717,4.9717,4.9717,4.9717,4.9717,4.9717,4.9717,4.9717,4.9717,4.9717,4.9717,4.9717,4.9717,4.9717,4.7309,4.7309,4.7309,4.7309,4.7369,4.7429,4.7429,4.7429,0.0,4.7429,0.0,4.8416,4.8416,4.8985,4.9449,4.9449,0.0,4.9569,4.9569,4.9569,4.9569,4.9569,4.9434,4.9449,4.9449,4.9449,0.0,0.0,0.0,5.0614,5.1229,5.1229,5.1229,5.1229,5.1319,5.1379,5.1498,5.2097,5.2725,5.3324,5.3324,5.3713,5.4341,5.4341,5.47,5.5179,5.5179,5.4431,5.3443,5.3443,5.3384,5.3324,5.3324,5.3264,5.3084,5.2486,5.2336,5.2187,5.1618,5.1409,5.1349,5.1349,5.1289,5.1079,5.0435,4.9853,4.9224,4.8656,4.7938,4.7429,0.0,0.0,0.0,0.0,0.0,0.0,0.0,0.0,0.0,0.0,0.0,0.0,0.0,0.0,0.0,4.5895,4.5895,0.0,0.0,0.0,0.0,4.6749,4.7433,0.0,4.8663,0.0,4.9717,4.9717,4.9717,4.9717,4.9717,4.9717,4.9717,4.9717,4.9717,4.9717,4.9717,4.9717,4.9766,4.9766,4.9766,4.9717,4.9717,4.9717,4.9717,4.9717,4.7309,4.7309,4.7309,4.7309,4.7758,4.8117,4.8117,4.8117,4.8117,4.8117,4.8686,4.9149,4.9149,4.9673,5.0016,5.0016,5.0571,0.0,0.0,0.0,0.0,5.087,5.0361,5.0016,5.0016,5.0016,5.0076,0.0,0.0,5.1063,5.1229,5.1229,5.1229,5.1229,5.1798,5.2336,5.2845,5.2965,0.0,5.4012,5.4012,5.4431,5.5029,5.5029,5.5089,5.5179,5.5179,5.5029,5.485,5.485,5.4491,5.4012,5.4012,5.3653,5.3144,5.3054,5.2995,5.2995,5.2875,5.2456,5.2037,5.2037,5.1618,5.1199,5.1079,5.0495,4.9986,4.9867,4.8955,4.8117,4.8117,0.0,0.0,0.0,0.0,0.0,0.0,0.0,0.0,0.0,0.0,0.0,0.0,0.0,0.0,0.0,0.0,0.0,0.0,0.0,0.0,0.0,4.7433,0.0,0.0,0.0,4.9717,4.9717,4.9717,4.9815,5.0038,5.0038,5.0038,5.0038,5.0038,4.9892,4.9717,4.9941,5.0135,5.0357,5.0135,5.0038,4.999,4.9766,4.9717,4.9717,4.7309,4.7578,4.7818,0.0,0.0,0.0,0.0,4.9075,4.9164,4.8835,4.9374,4.9763,4.9763,5.0661,5.1259,5.1259,5.1858,5.2247,5.2247,5.2247,5.2247,5.2247,5.1947,0.0,5.1768,5.1768,5.1768,5.1768,0.0,5.2247,5.2247,5.2247,5.2247,5.2247,5.2576,5.3084,5.3713,0.0,0.0,5.473,5.473,5.491,5.5149,5.482,5.467,5.464,5.4281,5.4162,5.4251,5.497,5.497,5.473,5.473,5.4491,5.4162,5.3803,5.3713,5.3623,5.3264,5.2935,5.2695,5.2695,5.2217,5.1738,5.1738,5.096,5.0196,5.0196,4.9464,4.8686,4.8356,4.8027,0.0,0.0,0.0,0.0,0.0,0.0,0.0,0.0,0.0,0.0,0.0,0.0,0.0,0.0,0.0,0.0,0.0,0.0,0.0,0.0,0.0,0.0,0.0,0.0,0.0,4.9941,4.9941,5.0038,5.0309,5.0309,5.0309,5.0309,5.0309,5.0231,5.0135,5.0231,5.0405,5.0501,5.0357,5.0231,5.0086,4.999,4.9815,4.9717,4.7698,4.8147,0.0,0.0,4.9045,0.0,4.9464,5.0152,5.0361,4.9583,5.0152,5.0614,5.0614,5.1708,5.2396,5.2396,5.2875,5.3174,5.3174,5.3174,5.3174,5.3174,5.3174,5.3174,5.3174,5.3174,5.3174,0.0,0.0,0.0,5.3174,5.3174,5.3264,5.3384,5.3384,0.0,0.0,0.0,5.473,5.5179,5.5179,5.5179,5.5119,5.461,5.4431,5.4341,5.3803,5.3623,5.3773,5.482,5.5089,5.4999,5.5149,5.5179,5.5089,5.4581,5.4431,5.4311,5.3743,5.3503,5.3384,5.3384,5.2905,5.2396,5.2396,5.1498,5.0614,5.0614,5.0032,4.9284,4.8626,4.8386,0.0,0.0,0.0,0.0,0.0,0.0,0.0,0.0,0.0,0.0,0.0,0.0,0.0,0.0,0.0,0.0,0.0,0.0,0.0,0.0,0.0,4.903,4.9717,0.0,4.9892,0.0,5.0135,5.0327,5.0567,5.0567,5.0567,5.0567,5.0567,5.0567,5.0567,5.0567,5.0596,5.0644,5.0596,5.0423,5.0231,5.0183,5.0038,4.9892,0.0,0.0,0.0,0.0,0.0,0.0,5.0106,5.1199,5.1558,5.0255,5.1229,5.2007,5.2007,5.2665,5.3084,5.3084,5.3144,5.3174,5.3174,5.3174,5.3174,5.3174,5.3174,5.3174,5.3174,5.3174,5.3174,0.0,0.0,0.0,0.0,5.3174,5.3503,0.0,0.0,0.0,0.0,5.5089,5.5119,5.5179,5.5179,5.5179,5.5179,5.5119,5.5089,5.5089,5.5029,5.4999,5.5029,5.5149,5.479,5.4401,5.4999,5.5179,5.5179,5.5119,5.5089,5.5089,5.5029,5.4581,5.4132,5.4132,5.3593,5.3084,5.3084,5.2546,5.2007,5.2007,5.102,4.9942,4.9284,4.8686,4.8267,0.0,0.0,0.0,0.0,0.0,0.0,0.0,0.0,0.0,0.0,0.0,0.0,0.0,0.0,0.0,0.0,0.0,0.0,4.8595,0.0,4.903,4.9717,4.9941,0.0,5.0086,5.0357,5.0567,5.0775,5.0775,5.0775,5.0775,5.0775,5.0775,5.0775,5.0775,5.0917,5.1135,5.087,5.0775,5.0728,5.0519,5.0453,5.0405,0.0,0.0,0.0,0.0,0.0,0.0,0.0,5.2187,5.2606,5.2067,5.2456,5.2785,5.2785,5.3384,5.3803,5.3803,5.4162,5.4401,5.4401,5.4401,5.4401,5.4401,5.4401,5.4401,5.4401,5.4401,5.4401,0.0,0.0,0.0,0.0,0.0,0.0,0.0,0.0,5.494,5.5179,5.5179,5.5179,5.5179,5.5179,5.5179,5.5149,5.476,5.461,5.4551,5.4132,5.3982,5.4042,5.4461,5.47,5.485,5.5119,5.5179,5.5179,5.5179,5.5179,5.5179,5.5179,5.4999,5.479,5.479,5.4311,5.3803,5.3803,5.3264,5.2785,5.2785,5.2067,5.1079,5.0032,4.9643,4.9314,0.0,0.0,0.0,0.0,0.0,0.0,0.0,0.0,0.0,0.0,0.0,4.699,0.0,0.0,0.0,0.0,0.0,0.0,4.8663,0.0,4.9533,4.9941,5.0038,5.0231,5.0537,5.0632,5.0775,5.1058,5.1058,5.1058,5.1058,5.1058,5.1058,5.1058,5.1058,5.1105,5.1182,5.1058,5.0964,5.0822,5.0728,5.0614,5.0501,4.9793,0.0,5.0764,0.0,5.1738,5.2486,5.2486,5.3054,5.3473,5.3473,5.3653,5.3683,5.3503,5.4102,5.4491,5.4491,5.491,5.5179,5.5179,5.5179,5.5179,5.5179,5.5179,0.0,5.5179,5.5179,5.5179,5.5179,5.5179,0.0,0.0,0.0,0.0,0.0,5.5179,5.5179,5.5179,5.5179,5.5179,5.5179,5.5179,5.5179,5.5149,5.467,5.4491,5.4431,5.3952,5.3773,5.3832,5.4341,5.482,5.5179,5.5179,5.5179,5.5179,5.5179,5.5179,5.5179,5.5179,5.5179,5.5179,5.5179,5.485,5.4491,5.4491,5.3982,5.3414,5.3234,5.2665,5.1917,5.0943,5.0465,5.0046,4.9613,0.0,0.0,0.0,0.0,0.0,0.0,4.7746,4.7584,4.7584,0.0,0.0,0.0,0.0,0.0,0.0,0.0,0.0,0.0,0.0,0.0,0.0,5.0279,5.0489,5.0793,5.087,5.1011,5.1229,5.1229,5.1229,5.1229,5.1229,5.1229,5.1229,5.1229,5.1229,5.1229,5.1229,5.1058,5.0917,5.0917,5.0852,5.0662,5.1079,5.1738,5.2187,5.2187,5.2725,5.3174,5.3174,5.3743,5.4192,5.4192,5.476,5.491,5.4281,5.479,5.5179,5.5179,5.5179,5.5179,5.5179,5.5179,5.5179,0.0,0.0,5.5179,5.5179,5.5179,5.5179,5.5179,0.0,0.0,5.5179,0.0,5.5179,5.5179,5.5179,5.5179,5.5179,5.5179,5.5179,5.5179,5.5179,5.5179,5.5179,5.5179,5.5179,5.5179,5.5179,5.5179,5.5179,5.5179,5.5179,5.5179,5.5179,5.5179,5.5179,5.5179,5.5179,5.5179,5.5179,5.5179,5.5179,5.5179,5.5179,5.5179,5.5179,5.467,5.4012,5.3324,5.2665,5.2187,5.2187,5.1109,5.0196,5.0196,0.0,0.0,0.0,0.0,0.0,0.0,4.9269,4.9299,4.9299,0.0,0.0,0.0,0.0,0.0,0.0,0.0,0.0,5.0471,5.0501,0.0,5.0501,5.068,5.0793,5.0793,5.1058,5.1229,5.1229,5.1229,5.1229,5.1229,5.1229,5.1229,5.1229,5.1229,5.1229,5.1229,5.1229,5.1229,5.1229,5.1229,5.1182,5.1152,5.1858,5.2426,5.2875,5.2875,5.3443,5.3892,5.3892,5.4461,5.488,5.488,5.5059,5.5269,5.5538,5.5329,5.5359,0.0,5.5867,5.6047,0.0,5.6107,5.5867,5.5867,5.5418,5.5179,5.5179,5.5179,5.5179,5.5179,0.0,0.0,0.0,5.5179,5.5179,5.5179,5.5179,5.5179,5.5179,5.5179,5.5179,5.5179,5.5179,5.5179,5.5179,5.5179,5.5179,5.5179,5.5179,5.5179,5.5179,5.5179,5.5179,5.5179,5.5179,5.5179,5.5179,5.5179,5.5179,5.5179,5.5179,5.5179,5.5179,5.5179,5.5179,5.5179,5.5179,5.5029,5.47,5.4012,5.3713,5.3414,5.2965,5.2157,5.1558,5.1558,5.102,0.0,0.0,0.0,0.0,0.0,4.9299,4.9299,0.0,4.9582,0.0,0.0,0.0,0.0,0.0,0.0,0.0,0.0,5.0501,0.0,5.068,5.122,5.1316,5.1058,5.1631,5.1648,5.1229,5.1229,5.1229,5.1229,5.1229,5.1229,5.1229,5.1229,5.1229,5.1229,5.1229,5.1229,5.1229,5.1229,5.1229,5.1182,5.2576,5.3114,5.3563,5.3563,5.4132,5.4581,5.4581,5.491,5.5179,5.5179,5.5418,5.5718,5.6188,5.6017,0.0,5.6466,5.6526,5.6675,5.7064,5.6735,5.6526,5.6526,5.6137,5.5807,5.5568,0.0,0.0,5.5179,5.5179,5.5179,5.5179,5.5179,5.5179,5.5179,5.5179,5.5179,5.5179,5.5179,5.5179,5.5179,5.5179,5.5179,5.5179,5.5179,5.5179,5.5179,5.5179,5.5179,5.5179,5.5179,5.5179,5.5179,5.5179,5.5179,5.5179,5.5179,5.5179,5.5179,5.5179,5.5179,5.5179,5.5179,5.5179,5.5179,5.5179,5.5179,5.5059,5.467,5.4371,5.4072,5.3653,5.3025,5.2576,5.2576,5.2007,5.1439,5.0973,0.0,0.0,0.0,0.0,0.0,0.0,5.0361,0.0,0.0,0.0,0.0,0.0,0.0,0.0,5.1143,5.138,0.0,5.1679,5.1887,5.1816,5.1588,5.1738,5.1738,5.1588,5.1588,5.1708,5.1947,5.1947,5.1947,5.1947,5.1947,5.1947,5.1947,5.1947,5.1798,5.1588,5.1588,5.1439,5.1229,5.3264,5.3803,0.0,0.0,5.479,0.0,5.5179,5.5179,5.5209,5.5239,5.5777,5.6248,5.6286,5.6825,5.7184,5.7214,0.0,0.0,0.0,5.7184,5.7154,5.7154,5.7124,5.6825,5.6256,5.6226,5.5927,5.5329,5.5329,5.5299,5.5269,5.5269,5.5239,5.5179,5.5179,5.5179,5.5179,5.5179,5.5179,5.5179,5.5179,5.5179,5.5179,5.5179,5.5179,5.5179,5.5179,5.5179,5.5179,5.5179,5.5179,5.5179,5.5179,5.5179,5.5179,5.5179,5.5179,5.5179,5.5179,5.5179,5.5179,5.5179,5.5179,5.5179,5.5179,5.5179,5.5179,5.5179,5.47,5.4281,5.4281,5.3713,5.3264,5.3264,5.2695,5.2276,5.2276,0.0,0.0,0.0,0.0,0.0,0.0,5.1349,5.1349,0.0,0.0,0.0,0.0,0.0,5.2048,5.2276,5.2845,5.3144,5.3114,5.2546,5.2276,5.2247,5.1648,5.1678,5.2276,5.2276,5.2606,5.3174,5.3174,5.3174,5.3174,5.3174,5.3174,5.3174,5.3174,5.2815,5.2276,5.2276,5.1887,5.1349,0.0,0.0,5.497,5.497,5.5089,5.5179,5.5179,5.5179,5.5359,5.5867,5.6128,5.6555,5.7543,5.7782,5.8082,5.859,5.8171,5.8082,5.859,5.8171,5.7872,5.7872,5.7363,5.7034,5.6885,5.6885,5.6795,5.6645,5.6645,5.6406,5.5927,5.5927,5.5658,5.5179,5.5179,5.5179,5.5179,5.5179,5.5179,5.5179,5.5179,5.5179,5.5179,5.5179,5.5179,5.5179,5.5179,5.5179,5.5179,5.5179,5.5179,5.5179,5.5179,5.5179,5.5179,5.5179,5.5179,5.5179,5.5179,5.5179,5.5179,5.5179,5.5179,5.5179,5.5179,5.5179,5.5179,5.5179,5.5059,5.497,5.497,5.4431,5.3952,5.3952,5.3384,5.2935,5.2935,5.2815,0.0,0.0,5.2725,5.2725,5.2725,5.2725,5.2725,0.0,0.0,0.0,0.0,5.3394,5.3454,5.2965,5.3084,5.2935,5.2426,5.2785,5.2935,5.2935,5.2785,5.2785,5.2935,5.2935,5.3025,5.3174,5.3174,5.3174,5.3174,5.3174,5.3174,5.3174,5.3174,5.3084,5.2935,5.2935,5.2845,5.2725,5.467,5.494,5.5179,5.5179,5.5179,5.5179,5.5179,5.5448,5.5777,5.6188,5.6705,5.7334,5.8052,5.8381,5.871,5.9069,5.877,5.871,5.9069,5.877,5.859,5.859,5.8201,5.7872,5.7573,5.7573,5.7423,5.7094,5.7094,5.6915,5.6585,5.6585,5.6406,5.6047,5.6047,5.6047,5.6047,5.6047,5.6047,5.6047,5.6047,5.6047,5.6047,5.6047,5.6047,5.6047,5.6047,5.5867,5.5658,5.5658,5.5448,5.5179,5.5179,5.5179,5.5179,5.5179,5.5179,5.5179,5.5179,5.5179,5.5179,5.5179,5.5179,5.5179,5.5179,5.5179,5.5179,5.5179,5.5179,5.5179,5.5179,5.491,5.467,5.467,5.4102,5.3653,5.3653,5.3384,0.0,5.3174,5.3174,5.3174,5.3174,5.3174,5.3174,5.3174,0.0,0.0,5.3653,5.4012,5.4042,5.3653,5.3653,5.3623,5.3563,5.3623,5.3503,5.3174,5.3174,5.3354,5.3653,5.3653,5.3803,5.4102,5.4102,5.4102,5.4102,5.4102,5.4102,5.4102,5.4102,5.3922,5.3653,5.3653,5.3443,5.3174,5.5179,5.5179,5.5179,5.5179,5.5179,5.5209,5.5329,5.5807,5.6308,5.6436,5.7423,5.8171,5.8261,5.877,5.9099,5.9099,5.9099,5.9099,5.9099,5.9099,5.9099,5.9099,5.9099,5.883,5.8291,5.8261,5.7992,5.7393,5.7393,5.7363,5.7244,5.7244,5.7184,5.7094,5.7094,5.7094,5.7094,5.7094,5.7094,5.7094,5.7094,5.7094,5.7094,5.7094,5.7094,5.7094,5.7094,5.6765,5.6368,5.6368,5.5867,5.5329,5.5329,5.5269,5.5179,5.5179,5.5179,5.5179,5.5179,5.5179,5.5179,5.5179,5.5179,5.5179,5.5179,5.5179,5.5179,5.5179,5.5179,5.5179,5.5179,5.5179,5.5179,5.5179,5.473,5.4371,5.4371,0.0,5.3473,5.3473,5.3473,5.3473,5.3473,5.3473,5.3473,5.3473,5.3952,5.4251,0.0,5.4251,5.4251,5.4371,5.4251,5.4491,5.5029,5.4491,5.3922,5.3324,5.3443,5.3803,5.4371,5.4371,5.467,5.5179,5.5179,5.5179,5.5179,5.5179,5.5179,5.5179,5.5179,5.485,5.4371,5.4371,5.3982,5.3473,5.5179,5.5179,5.5179,5.5179,5.5179,5.5388,5.5927,5.6107,5.6585,5.7663,5.7992,5.8351,5.889,5.9039,5.9099,5.9099,5.9099,5.9099,5.9099,5.9099,5.9099,5.9099,5.9099,5.9069,5.8949,5.8949,5.889,5.88,5.88,5.8501,5.7962,5.7962,5.7663,5.7094,5.7094,5.7094,5.7094,5.7094,5.7094,5.7094,5.7094,5.7094,5.7094,5.7094,5.7094,5.7094,5.7094,5.7034,5.6944,5.6944,5.6526,5.6017,5.6017,5.5628,5.5179,5.5179,5.5179,5.5179,5.5179,5.5179,5.5179,5.5179,5.5179,5.5179,5.5179,5.5179,5.5179,5.5179,5.5179,5.5179,5.5179,5.5179,5.5179,5.5179,5.5089,5.5029,5.5029,0.0,5.488,5.488,5.488,5.488,5.488,5.488,5.488,5.488,5.4461,5.4461,5.4999,5.4521,5.4461,5.5029,5.4491,5.4251,5.4371,5.4251,5.4162,5.4072,5.461,5.494,5.5029,5.5029,5.5089,5.5179,5.5179,5.5179,5.5179,5.5179,5.5179,5.5179,5.5179,5.5119,5.5029,5.5029,5.497,5.488,5.5179,5.5179,5.5179,5.5179,5.5478,5.5807,5.6188,5.6765,5.7423,5.8052,5.8441,5.877,5.9069,5.9099,5.9099,5.9099,5.9099,5.9099,5.9099,5.9099,5.9099,5.9099,5.9099,5.9099,5.9099,5.9099,5.9099,5.9099,5.9099,5.8949,5.865,5.865,5.8471,5.8171,5.8171,5.8171,5.8171,5.8171,5.8171,5.8171,5.8171,5.8171,5.8171,5.8171,5.8171,5.8171,5.8171,5.7962,5.7633,5.7633,5.7214,5.6675,5.6675,5.6466,5.6166,5.5807,5.5478,5.5179,5.5179,5.5179,5.5179,5.5179,5.5179,5.5179,5.5179,5.5179,5.5179,5.5179,5.5179,5.5179,5.5179,5.5179,5.5179,5.5179,5.5179,0.0,0.0,5.5179,5.5179,5.5179,5.5179,5.5179,5.5179,5.5179,5.5179,5.5179,5.491,5.488,5.5179,5.4551,5.4521,5.5179,5.491,5.4581,5.4221,5.4551,5.473,5.473,5.5029,5.5179,5.5179,5.5179,5.5179,5.5179,5.5179,5.5179,5.5179,5.5179,5.5179,5.5179,5.5179,5.5179,5.5179,5.5179,5.5179,5.5179,5.5179,5.5179,5.5239,5.5388,5.5837,5.6286,5.6585,5.7483,5.8171,5.8321,5.88,5.9099,5.9099,5.9099,5.9099,5.9099,5.9099,5.9099,5.9099,5.9099,5.9099,5.9099,5.9099,5.9099,5.9099,5.9099,5.9099,5.9099,5.9099,5.9099,5.9099,5.9099,5.9099,5.9099,5.9099,5.9099,5.9099,5.9099,5.9099,5.9099,5.9099,5.9099,5.9099,5.9099,5.9099,5.9099,5.9099,5.877,5.8351,5.8351,5.7902,5.7334,5.7334,5.7214,5.7004,5.6526,5.5927,5.5388,5.5239,5.5179,5.5179,5.5179,5.5179,5.5179,5.5179,5.5179,5.5179,5.5179,5.5179,5.5179,5.5179,5.5179,5.5179,5.5179,0.0,0.0,0.0,5.5179,5.5179,5.5179,5.5179,5.5179,5.5179,5.5179,5.5179,5.5179,5.5059,5.5029,5.5179,5.4551,5.4521,5.5179,5.5179,5.494,5.4431,5.494,5.5179,5.5179,5.5179,5.5179,5.5179,5.5179,5.5179,5.5179,5.5179,5.5179,5.5179,5.5179,5.5179,5.5179,5.5179,5.5179,5.5179,5.5179,5.5179,5.5179,5.5179,5.5179,5.5388,5.6038,5.6188,5.6585,5.7782,5.8052,5.8351,5.8949,5.9069,5.9099,5.9099,5.9099,5.9099,5.9099,5.9099,5.9099,5.9099,5.9099,5.9099,5.9099,5.9099,5.9099,5.9099,5.9099,5.9099,5.9099,5.9099,5.9099,5.9099,5.9099,5.9099,5.9099,5.9099,5.9099,5.9099,5.9099,5.9099,5.9099,5.9099,5.9099,5.9099,5.9099,5.9099,5.9099,5.9099,5.9069,5.9039,5.9039,5.859,5.8052,5.8052,5.7603,5.7094,5.7034,5.6585,5.5957,5.5359,5.5179,5.5179,5.5179,5.5179,5.5179,5.5179,5.5179,5.5179,5.5179,5.5179,5.5179,5.5179,5.5179,5.5179,5.5179,0.0,0.0,5.5179,5.5179,5.5179,5.5179,5.5179,5.5179,5.5179,5.5179,5.5179,5.5179,5.461,5.4551,5.5149,5.4551,5.4521,5.5179,5.5179,5.5179,5.5119,5.5179,5.5179,5.5179,5.5179,5.5179,5.5179,5.5179,5.5179,5.5179,5.5179,5.5179,5.5179,5.5179,5.5179,5.5179,5.5179,5.5179,5.5179,5.5179,5.5179,5.5179,5.5718,5.5807,5.6017,5.6645,5.7094,5.7543,5.8052,5.8471,5.883,5.9069,5.9099,5.9099,5.9099,5.9099,5.9099,5.9099,5.9099,5.9099,5.9099,5.9099,5.9099,5.9099,5.9099,5.9099,5.9099,5.9099,5.9099,5.9099,5.9099,5.9099,5.9099,5.9099,5.889,5.8501,5.8501,5.8261,5.7872,5.7872,5.7872,5.7872,5.7872,5.7872,5.7872,5.7872,5.7872,5.7872,5.7872,5.7872,5.7932,5.8351,5.8321,5.8201,5.859,5.856,5.8261,5.7842,5.7274,5.6675,5.6436,5.5807,5.5179,5.5179,5.5179,5.5179,5.5179,5.5179,5.5179,5.5179,5.5179,5.5179,5.5179,5.5179,5.5179,5.5179,0.0,5.5179,5.5179,5.5179,5.5179,5.5179,5.5179,5.5179,5.5179,5.5179,5.5179,5.5179,5.497,5.494,5.5179,5.497,5.494,5.5179,5.5179,5.5179,5.5179,5.5179,5.5179,5.5179,5.5179,5.5179,5.5179,5.5179,5.5179,5.5179,5.5179,5.5179,5.5179,5.5179,5.5179,5.5179,5.5179,5.5179,5.5179,5.5179,5.5179,5.5179,5.6098,5.6218,5.6436,5.7274,5.7812,5.8201,5.8411,5.88,5.9099,5.9099,5.9099,5.9099,5.9099,5.9099,5.9099,5.9099,5.9099,5.9099,5.9099,5.9099,5.9099,5.9099,5.9099,5.9099,5.9099,5.9099,5.9099,5.9099,5.9099,5.9099,5.9099,5.9099,5.886,5.8441,5.8441,5.8171,5.7723,5.7723,5.7723,5.7723,5.7723,5.7723,5.7723,5.7723,5.7723,5.7723,5.7723,5.7723,5.7812,5.8261,5.8441,5.8501,5.8949,5.9099,5.8979,5.8321,5.7633,5.7094,5.7094,5.6316,5.5508,5.5508,5.5508,5.5448,5.5239,5.5179,5.5179,5.5179,5.5179,5.5179,5.5179,5.5179,5.5179,5.5179,5.5179,5.5179,5.5179,5.5179,5.5179,5.5179,5.5179,5.5179,5.5179,5.5179,5.5179,5.5179,5.5179,5.5179,5.5179,5.5179,5.5179,5.5179,5.5388,5.5388,5.5179,5.5179,5.5299,5.5508,5.5508,5.5598,5.5777,5.5777,5.5688,5.5508,5.5508,5.5388,5.5179,5.5179,5.5179,5.5179,5.5179,5.5179,5.5179,5.5179,5.5179,5.5179,5.6098,5.6248,5.6585,5.7902,5.8141,5.8351,5.9009,5.9099,5.9099,5.9099,5.9099,5.9099,5.9099,5.9099,5.9099,5.9099,5.9099,5.9099,5.9099,5.9099,5.9099,5.9099,5.9099,5.9099,5.9099,5.9099,5.9099,5.9099,5.9099,5.9099,5.9099,5.9099,5.9099,5.9099,5.9099,5.9099,5.9099,5.9099,5.9099,5.9099,5.9099,5.9099,5.9099,5.9099,5.9099,5.9099,5.9099,5.9099,5.9099,5.9099,5.9099,5.9099,5.9099,5.9099,5.8979,5.8321,5.7633,5.7124,5.7124,5.6645,5.6248,5.6248,5.6248,5.6017,5.5359,5.5209,5.5209,5.5209,5.5209,5.5209,5.5209,5.5179,5.5179,5.5179,5.5179,5.5179,5.5179,5.5179,5.5179,5.5179,5.5179,5.5179,5.5179,5.5179,5.5179,5.5179,5.5179,5.5209,5.5179,5.5179,5.5209,5.5179,5.5837,5.5837,5.5209,5.5209,5.5538,5.6218,5.6218,5.6496,5.7094,5.7094,5.6735,5.6218,5.6218,5.5777,5.5179,5.5179,5.5179,5.5179,5.5179,5.5179,5.5179,5.5179,5.5179,5.5179,5.6705,5.7214,5.7812,5.865,5.88,5.889,5.9069,5.9099,5.9099,5.9099,5.9099,5.9099,5.9099,5.9099,5.9099,5.9099,5.9099,5.9099,5.9099,5.9099,5.9099,5.9099,5.9099,5.9099,5.9099,5.9099,5.9099,5.9099,5.9099,5.9099,5.9099,5.9099,5.886,5.8411,5.8411,5.8141,5.7693,5.7693,5.7693,5.7693,5.7693,5.7693,5.7693,5.7693,5.7693,5.7693,5.7693,5.7693,5.7782,5.8261,5.8411,5.8501,5.8949,5.9099,5.9069,5.886,5.865,5.8501,5.8501,5.8381,5.7992,5.7064,5.6825,5.6765,5.6585,5.6526,5.6526,5.6526,5.6196,5.5867,5.5867,5.5508,5.5179,5.5179,5.5179,5.5179,5.5179,5.5179,5.5179,5.5179,5.5179,5.5179,5.5179,5.5179,5.5179,5.5179,5.5628,5.5688,5.5209,5.5628,5.5658,5.5209,5.5388,5.5388,5.5179,5.5658,5.5748,5.5478,5.5478,5.5568,5.5748,5.5748,5.5658,5.5478,5.5478,5.5359,5.5179,5.5179,5.5179,5.5179,5.5179,5.5179,5.5179,5.5179,5.5179,5.5179,5.6974,5.7663,5.8321,5.8979,5.9099,5.9099,5.9099,5.9099,5.9099,5.9099,5.9099,5.9099,5.9099,5.9099,5.9099,5.9099,5.9099,5.9009,5.874,5.8949,5.8979,5.874,5.8979,5.9099,5.9099,5.9099,5.9099,5.9099,5.9099,5.9099,5.9099,5.9099,5.889,5.853,5.853,5.8291,5.7902,5.7902,5.7902,5.7902,5.7902,5.7902,5.7902,5.7902,5.7902,5.7902,5.7902,5.7902,5.7962,5.8381,5.853,5.859,5.8979,5.9099,5.9069,5.88,5.871,5.871,5.871,5.871,5.859,5.8022,5.7483,5.6974,5.6466,5.6346,5.6406,5.6675,5.6436,5.6308,5.6496,5.6196,5.5927,5.5927,5.5927,5.5927,5.5927,5.5927,5.5927,5.5927,5.5927,5.5927,5.5927,5.5927,5.5837,5.5598,5.5957,5.5897,5.5239,5.5568,5.5598,5.5209,5.5448,5.5448,5.5179,5.5837,5.5987,5.5598,5.5598,5.5718,5.5927,5.5927,5.5807,5.5598,5.5598,5.5448,5.5179,5.5179,5.5179,5.5179,5.5179,5.5179,5.5179,5.5179,5.5179,5.5179,5.7064,5.7752,5.8411,5.9009,5.9099,5.9099,5.9099,5.9099,5.9099,5.9099,5.9099,5.9099,5.9099,5.9099,5.9099,5.9099,5.9069,5.877,5.8171,5.868,5.877,5.8231,5.877,5.9099,5.9099,5.9099,5.9099,5.9099,5.9099,5.9099,5.9099,5.9099,5.9099,5.9099,5.9099,5.9099,5.9099,5.9099,5.9099,5.9099,5.9099,5.9099,5.9099,5.9099,5.9099,5.9099,5.9099,5.9099,5.9099,5.9099,5.9099,5.9099,5.9099,5.9099,5.8979,5.8381,5.8201,5.8201,5.8201,5.8201,5.8351,5.889,5.8082,5.6885,5.5807,5.5508,5.5628,5.6226,5.6308,5.6346,5.6915,5.6974,5.6915,5.6915,5.6915,5.6915,5.6915,5.6915,5.6915,5.6915,5.6915,5.6915,5.6915,5.6915,5.6675,5.6137,5.6188,5.5897,5.5239,5.5239,5.5239,5.5179,5.5777,5.5807,5.5209,5.5777,5.6077,5.6077,5.6077,5.6376,5.6915,5.6915,5.6615,5.6077,5.6077,5.5748,5.5179,5.5179,5.5179,5.5179,5.5179,5.5179,5.5179,5.5179,5.5179,5.5179,5.7752,5.8441,5.8949,5.9069,5.9099,5.9099,5.9099,5.9099,5.9099,5.9099,5.9099,5.9099,5.9099,5.9099,5.9099,5.9099,5.865,5.8291,5.8141,5.8261,5.8501,5.889,5.9039,5.9099,5.9099,5.9099,5.9099,5.9099,5.9099,5.9099,5.9099,5.9099,5.9099,5.9099,5.9099,5.9099,5.9099,5.9099,5.9099,5.9099,5.9099,5.9099,5.9099,5.9099,5.9099,5.9099,5.9099,5.9099,5.9099,5.9099,5.9099,5.9099,5.9099,5.9099,5.9069,5.8949,5.889,5.889,5.889,5.889,5.88,5.8441,5.8112,5.7962,5.8201,5.7872,5.7513,5.7663,5.6885,5.6226,5.6346,5.5957,5.5598,5.5598,5.5598,5.5598,5.5598,5.5598,5.5598,5.5598,5.5598,5.5598,5.5598,5.5598,5.5538,5.5418,5.5867,5.5897,5.5239,5.5688,5.5718,5.5209,5.5329,5.5329,5.5179,5.5329,5.5418,5.5418,5.5418,5.5478,5.5598,5.5598,5.5538,5.5418,5.5418,5.5329,5.5179,5.5179,5.5179,5.5179,5.5179,5.5179,5.5179,5.5179,5.5179,5.5179,5.8234,5.9001,5.9506,5.9315,5.9315,5.9261,5.9099,5.9099,5.9099,5.9099,5.9099,5.9099,5.9099,5.9099,5.8979,5.865,5.8321,5.7992,5.7663,5.8231,5.859,5.865,5.8949,5.9099,5.9099,5.9099,5.9099,5.9099,5.9099,5.9099,5.9099,5.9099,5.9099,5.9099,5.9099,5.9099,5.9099,5.9099,5.9099,5.9099,5.9099,5.9099,5.9099,5.9099,5.9099,5.9099,5.9099,5.9099,5.9099,5.9099,5.9099,5.9099,5.9099,5.9099,5.9099,5.9099,5.9099,5.9099,5.9099,5.9099,5.9009,5.868,5.859,5.8501,5.8201,5.7872,5.7723,5.8052,5.7573,5.7094,5.7094,5.6825,5.6496,5.6166,5.6107,5.6107,5.6107,5.6107,5.6107,5.6107,5.6107,5.6107,5.6107,5.6107,5.5987,5.5688,5.5987,5.5897,5.5239,5.5508,5.5538,5.5209,5.5179,5.5179,5.5179,5.5179,5.5179,5.5179,5.5179,5.5179,5.5179,5.5179,5.5179,5.5179,5.5179,5.5179,5.5179,5.5179,5.5179,5.5179,5.5179,5.5179,5.5179,5.5179,5.5179,5.5179,5.8753,5.9622,6.0092,5.9796,5.966,5.9529,5.9207,5.9153,5.9099,5.9099,5.9153,5.9123,5.9003,5.8883,5.8584,5.8045,5.7962,5.7752,5.7304,5.8321,5.874,5.8321,5.88,5.9099,5.9099,5.9099,5.9099,5.9099,5.9099,5.9099,5.9099,5.9099,5.9099,5.9099,5.9099,5.9099,5.9099,5.9099,5.9099,5.9099,5.9099,5.9099,5.9099,5.9099,5.9099,5.9099,5.9099,5.9099,5.9099,5.9099,5.9099,5.9099,5.9099,5.9099,5.9099,5.9099,5.9099,5.9099,5.9099,5.9099,5.9099,5.9099,5.9099,5.88,5.7693,5.7363,5.7423,5.8022,5.8022,5.7962,5.7962,5.7962,5.7723,5.7034,5.6944,5.6885,5.6795,5.6765,5.6765,5.6765,5.6765,5.6765,5.6765,5.6765,5.6555,5.6047,5.6068,5.5777,5.5209,5.5179,5.5179,5.5179,5.5179,5.5179,5.5179,5.5179,5.5179,5.5179,5.5179,5.5179,5.5179,5.5179,5.5179,5.5179,5.5179,5.5179,5.5179,5.5179,5.5179,5.5179,5.5179,5.5179,5.5179,5.5179,5.5179,5.5179,5.9914,6.0598,6.0918,6.069,6.0399,6.0031,5.9529,5.9261,5.9099,5.9099,5.9315,5.9212,5.864,5.8038,5.7677,5.7587,5.7348,5.7453,5.7962,5.8141,5.8471,5.8949,5.9069,5.9099,5.9099,5.9099,5.9099,5.9099,5.9099,5.9099,5.9099,5.9099,5.9099,5.9099,5.9099,5.9099,5.9099,5.9099,5.9099,5.9099,5.9099,5.9099,5.9099,5.9099,5.9099,5.9099,5.9099,5.9099,5.9099,5.9099,5.9099,5.9099,5.9099,5.9099,5.9099,5.9099,5.9099,5.9099,5.9099,5.9099,5.9099,5.9099,5.9099,5.9069,5.889,5.8381,5.8022,5.8112,5.7633,5.7244,5.7244,5.7244,5.7034,5.6406,5.6286,5.6107,5.5538,5.5448,5.5448,5.5448,5.5448,5.5448,5.5448,5.5448,5.5418,5.5329,5.5329,5.5299,5.5179,5.5179,5.5179,5.5179,5.5179,5.5179,5.5179,5.5179,5.5179,5.5179,5.5179,5.5179,5.5179,5.5179,5.5179,5.5179,5.5179,5.5179,5.5179,5.5179,5.5179,5.5179,5.5179,5.5179,5.5179,5.5179,5.5179,5.5179,6.0815,6.1481,6.1784,6.1512,6.1124,6.0659,6.0272,5.9849,5.9667,5.9796,5.9569,5.9362,5.9368,5.844,5.7881,5.7942,5.787,5.7967,5.8377,5.8684,5.8961,5.9099,5.9099,5.9099,5.9099,5.9099,5.9099,5.9099,5.9099,5.9099,5.9099,5.9099,5.9099,5.9099,5.9099,5.9099,5.9099,5.9099,5.9099,5.9099,5.9099,5.9099,5.9099,5.9099,5.9099,5.9099,5.9099,5.9099,5.9099,5.9099,5.9099,5.9099,5.9099,5.9099,5.9099,5.9099,5.9099,5.9099,5.9099,5.9099,5.9099,5.9099,5.9099,5.9099,5.9099,5.889,5.868,5.868,5.8441,5.8112,5.7752,5.7663,5.7453,5.6795,5.6675,5.6466,5.5837,5.5748,5.5598,5.5239,5.5179,5.5179,5.5179,5.5179,5.5179,5.5179,5.5179,5.5179,5.5179,5.5179,5.5179,5.5179,5.5179,5.5179,5.5179,5.5179,5.5179,5.5179,5.5179,5.5179,5.5179,5.5179,5.5179,5.5179,5.5179,5.5179,5.5179,5.5179,5.5179,5.5179,5.5179,5.5179,5.5179,5.5179,5.5179,5.5179]}]]